GFSMW_850_rhum_006.txt.gz
RH
26 22 21 21 23 21 23 28 31 38 47 49 48 47 46 46 45 45 49 57 64 73 79 80 81 82 85 84 86 88 89 88 90 94 92 89 84 82 78 78 77 72 73
25 23 22 23 22 23 24 23 25 28 31 38 49 52 51 51 53 59 65 68 70 74 80 82 83 84 85 84 87 91 95 97 97 99 100 99 91 88 82 76 61 45 52
31 28 25 24 23 21 22 22 24 28 32 36 42 51 58 60 63 72 76 75 79 82 83 87 87 86 85 84 83 86 90 93 90 92 100 99 91 81 79 77 72 72 70
36 35 32 28 28 29 29 28 28 32 36 41 46 53 63 67 66 64 63 67 71 73 76 80 80 80 81 83 85 86 86 89 85 86 92 98 100 98 90 80 87 89 88
37 36 35 34 33 31 30 31 31 31 33 34 38 42 44 45 45 46 51 59 68 78 81 81 84 82 82 79 81 88 93 92 85 84 95 96 99 100 100 98 86 82 85
38 36 38 37 35 36 35 35 34 36 37 38 39 40 42 44 42 43 44 45 44 43 43 46 54 62 65 66 73 78 83 87 96 99 100 100 100 99 100 100 100 97 79
33 35 36 36 38 38 38 41 43 43 44 44 44 44 44 46 49 52 55 55 53 52 51 49 46 45 47 49 53 56 60 67 77 83 93 98 99 100 100 100 100 100 99
33 32 35 39 42 43 44 46 46 46 45 43 41 41 41 43 50 55 58 57 53 49 43 38 34 31 29 29 34 44 50 54 59 60 59 60 68 82 92 99 100 98 97
35 37 38 43 47 49 50 50 49 49 47 40 31 32 36 38 42 46 50 50 50 48 44 39 36 33 31 29 28 28 28 35 45 52 56 59 64 66 65 70 83 96 97
39 40 44 49 52 52 53 52 51 50 46 28 28 37 39 38 42 44 45 47 48 47 44 41 38 37 37 38 38 38 37 41 40 56 70 68 71 75 79 83 84 90 100
41 45 49 53 54 55 55 55 55 52 39 25 31 37 40 45 50 50 51 52 52 48 43 40 40 44 47 48 51 56 56 59 71 81 73 68 68 71 75 78 79 80 89
44 50 53 54 57 58 57 54 51 45 32 34 40 40 37 38 46 50 51 52 46 39 34 33 36 40 44 54 66 61 71 79 68 63 65 77 83 85 82 80 82 86 86
50 54 54 54 54 53 52 51 50 40 37 41 42 44 48 52 52 47 40 32 24 18 17 20 26 30 44 52 55 80 84 61 68 73 84 84 80 76 66 71 85 86 85
53 52 52 53 55 55 53 52 43 41 43 43 45 47 44 40 34 22 10 4 2 2 3 4 6 16 38 39 50 55 54 67 74 70 68 60 50 39 43 82 88 90 98
51 50 52 58 59 56 54 43 47 50 50 49 44 36 27 13 3 3 3 4 4 4 5 5 7 14 23 22 38 36 45 64 71 54 44 38 29 26 75 44 43 67 98
51 53 57 58 56 51 47 54 56 54 50 41 26 10 3 3 4 4 4 5 5 6 6 6 7 7 10 25 21 29 61 73 55 48 40 27 19 37 27 14 28 42 96
51 55 57 59 50 56 60 62 61 55 38 18 4 4 6 5 6 7 8 10 11 11 12 13 13 13 13 19 37 64 68 50 48 48 39 21 29 85 48 21 22 28 72
57 64 60 55 61 71 72 67 56 35 11 4 6 6 6 8 10 11 12 13 15 16 16 17 18 20 19 27 52 64 49 38 27 39 23 21 90 80 53 47 55 44 89
64 62 62 67 80 79 75 59 34 11 6 6 6 8 10 12 13 14 14 16 19 20 23 26 26 26 38 48 48 40 26 29 48 60 54 81 93 93 97 94 88 93 97
69 68 69 80 83 76 62 36 12 8 8 7 9 11 14 16 17 18 19 21 23 26 28 30 31 37 48 50 53 70 74 83 86 86 89 95 97 98 95 99 97 100 100
72 71 78 85 85 73 41 14 10 9 9 12 13 15 18 20 21 22 23 24 28 33 36 40 40 56 64 67 79 85 90 90 97 97 95 88 78 92 92 100 100 100 99
73 79 85 88 89 46 14 11 10 12 14 15 16 17 20 22 23 25 26 28 31 39 47 61 73 79 85 84 90 92 92 93 93 96 91 91 90 86 100 100 99 98 98
84 90 85 88 71 19 15 12 14 16 16 16 17 19 20 23 25 32 32 34 42 55 68 85 93 94 84 76 88 92 91 98 95 96 100 93 97 97 100 99 100 98 98
92 86 93 56 14 16 13 15 16 17 18 18 19 20 24 29 33 33 37 45 54 75 92 99 100 100 93 96 90 98 92 93 92 95 88 92 95 96 100 95 94 99 98
90 82 41 15 17 15 14 16 18 20 20 21 21 23 30 36 38 36 43 56 67 96 97 95 96 97 97 92 96 92 94 98 95 88 88 83 84 88 89 85 97 100 100
65 41 17 19 16 15 15 17 20 23 23 22 24 31 40 42 48 50 46 46 63 91 96 95 93 93 90 95 88 91 97 97 90 91 90 92 93 100 98 100 100 99 100

GFSMW_850_rhum_009.txt.gz
RH
32 30 29 26 25 22 23 24 27 28 32 37 44 47 48 50 52 54 57 62 67 74 84 90 92 89 92 92 95 96 97 96 97 100 91 88 86 81 78 80 77 74 71
31 29 30 26 24 25 27 27 27 29 32 35 43 52 56 58 62 66 71 74 82 88 91 90 90 92 94 92 90 92 97 98 90 91 98 99 88 81 79 76 77 76 77
33 32 29 29 29 27 28 28 29 32 34 40 50 58 65 72 78 78 72 70 71 76 79 81 83 85 86 85 86 89 92 85 83 85 98 98 93 85 78 71 72 74 75
37 35 34 32 32 34 33 31 30 29 33 36 41 48 54 54 52 50 52 59 67 71 71 71 71 73 76 77 80 80 87 96 98 96 99 100 100 99 96 92 86 79 83
36 36 35 34 35 35 35 36 34 34 37 37 38 38 40 44 46 46 46 47 49 49 49 49 50 50 52 56 60 62 67 92 100 100 100 100 99 99 100 98 92 94 97
38 37 37 37 36 38 38 37 37 38 40 40 40 40 41 42 42 42 42 44 46 46 45 44 42 40 37 35 35 40 48 56 60 67 74 80 86 95 97 100 100 100 97
35 37 39 38 39 40 41 42 44 43 43 40 38 37 38 38 37 37 36 34 33 33 38 41 41 39 37 34 32 30 29 29 33 41 51 60 65 67 69 80 86 93 83
36 39 39 40 42 44 46 47 47 47 46 38 29 29 30 32 37 39 39 41 43 44 44 44 43 41 38 36 36 36 35 35 36 37 38 49 68 73 78 86 95 98 95
39 40 42 45 46 48 48 49 50 49 47 39 28 30 34 33 34 39 45 46 47 47 46 45 42 37 34 35 37 39 40 46 52 58 62 78 79 74 72 78 84 97 97
44 44 47 48 49 51 52 53 53 53 49 33 29 34 39 41 42 42 42 43 44 42 39 34 28 26 26 28 34 40 44 51 68 78 73 65 64 67 76 83 84 83 92
43 46 48 50 52 55 56 56 56 52 43 33 36 40 41 41 43 43 42 38 32 24 15 8 5 5 6 11 23 33 46 85 86 66 62 66 83 92 82 75 73 66 73
43 47 52 54 56 57 59 58 53 49 40 40 44 45 46 44 41 34 26 15 5 2 2 3 3 3 4 6 13 19 47 65 42 49 66 76 76 50 40 39 46 43 67
46 52 55 56 59 62 59 56 53 43 44 49 50 49 44 36 25 11 3 2 3 3 3 3 4 4 5 5 7 13 32 35 33 48 73 79 49 40 33 26 80 80 32
49 52 57 62 62 60 58 56 46 50 55 58 54 44 30 14 4 4 4 4 4 5 5 6 6 6 6 7 9 12 24 32 45 64 81 63 54 46 28 62 100 71 34
55 56 58 60 63 66 58 49 55 58 62 60 44 26 8 4 5 5 5 6 6 7 7 7 7 7 7 8 10 14 35 75 76 63 52 44 44 38 40 82 80 80 70
56 55 59 66 69 58 54 61 67 68 63 46 23 7 5 5 6 6 7 7 8 8 9 9 9 9 11 12 15 33 65 79 57 47 41 35 31 30 56 67 65 87 100
53 54 64 69 60 60 71 75 73 68 48 20 8 6 6 7 8 8 9 10 10 11 11 11 12 13 15 18 26 49 69 56 46 49 51 43 53 64 84 84 91 98 100
53 62 70 63 63 74 78 78 74 52 22 9 8 7 8 9 10 11 12 12 13 13 14 14 17 19 20 25 43 65 66 70 73 75 69 82 91 87 91 89 92 97 82
56 67 66 64 69 78 79 76 62 22 11 8 8 9 10 11 12 13 14 15 16 16 17 21 23 25 28 41 61 85 88 84 80 79 91 95 92 92 90 85 90 88 87
67 68 65 69 79 81 78 56 34 15 9 8 9 12 13 14 15 16 17 19 21 21 24 26 31 36 46 60 90 91 90 92 98 96 94 85 93 91 92 90 93 98 96
70 71 74 81 84 83 69 40 27 10 9 11 12 13 15 17 17 19 22 22 23 28 30 34 32 40 66 78 93 92 92 96 98 94 92 91 95 98 88 93 97 97 97
80 80 83 88 83 76 64 38 11 11 12 13 14 16 18 19 21 24 24 23 25 30 35 40 47 68 83 83 93 93 91 94 96 95 96 95 91 91 88 88 88 95 98
80 83 88 85 81 60 33 13 12 14 15 16 17 18 19 20 22 25 26 27 34 49 56 79 93 97 86 80 87 94 100 91 91 96 100 92 91 94 93 96 98 100 96
85 89 84 85 59 22 14 15 17 18 17 18 19 20 21 22 25 29 31 40 45 56 82 97 100 97 90 91 82 97 94 90 85 97 97 79 82 99 98 98 100 100 100
93 86 72 41 18 17 15 16 18 20 20 21 21 22 22 26 30 29 33 43 50 88 97 95 97 98 96 92 96 96 91 91 97 94 85 71 95 100 100 98 99 97 100
87 65 37 18 18 16 16 18 22 23 23 23 23 26 30 34 36 34 32 35 60 93 96 96 96 91 93 92 93 91 91 98 92 91 91 90 100 100 100 95 99 100 98

GFSMW_850_rhum_012.txt.gz
RH
37 35 30 28 26 26 27 22 21 21 25 29 39 51 60 64 70 74 75 77 76 78 84 88 91 90 88 87 90 91 90 91 91 100 80 76 72 72 70 66 64 64 66
35 32 30 26 26 26 24 22 21 23 26 32 42 52 61 71 78 80 79 77 75 74 74 75 78 79 80 81 83 87 95 99 94 100 100 99 95 92 86 84 82 77 76
35 35 32 32 31 26 25 25 24 23 25 29 38 53 69 75 67 59 55 57 62 66 66 66 66 64 63 64 67 67 68 95 98 100 100 99 96 98 94 90 81 81 85
41 38 37 34 31 33 32 30 29 30 34 36 35 37 40 41 47 49 52 51 50 51 52 52 50 48 46 43 42 42 45 53 64 74 87 98 99 99 97 96 99 96 83
40 42 40 38 38 38 34 34 33 35 38 38 40 41 42 48 50 46 43 38 37 37 36 37 38 39 39 39 37 35 33 33 35 39 46 52 57 71 96 96 88 85 77
44 44 43 42 40 41 40 40 39 39 40 39 37 35 33 33 30 28 28 29 31 32 33 35 39 42 42 41 39 37 36 37 38 40 44 55 73 79 82 97 99 100 92
46 44 44 44 43 43 44 44 44 44 44 36 30 28 30 32 32 34 35 35 35 36 36 38 38 39 38 34 32 30 30 32 36 42 49 55 68 79 86 77 93 95 94
46 45 45 45 44 45 46 47 47 46 46 43 34 30 34 36 38 38 39 41 41 41 39 36 31 26 20 14 12 12 18 26 35 46 62 77 74 68 64 76 96 99 96
44 45 48 48 46 47 49 51 51 51 50 42 33 32 35 38 40 42 42 41 38 32 23 13 5 2 2 2 2 3 5 13 34 71 84 68 56 61 80 100 93 87 97
46 48 49 48 49 52 53 54 55 54 48 40 36 39 42 45 46 45 40 31 19 8 3 3 3 3 3 3 4 4 4 10 40 43 32 29 43 75 91 58 46 36 76
45 48 50 53 54 56 58 58 58 53 46 41 43 48 51 51 44 33 21 9 4 3 4 4 4 5 5 5 5 6 6 9 15 19 26 47 78 93 77 52 52 32 53
45 48 52 54 58 61 62 62 57 51 44 48 55 58 54 45 31 16 6 4 4 4 5 5 6 6 7 7 7 8 10 14 18 32 55 71 76 67 60 54 49 43 96
47 53 58 60 64 66 66 62 56 48 52 58 62 59 46 27 12 6 5 5 5 6 6 7 7 8 8 8 8 9 11 20 36 71 71 63 57 51 48 46 43 82 100
48 54 61 66 69 70 66 60 52 57 65 68 61 46 28 13 7 6 6 6 7 7 8 8 8 9 9 9 9 10 13 22 51 66 56 48 48 50 62 69 78 97 96
53 58 64 69 71 70 65 55 62 73 77 66 45 28 15 8 6 7 7 7 8 9 9 10 10 10 10 10 12 15 25 39 54 49 41 40 42 64 84 92 90 91 96
56 60 66 69 72 70 58 68 77 76 69 57 40 19 10 7 7 8 8 9 10 11 11 12 12 11 11 11 15 48 69 68 64 60 59 60 70 85 94 92 90 88 84
50 58 64 72 73 62 70 78 77 70 63 58 35 13 8 8 8 9 10 11 12 13 13 13 12 12 14 19 28 77 85 82 76 74 75 75 93 95 90 89 89 90 89
54 60 68 74 67 68 78 79 70 65 53 36 24 8 8 9 11 12 13 14 14 15 15 15 16 18 22 29 54 91 89 86 81 82 80 99 89 81 92 96 97 96 74
56 66 75 70 66 75 79 77 73 46 39 24 11 9 11 12 13 14 15 16 18 18 17 19 21 25 23 39 88 93 91 86 87 79 90 100 92 92 96 96 96 90 87
65 72 71 68 75 81 84 75 60 48 21 11 10 11 14 14 15 17 18 20 22 22 19 20 24 28 37 50 95 93 91 95 88 93 91 90 92 90 93 89 96 98 84
74 72 73 77 83 84 76 73 37 17 14 11 12 14 15 17 18 20 22 24 25 24 22 21 22 32 66 81 95 93 90 94 98 93 88 83 97 98 87 86 96 94 89
78 80 80 82 83 79 69 31 20 14 12 13 14 16 18 20 22 24 24 25 25 25 24 26 34 67 94 91 95 93 91 93 95 88 80 92 98 93 87 93 97 96 97
84 83 84 88 84 64 45 18 15 13 14 14 17 20 23 25 25 25 26 27 26 29 35 67 93 100 97 88 84 93 100 98 89 82 96 97 98 85 80 97 98 98 97
88 87 89 86 65 40 20 16 15 14 16 19 22 25 27 27 27 27 28 29 33 49 81 100 100 97 96 93 84 97 94 95 89 95 97 95 76 67 94 92 86 88 100
91 92 83 64 46 21 17 16 17 19 22 24 27 29 29 29 29 29 33 37 51 89 99 97 97 96 96 94 95 95 93 94 97 92 90 78 83 95 99 98 100 91 99
81 82 70 56 20 17 17 19 22 24 27 29 32 32 31 31 32 34 34 46 70 96 94 96 97 92 94 95 96 93 93 99 84 80 87 96 100 100 100 100 100 96 99

GFSMW_850_rhum_015.txt.gz
RH
41 39 34 29 28 27 26 24 22 25 32 34 43 51 56 63 67 72 75 77 78 76 75 73 72 73 73 74 75 75 75 74 77 98 96 96 94 87 84 81 84 77 77
40 36 34 31 26 25 23 20 20 22 24 28 42 55 69 73 74 71 67 61 57 57 57 55 53 50 48 46 45 44 43 42 45 88 94 94 87 85 92 87 82 90 77
39 40 36 33 32 28 25 24 24 25 27 30 37 50 56 56 48 46 47 49 51 51 50 49 46 42 40 39 39 38 38 39 36 36 73 90 82 89 71 82 78 79 90
43 40 36 34 33 33 32 30 30 30 33 36 36 38 40 42 52 53 52 42 35 34 34 34 35 36 36 37 37 38 38 38 39 37 39 41 50 81 75 57 70 74 82
42 41 39 38 38 39 36 35 34 35 38 37 37 36 35 36 36 33 33 33 35 37 38 38 38 37 35 33 30 28 26 27 31 38 48 47 53 73 90 91 76 84 81
45 44 45 44 44 43 42 41 40 40 38 34 31 30 29 31 32 32 34 38 40 41 41 38 34 29 22 15 9 4 3 4 9 19 36 77 99 100 99 92 87 88 81
45 46 47 48 47 47 46 46 44 42 42 41 37 32 32 34 36 39 42 44 45 44 38 30 22 11 4 3 3 3 3 3 4 8 27 62 86 79 77 85 90 94 92
48 48 48 49 50 50 50 49 48 48 47 43 38 35 37 40 44 47 49 46 39 30 18 9 4 4 4 4 5 5 5 5 6 9 18 21 17 19 45 89 97 96 93
50 50 51 52 53 54 53 53 53 52 49 43 39 40 44 49 53 53 46 37 25 15 8 4 4 5 6 6 7 7 7 7 7 7 8 10 16 42 78 96 97 86 98
53 53 54 55 57 57 56 57 56 53 48 44 43 48 55 55 51 45 38 27 14 6 5 5 6 6 7 8 8 8 9 8 9 11 12 20 31 50 79 88 87 95 80
51 54 56 59 60 60 61 60 57 53 47 46 53 60 57 53 46 37 25 12 6 6 6 7 7 8 8 9 10 10 10 10 12 16 34 65 78 49 39 49 60 61 59
51 56 58 61 64 64 64 63 58 51 50 57 65 63 56 48 36 24 12 7 6 7 8 8 9 10 11 12 12 11 11 16 25 47 79 71 59 53 58 57 68 77 85
54 58 63 66 67 68 67 64 57 53 63 72 66 58 51 42 27 14 8 7 7 8 9 10 12 13 14 13 12 12 14 22 36 63 68 55 62 66 72 85 87 91 89
51 59 66 69 71 72 70 63 57 66 74 67 63 58 52 31 15 8 7 8 9 10 12 14 15 16 15 14 13 14 22 32 48 63 64 73 78 81 88 88 90 92 91
54 60 65 71 74 74 70 60 67 75 70 66 58 55 38 17 8 8 9 10 11 13 16 17 18 16 15 14 16 32 40 47 55 57 70 80 86 93 93 92 89 94 89
54 60 66 72 76 75 66 67 75 75 68 57 48 34 34 12 8 9 10 12 15 18 20 20 18 17 16 15 17 23 65 86 88 80 79 87 88 91 95 93 90 92 95
54 58 67 77 79 73 66 75 77 73 65 47 31 23 18 9 10 11 13 17 20 22 22 20 19 18 17 18 21 81 92 93 91 91 90 84 94 99 90 90 94 95 96
52 60 72 81 78 68 73 77 78 69 56 47 27 14 10 10 12 14 18 22 24 24 22 22 20 19 20 24 48 95 92 90 90 92 91 97 99 89 89 91 97 77 62
54 64 75 80 72 70 77 82 72 66 56 29 17 11 11 13 15 20 24 26 25 25 24 24 22 22 23 38 75 96 90 85 89 90 95 100 86 86 93 97 93 83 86
59 70 79 74 71 78 83 73 68 58 37 18 12 12 14 17 21 25 27 27 26 26 25 24 24 27 33 46 97 93 89 93 94 97 100 89 85 91 98 97 92 90 85
70 76 74 73 79 83 76 69 60 43 20 12 13 16 18 22 27 29 29 28 28 27 25 24 30 38 57 86 96 93 89 94 96 95 92 88 87 97 94 86 86 93 92
74 76 78 81 84 80 71 60 42 23 14 14 17 19 22 27 31 31 30 29 28 28 28 30 40 58 84 96 96 93 92 93 96 96 84 92 97 90 87 85 93 93 94
84 84 84 85 86 74 55 41 23 15 15 17 20 22 26 33 34 31 30 29 29 33 36 54 82 91 85 93 96 98 100 97 92 88 100 98 79 77 89 91 93 98 99
88 88 87 88 74 60 44 20 17 17 18 20 22 28 36 36 32 30 30 31 33 40 66 92 98 94 85 88 85 98 95 94 95 97 91 78 79 93 98 89 95 100 100
89 89 90 76 58 38 20 18 18 20 22 23 32 38 37 33 31 31 33 35 42 73 97 96 97 95 94 90 95 94 94 95 97 84 84 78 98 97 90 94 100 100 100
86 82 74 65 37 20 19 20 22 22 27 37 40 37 34 32 32 31 28 38 52 86 91 99 96 94 94 95 93 91 94 98 88 90 92 93 99 98 100 100 100 100 100

GFSMW_850_rhum_018.txt.gz
RH
42 38 36 36 34 30 28 30 32 36 43 57 67 66 72 75 76 76 74 70 65 57 52 47 45 44 45 44 43 52 52 58 64 60 60 65 69 74 63 77 88 72 75
46 42 37 33 29 25 24 24 25 28 35 46 58 65 68 68 64 55 48 46 46 44 39 35 32 31 33 34 35 37 39 56 60 61 64 52 52 47 62 52 51 58 54
43 47 40 32 30 28 28 27 26 27 32 39 46 49 47 46 46 47 44 38 33 33 34 37 38 38 37 35 33 37 46 63 56 59 62 58 58 65 56 52 52 51 60
45 49 51 38 35 34 33 31 32 33 35 37 38 39 41 38 37 34 35 36 38 40 41 41 38 34 28 22 17 15 15 48 54 53 52 63 65 64 63 50 58 56 64
48 54 58 42 39 38 36 35 34 34 34 33 31 30 30 32 34 35 38 41 44 45 42 36 30 23 15 8 4 4 6 41 49 52 58 65 65 63 66 72 49 48 47
51 58 47 44 41 41 39 39 38 37 35 35 33 32 32 34 38 41 46 48 44 38 35 30 22 11 6 4 5 5 6 8 8 27 58 69 68 62 58 49 48 50 45
56 61 58 49 45 45 44 43 41 41 42 40 37 36 37 40 45 48 44 42 40 38 34 25 12 6 5 6 6 7 8 9 9 14 62 63 48 48 46 48 58 60 60
54 58 62 51 48 48 48 47 46 46 44 42 41 40 42 49 49 46 47 43 38 32 22 10 6 6 6 7 8 9 10 26 38 37 52 57 48 53 60 70 75 84 85
56 59 65 59 53 53 52 51 50 49 46 43 43 44 50 52 52 50 44 39 34 19 8 6 6 7 8 8 10 13 21 24 36 38 46 48 52 60 62 68 70 78 72
57 62 66 67 61 56 55 55 53 51 47 45 48 54 57 57 52 46 40 32 18 10 7 6 7 8 10 12 15 21 22 32 37 43 49 53 56 64 58 56 52 58 59
58 62 67 69 61 59 58 58 55 52 48 51 58 62 58 53 48 42 33 19 11 7 7 8 9 12 15 17 20 24 30 40 44 48 52 56 64 59 54 54 55 57 60
58 64 72 65 63 62 62 61 57 52 53 62 65 60 56 52 46 33 25 12 7 8 9 11 14 18 19 18 19 28 37 46 50 52 55 57 56 60 59 58 61 67 68
63 68 77 71 68 66 66 63 58 55 64 67 63 57 54 51 42 22 8 8 8 10 13 17 20 20 20 20 24 38 47 52 54 57 60 63 65 64 64 68 71 71 77
64 69 78 76 73 70 68 64 59 64 68 66 59 53 48 42 26 10 8 10 12 14 20 22 22 22 22 22 34 33 54 58 61 65 69 69 69 70 74 76 73 86 88
64 72 77 78 74 72 71 64 64 71 70 63 53 46 42 37 18 9 10 12 16 22 24 25 24 24 24 31 20 28 64 70 70 71 69 70 76 85 85 88 92 96 83
60 70 80 80 76 74 72 64 71 74 70 60 52 48 37 24 10 11 13 17 24 26 27 27 27 27 29 22 20 30 82 79 74 70 70 69 72 73 84 88 84 85 96
59 69 80 82 78 77 71 69 75 74 66 61 54 39 26 11 12 14 18 25 28 29 30 33 31 28 29 26 26 84 90 82 73 71 69 69 68 82 91 79 80 88 91
55 66 76 79 82 77 69 74 76 72 66 58 44 28 12 12 14 19 25 29 31 33 37 41 34 36 44 48 81 94 88 77 73 72 72 71 80 91 86 80 91 98 89
56 62 71 81 82 73 73 76 76 66 59 54 30 13 12 15 18 23 28 32 32 34 39 41 50 50 52 69 86 94 84 77 74 73 75 88 88 80 81 94 96 95 87
56 63 75 82 76 72 76 80 69 57 57 34 15 13 15 19 22 28 33 33 34 40 42 47 51 57 60 76 93 93 86 80 80 80 90 85 84 82 97 97 83 96 82
62 72 79 76 73 77 80 72 61 58 42 19 13 16 19 22 29 35 34 36 39 40 47 50 53 65 73 81 89 94 89 87 91 92 93 82 86 94 85 80 85 92 88
71 76 75 74 78 81 76 63 53 43 23 14 16 19 22 31 37 35 33 37 45 47 48 52 64 71 75 81 87 92 90 94 97 92 91 90 97 82 80 82 88 85 88
73 76 78 80 82 83 64 51 47 26 15 16 19 23 34 38 36 37 37 45 49 52 58 65 72 72 79 80 86 88 93 93 93 91 94 97 81 82 83 89 87 90 90
79 82 84 84 86 73 52 49 36 16 17 20 24 37 39 35 36 36 42 44 53 62 70 77 77 83 84 84 85 89 90 90 86 96 97 82 80 82 88 86 86 90 97
82 86 87 88 74 55 48 32 17 19 21 27 38 39 38 38 38 38 45 51 56 68 92 91 92 94 91 87 92 95 94 94 97 97 83 81 82 88 90 91 91 92 98
88 88 88 71 63 47 24 18 20 22 28 38 40 38 36 40 35 43 53 67 82 94 95 94 99 95 95 93 92 92 95 98 94 89 85 88 95 96 95 95 92 92 98

GFSMW_850_rhum_021.txt.gz
RH
41 45 48 50 50 56 67 72 74 78 79 82 85 82 80 75 73 71 66 53 45 42 36 31 33 34 38 49 42 44 44 44 54 57 56 51 46 49 45 58 71 71 58
39 44 45 44 46 50 49 56 71 82 86 78 77 74 72 67 52 45 45 39 31 31 35 38 39 39 38 38 36 38 41 45 46 52 51 48 46 46 42 32 36 41 46
37 42 46 51 52 43 33 32 35 37 41 46 48 48 48 58 54 43 33 33 35 38 41 40 35 32 30 30 25 25 23 38 32 46 50 48 46 56 48 45 44 48 43
36 40 48 55 54 40 36 33 33 35 45 54 54 59 50 36 32 33 36 40 43 43 36 35 34 30 26 18 10 14 12 36 46 36 40 40 52 60 58 43 42 41 36
37 44 52 59 56 43 39 36 35 36 37 35 32 31 31 32 35 41 45 44 40 39 39 36 32 26 17 9 7 8 9 16 41 30 38 47 54 56 50 47 40 41 36
41 50 60 63 51 44 41 38 35 34 34 34 34 34 35 39 43 45 43 43 43 42 39 35 26 16 10 7 7 8 8 9 16 23 27 47 61 59 48 47 48 50 53
45 55 60 64 66 62 47 44 40 39 39 38 38 38 40 43 46 46 49 48 43 41 39 33 20 10 7 7 8 9 10 13 23 22 42 36 45 53 47 50 56 59 64
47 54 57 63 70 67 59 49 45 43 42 41 41 42 46 48 50 52 50 47 43 39 34 25 14 8 7 9 11 12 20 31 32 38 40 42 47 45 49 54 60 65 64
47 50 58 64 70 69 65 52 48 46 44 44 44 48 51 54 55 52 49 45 40 33 24 14 8 8 10 14 18 21 27 31 32 35 38 42 45 50 51 61 61 59 58
46 50 59 64 67 68 62 55 52 49 47 46 50 55 58 56 54 50 45 40 32 22 11 8 8 10 13 19 21 23 26 32 34 38 42 46 48 50 54 59 57 56 57
47 52 58 65 68 67 58 57 54 52 49 52 58 59 58 55 52 47 41 31 15 9 8 9 10 15 19 22 25 28 32 34 39 43 47 49 51 54 54 58 60 60 62
47 53 59 68 69 67 62 60 58 54 52 59 61 60 57 54 48 41 30 14 9 8 9 12 17 22 24 27 31 34 36 38 44 48 51 53 56 59 63 63 64 66 69
49 53 62 67 66 65 61 60 58 55 58 64 62 58 54 49 45 40 21 10 9 10 13 20 25 27 29 33 37 38 39 47 53 55 57 61 64 66 65 67 73 73 78
51 55 63 65 63 63 60 57 58 58 64 64 61 56 52 48 42 29 14 10 11 14 22 27 30 33 37 39 39 38 44 56 63 66 66 67 66 65 69 72 80 91 95
52 56 63 63 64 62 59 55 58 63 67 66 62 58 52 44 29 13 10 11 16 23 29 34 39 40 39 37 41 48 64 70 76 74 70 65 64 67 72 74 85 94 94
51 55 63 64 65 63 59 56 60 68 69 68 64 57 46 32 14 11 12 16 23 30 37 41 42 41 40 44 56 69 79 85 83 78 70 67 65 64 68 79 80 91 95
49 57 65 69 68 64 61 59 63 71 70 66 59 49 36 19 11 12 16 24 32 38 41 42 42 42 42 50 60 75 89 91 81 74 69 68 68 71 76 79 87 87 84
50 60 68 74 71 66 63 57 69 73 67 59 50 39 26 12 12 16 24 31 38 42 42 41 42 46 46 52 64 83 91 85 80 75 73 73 77 75 88 92 96 87 91
62 71 76 76 71 70 66 70 74 71 60 54 42 29 14 13 16 21 28 36 40 39 39 41 44 46 46 54 70 86 88 86 83 81 80 84 94 86 89 95 96 93 85
67 72 76 74 74 67 70 73 75 64 55 48 40 18 13 17 21 28 36 38 38 39 42 46 45 44 50 61 76 83 88 89 89 90 90 85 83 88 96 95 92 95 84
59 67 75 74 67 70 73 76 69 57 48 47 29 14 17 21 31 37 38 35 39 45 46 44 44 51 58 66 74 82 87 92 95 94 94 92 83 95 94 78 90 86 95
67 75 72 69 70 74 78 71 56 49 53 38 15 17 20 32 37 37 38 42 47 46 43 46 52 61 64 70 77 82 85 86 97 96 96 89 98 90 77 81 81 87 88
69 72 70 70 75 80 79 57 55 58 39 16 18 20 30 36 38 39 46 48 46 46 48 56 66 73 80 82 82 85 86 90 92 94 91 97 87 78 81 83 86 88 90
71 73 70 76 81 83 74 58 60 42 16 18 20 29 36 39 41 49 48 47 46 54 64 72 85 91 91 91 88 91 96 96 89 96 97 82 80 81 84 87 89 92 96
75 79 76 80 78 82 65 64 35 17 18 20 27 37 41 45 51 49 47 49 56 69 83 90 94 96 94 90 89 92 94 94 97 95 92 86 86 90 91 93 94 96 98
77 83 82 80 79 69 57 28 18 18 19 25 37 43 45 50 49 47 49 52 64 71 76 84 89 89 90 90 90 91 93 97 91 94 91 90 96 96 97 98 98 98 99

GFSMW_850_rhum_024.txt.gz
RH
36 42 49 53 64 71 72 60 57 66 74 84 91 93 92 83 74 70 61 47 40 30 31 36 38 38 36 33 32 30 28 26 21 20 24 19 34 29 32 49 29 22 18
40 46 48 51 61 74 79 78 80 82 86 88 84 75 69 67 54 46 38 30 31 35 38 39 35 33 32 31 29 22 19 14 14 38 27 34 33 41 16 20 15 36 43
41 44 46 49 54 63 64 74 76 74 76 71 65 61 50 49 40 32 32 35 39 40 38 38 38 37 34 30 20 15 11 11 10 14 32 48 47 39 35 29 33 43 19
40 44 51 54 54 53 49 48 50 53 54 52 51 49 44 36 36 36 40 41 40 41 41 40 38 35 31 24 16 11 9 9 10 10 10 14 29 56 57 47 30 29 23
39 46 55 59 56 53 49 49 48 50 55 56 48 35 32 34 38 42 43 43 45 45 44 42 38 34 29 19 12 10 9 9 11 14 17 15 18 20 51 61 48 48 42
40 49 59 64 59 53 48 43 39 37 35 34 35 35 37 40 44 44 47 47 46 47 44 42 37 30 21 14 10 9 8 9 11 15 19 27 47 38 45 58 53 51 50
44 55 62 66 59 53 48 42 37 36 36 36 37 39 42 45 47 49 50 50 49 48 45 40 33 23 14 9 9 8 10 13 16 21 23 31 36 34 50 50 54 57 56
49 58 65 66 62 54 52 45 42 40 40 40 41 44 46 48 51 52 53 52 49 45 41 33 21 11 8 8 9 12 15 19 22 24 26 31 34 41 46 50 57 58 68
52 58 64 68 65 60 56 49 46 44 43 43 44 47 50 53 54 54 52 48 43 36 28 16 11 9 9 12 16 20 22 23 22 26 31 32 39 44 50 52 54 61 67
52 56 63 69 68 64 60 54 50 46 45 46 48 51 54 56 55 54 50 45 35 25 15 11 10 10 13 19 22 23 22 22 27 31 28 37 46 51 52 56 58 61 66
51 55 62 67 67 65 62 58 53 50 48 50 52 56 58 57 55 52 50 43 28 15 11 10 10 14 19 23 24 22 23 28 35 28 31 46 50 56 59 61 66 68 69
49 56 62 67 67 64 64 58 54 52 51 53 57 59 59 57 54 53 46 35 20 12 10 11 15 20 24 25 24 27 31 37 33 29 37 49 62 64 66 69 68 70 71
49 56 62 67 67 66 62 60 58 54 54 58 60 60 59 57 55 49 38 22 13 10 11 16 20 25 26 26 29 33 38 37 36 37 47 58 65 72 70 67 68 71 79
50 55 64 68 66 66 61 60 58 56 57 61 62 62 61 59 52 41 23 12 10 13 16 21 26 28 29 34 34 40 44 54 59 53 54 70 77 73 70 70 72 82 95
51 54 64 66 65 64 60 57 57 58 61 64 65 64 62 54 45 27 13 11 14 17 23 28 30 32 36 39 46 54 61 66 70 61 72 83 78 75 73 73 81 88 86
52 56 63 64 63 62 59 56 56 59 64 67 67 64 57 49 33 15 12 14 17 24 29 31 33 36 37 38 55 62 66 73 74 77 86 83 78 75 78 80 80 85 97
53 56 62 63 64 62 59 56 57 63 68 68 65 59 53 40 18 12 15 18 26 30 30 30 31 34 32 39 57 62 70 80 80 90 85 84 82 80 80 84 93 96 96
51 56 63 65 65 64 61 59 59 66 69 66 59 55 46 23 13 14 18 27 32 31 30 28 29 31 34 48 55 66 75 80 85 85 88 90 89 88 90 96 96 91 82
53 60 67 70 68 65 63 61 61 70 68 60 56 45 27 14 14 18 28 32 32 30 27 28 28 35 41 44 61 71 76 80 86 92 96 95 92 92 91 96 95 95 95
63 68 73 73 70 66 66 66 71 71 62 55 50 34 15 15 18 29 33 34 34 29 28 29 34 38 44 49 67 74 80 86 92 96 96 98 93 85 94 96 97 98 82
70 71 72 70 70 69 67 70 72 65 54 53 40 16 15 18 29 35 37 36 31 30 31 32 35 41 52 66 76 85 86 94 96 96 91 93 88 96 94 86 92 85 95
68 70 68 68 68 68 70 74 67 56 57 46 17 15 18 28 37 39 37 30 32 34 36 40 40 52 66 84 92 89 88 92 96 96 92 84 98 88 88 86 85 89 89
67 68 67 68 69 72 76 74 60 58 50 17 15 18 27 38 40 38 34 35 36 42 44 51 64 73 85 83 90 95 92 93 93 91 96 100 91 87 86 90 91 93 84
66 67 67 69 75 80 80 64 58 52 18 15 18 26 38 41 39 35 34 37 42 49 57 72 78 82 85 87 86 97 93 98 94 93 98 96 88 87 92 90 85 88 98
69 69 70 75 81 80 72 61 54 20 15 18 24 36 41 42 39 34 36 42 46 58 72 75 78 83 87 85 83 88 89 94 97 95 94 78 91 97 99 97 92 99 97
72 75 74 75 75 74 64 57 21 16 18 23 31 40 44 42 37 36 36 38 43 56 74 78 80 81 82 83 86 86 90 93 92 93 86 98 100 100 100 99 96 96 98

GFSMW_850_rhum_027.txt.gz
RH
35 37 39 44 57 60 54 54 57 58 64 75 80 82 86 91 91 94 82 55 38 31 36 37 36 35 35 34 33 30 28 25 20 19 19 18 18 21 29 25 20 15 15
40 39 43 55 72 76 73 72 73 79 78 80 84 85 87 88 76 54 37 32 35 38 38 38 38 36 36 34 30 25 20 17 12 17 18 24 21 32 14 21 14 16 26
39 45 49 58 79 81 84 84 84 84 81 79 82 78 70 56 40 32 34 38 40 40 41 42 42 40 38 33 26 19 14 12 12 10 23 34 41 22 25 15 27 39 22
43 48 47 52 71 83 86 86 85 87 85 75 62 49 40 36 34 36 40 41 43 44 45 45 45 43 36 28 20 15 12 10 10 10 13 22 28 46 53 38 17 25 25
42 46 46 48 61 63 74 78 72 68 59 48 42 40 34 34 38 42 42 44 46 48 48 48 44 37 31 23 16 12 10 10 11 14 15 16 19 23 52 51 42 39 34
47 50 51 50 56 60 57 55 51 54 55 55 49 34 34 38 42 43 47 48 50 50 48 44 37 32 22 14 11 10 11 12 14 17 21 26 28 36 35 40 48 57 51
52 56 57 56 58 59 56 54 52 53 52 40 36 37 40 43 45 49 51 51 51 49 43 33 29 20 13 11 11 11 12 16 19 20 20 22 26 30 32 45 52 53 60
56 56 57 57 58 54 48 44 41 38 39 38 39 41 44 47 50 52 53 51 49 45 35 27 20 14 12 11 12 15 19 21 20 19 20 27 26 22 32 47 53 61 58
57 58 60 57 57 53 46 41 40 40 40 41 43 45 48 51 53 54 53 52 48 39 29 22 16 12 10 14 18 22 23 21 19 20 23 24 20 20 32 49 52 62 74
60 60 61 60 60 54 51 47 44 42 42 44 47 49 52 54 55 55 55 53 45 34 25 17 11 11 15 20 24 24 21 19 18 20 26 28 24 23 32 61 65 64 71
58 61 65 67 64 59 55 51 48 46 45 47 50 53 55 57 57 57 57 50 38 25 16 11 11 15 20 24 24 22 21 22 24 29 35 35 30 36 51 59 72 73 74
57 61 66 70 67 64 60 54 52 49 48 51 54 56 58 59 60 60 53 39 26 14 10 12 15 22 24 23 22 22 22 28 38 42 45 45 38 53 68 76 75 75 73
57 62 68 70 68 66 63 59 55 51 51 53 57 59 60 62 62 54 42 28 14 11 12 17 24 26 23 21 19 23 39 46 52 60 60 56 59 70 81 82 82 80 86
56 63 68 68 67 66 63 61 57 54 53 56 59 61 64 64 57 48 32 16 11 13 19 26 26 23 20 20 23 39 48 58 61 61 64 63 67 88 89 83 84 95 91
61 63 66 67 68 66 63 61 59 56 55 59 62 65 66 60 53 40 19 12 14 20 27 28 24 20 19 22 38 53 63 63 64 67 72 71 84 88 84 84 86 88 93
63 65 65 66 67 66 63 60 58 56 58 62 66 66 60 57 46 22 12 14 21 28 28 25 21 21 23 25 41 64 64 65 71 75 78 79 87 88 85 86 87 90 97
56 58 63 64 66 65 62 59 57 56 60 66 68 61 58 49 25 13 14 23 30 30 26 22 23 25 22 21 52 63 68 72 74 78 81 87 89 92 93 87 92 91 97
53 56 61 65 65 64 61 58 56 57 65 68 62 58 53 34 14 14 24 32 32 29 24 24 26 24 23 32 58 68 74 76 79 82 90 95 95 93 94 96 98 96 92
52 56 61 64 64 63 60 58 58 63 67 64 58 55 41 15 15 25 33 34 32 25 25 26 24 28 33 43 69 81 84 78 85 80 89 100 94 91 89 94 97 95 89
55 60 65 65 65 63 62 61 60 68 66 58 55 44 16 15 26 35 36 34 30 27 27 26 29 35 44 51 87 92 88 90 80 85 83 94 89 85 97 97 97 96 76
62 67 68 68 67 66 63 63 69 69 59 56 47 17 16 26 36 38 37 32 28 28 29 30 30 42 54 60 90 93 91 93 96 89 92 84 92 98 88 89 89 90 96
73 73 73 71 68 67 67 69 71 61 57 52 20 16 25 36 40 40 36 29 31 32 29 31 42 59 70 73 75 92 90 96 96 97 86 90 98 89 89 91 94 93 96
66 67 65 68 66 66 68 74 66 58 55 23 15 23 33 40 42 40 34 31 32 31 31 50 67 74 76 77 74 88 93 90 90 91 100 100 93 92 89 97 100 99 90
63 64 65 66 67 71 75 68 61 56 26 16 22 28 36 40 44 40 33 33 31 30 55 73 77 80 81 83 82 91 89 92 95 94 95 85 88 94 92 85 88 95 97
64 64 66 70 76 79 75 64 59 26 16 20 24 30 37 45 45 36 34 34 29 47 70 78 83 84 84 83 86 88 91 95 95 94 87 80 96 91 88 91 94 97 99
65 67 70 77 80 78 66 58 27 17 19 22 25 31 42 48 41 36 31 21 28 40 58 78 86 86 87 89 89 89 94 95 95 96 95 100 99 100 100 100 97 93 96

GFSMW_850_rhum_030.txt.gz
RH
31 34 34 30 30 37 40 42 41 40 45 62 72 82 77 79 82 86 92 91 72 39 36 37 37 36 36 36 35 32 28 24 22 21 21 18 18 18 28 22 17 11 9
36 38 36 34 38 44 48 49 47 42 58 66 81 81 81 87 86 92 74 37 35 38 39 39 40 42 43 40 34 29 24 19 14 13 19 19 19 29 20 20 13 13 12
34 39 39 41 51 55 58 68 70 80 82 80 83 85 88 91 83 52 33 37 39 41 42 44 46 46 42 34 29 23 18 14 12 13 24 24 34 23 22 14 18 13 9
36 41 47 58 64 64 70 75 81 86 86 85 84 82 80 70 41 33 37 40 43 44 47 48 47 40 33 29 22 15 13 12 13 14 19 24 30 32 36 25 12 16 12
36 43 47 61 77 73 77 83 84 85 85 78 66 65 52 36 33 38 41 44 46 48 50 48 39 30 27 20 15 13 13 14 15 18 20 20 20 22 46 50 33 13 11
46 51 59 72 84 87 85 86 89 88 82 62 47 39 32 33 38 41 44 47 50 50 49 41 30 26 20 16 14 14 14 16 20 20 20 20 23 32 36 34 38 51 38
50 55 62 69 74 82 86 84 81 70 53 48 42 35 36 40 42 45 49 51 51 50 44 34 26 22 16 14 13 14 17 19 20 19 18 19 25 30 27 22 28 48 52
54 55 57 62 64 65 64 59 54 52 56 51 37 38 42 44 46 50 52 52 52 48 39 29 23 18 13 12 15 17 20 21 19 17 17 20 22 24 26 25 41 61 61
63 58 59 59 62 62 60 57 56 56 53 41 40 42 45 48 51 53 54 54 53 46 36 27 20 12 12 15 18 22 21 18 16 16 19 24 26 28 25 22 37 75 85
76 64 62 61 62 60 58 54 49 43 44 42 42 45 48 52 54 55 56 56 50 39 28 19 12 12 15 21 23 20 18 17 18 23 29 31 34 35 28 36 54 71 80
70 65 65 62 58 54 48 45 43 42 43 44 46 49 52 55 57 58 59 54 41 29 18 12 12 15 22 23 20 19 19 22 28 32 37 47 51 45 42 48 63 76 82
72 66 65 62 59 54 50 47 46 44 44 46 50 53 56 58 60 62 56 44 30 17 12 13 17 24 22 19 18 20 22 28 33 42 54 58 58 57 52 59 76 81 81
72 68 68 65 60 57 55 52 49 47 47 49 53 56 58 61 63 58 49 35 18 12 13 20 25 23 20 18 18 20 25 29 47 57 62 64 68 65 63 84 86 86 95
67 70 72 68 63 61 60 57 53 50 50 52 56 58 62 65 60 54 39 19 13 14 22 26 25 22 20 19 18 20 30 45 56 62 65 70 75 72 89 91 92 98 96
76 71 71 71 68 66 65 61 56 52 51 54 57 61 66 62 57 43 22 14 14 24 28 27 23 20 20 18 18 41 60 59 58 66 72 78 76 90 88 91 95 95 96
74 72 69 69 69 68 66 62 57 54 54 55 60 65 63 58 47 26 14 14 25 29 28 24 22 21 20 19 30 64 66 62 72 75 78 73 79 91 92 92 91 92 96
67 66 65 66 68 68 66 62 59 56 55 59 64 65 58 52 33 16 15 27 31 30 26 23 24 22 20 21 32 56 63 72 76 78 75 76 91 87 84 89 90 86 96
65 66 65 67 68 68 65 62 58 56 56 62 66 58 54 43 18 15 28 34 32 29 25 25 25 23 22 25 26 35 63 71 71 74 77 96 87 88 89 95 94 96 76
59 61 62 64 68 67 64 60 57 56 60 65 61 57 50 21 15 28 36 36 32 27 26 27 25 24 23 28 33 87 82 80 78 74 96 96 94 90 94 97 94 96 85
56 58 62 66 67 65 62 58 57 58 65 65 58 53 26 15 28 37 39 38 31 28 29 24 21 24 28 34 50 92 89 90 79 94 89 96 93 92 99 94 98 94 73
58 62 65 66 65 62 59 58 59 64 66 58 56 31 15 26 37 40 41 37 31 29 25 19 19 22 34 48 74 92 91 91 98 90 96 85 95 98 88 90 93 93 96
64 65 66 65 62 60 61 61 67 68 59 57 36 16 24 36 40 42 42 35 31 27 20 20 21 29 39 59 68 92 89 95 91 97 84 92 98 93 95 96 100 100 99
68 67 67 65 63 63 65 70 70 62 59 43 16 22 31 38 43 45 40 32 29 20 20 28 40 49 58 68 77 96 91 89 93 88 97 100 98 88 70 87 100 100 91
73 72 69 67 66 65 70 72 66 60 49 17 20 26 33 40 46 46 36 32 23 21 29 41 57 66 72 80 92 97 83 97 95 98 95 82 74 66 81 78 82 88 100
64 64 64 65 67 70 73 66 62 49 17 18 24 28 35 44 48 42 35 28 22 28 49 59 76 83 87 92 92 89 92 94 96 94 87 70 74 73 81 83 89 93 98
62 64 66 70 74 76 71 62 49 19 18 22 26 30 39 49 47 37 30 21 24 25 28 33 63 76 92 94 94 92 95 95 100 98 81 84 89 93 96 99 99 94 94

GFSMW_850_rhum_033.txt.gz
RH
33 32 32 32 34 33 34 43 56 62 65 66 77 86 84 89 90 92 87 85 88 85 39 37 38 37 38 40 40 32 29 27 24 22 21 18 18 17 18 26 20 16 8
37 33 32 34 34 34 37 41 43 51 58 64 71 81 75 79 79 78 81 91 59 35 38 40 40 44 43 37 29 29 26 21 17 17 20 17 16 20 25 13 12 10 11
37 35 32 35 35 36 38 43 47 47 49 63 73 86 81 77 80 80 87 52 35 39 42 44 47 45 34 27 27 25 20 17 15 15 24 20 26 19 16 14 13 15 10
38 37 33 39 36 45 47 56 55 53 66 77 79 82 81 78 87 82 49 34 40 43 46 48 47 36 28 26 23 20 17 15 14 15 19 22 25 26 28 21 13 13 10
39 36 35 38 44 53 55 73 78 84 86 86 85 85 86 88 79 44 34 40 43 47 49 49 41 31 26 24 20 17 15 14 17 20 22 21 20 24 43 43 26 12 10
40 38 38 50 59 66 69 85 90 92 92 91 91 88 83 70 42 34 40 44 48 50 51 46 38 29 24 20 17 14 14 17 20 22 21 21 26 32 37 41 37 39 23
44 43 47 68 69 73 82 89 91 91 90 81 73 68 52 35 35 40 44 48 50 52 50 43 34 25 21 17 13 14 18 21 21 20 18 18 22 29 31 34 30 40 28
49 45 53 65 71 76 85 90 94 91 85 67 51 41 35 38 42 45 49 51 53 53 49 39 28 21 15 13 14 17 21 20 18 17 17 21 27 31 35 42 42 51 59
59 55 63 68 77 81 85 87 89 85 62 51 44 39 41 44 46 50 52 54 56 53 42 29 21 14 13 14 18 21 19 16 15 16 21 26 31 38 39 40 43 62 88
74 76 72 72 78 83 85 82 77 62 58 54 42 42 45 48 51 53 55 58 56 46 32 22 14 13 15 20 22 18 16 16 15 18 24 30 41 45 45 50 49 55 74
82 79 74 70 69 71 70 66 64 62 60 47 45 45 48 52 54 57 60 58 49 36 24 15 13 14 20 22 18 16 15 15 16 18 33 41 51 54 62 63 59 72 81
86 76 68 66 66 65 65 64 61 56 50 46 46 49 52 55 57 61 60 52 41 26 16 14 15 22 22 18 17 16 15 15 20 30 44 51 59 68 72 71 78 81 81
81 71 65 66 65 64 61 58 52 48 46 46 49 52 55 58 62 61 56 46 28 16 14 17 24 23 20 17 17 16 16 21 32 45 52 63 72 75 76 83 84 92 99
79 70 68 66 63 58 53 50 48 46 46 48 51 55 58 62 63 59 50 32 18 14 19 26 25 22 18 18 17 17 24 33 44 50 62 69 74 73 89 90 94 98 96
82 72 68 64 61 57 54 51 48 46 47 50 54 58 61 64 60 53 37 20 15 20 28 27 23 20 19 18 18 22 35 49 52 64 61 60 64 83 90 91 88 92 95
82 75 70 66 62 59 57 54 51 49 50 52 56 60 64 61 55 42 27 15 22 30 29 26 22 20 19 17 16 23 47 50 51 50 52 60 67 79 91 93 93 93 93
75 73 68 66 63 62 61 58 55 52 51 53 57 63 62 58 49 32 17 23 32 32 29 25 23 21 19 17 20 33 67 47 52 59 65 70 84 82 84 88 94 97 96
74 73 71 71 68 66 65 62 57 54 54 55 60 64 59 54 40 18 23 34 35 34 29 25 24 21 17 20 25 46 42 54 64 69 76 93 85 89 94 95 98 81 79
62 62 64 68 70 70 67 62 58 56 55 58 63 61 56 48 21 22 34 37 38 35 30 27 24 18 18 26 26 29 62 77 79 81 97 97 95 94 96 96 96 95 78
60 59 65 69 71 70 66 62 58 56 55 62 63 58 52 25 19 33 38 40 40 36 30 26 19 20 23 24 26 80 86 87 83 99 93 96 95 93 99 96 97 96 77
60 64 67 68 70 69 64 60 57 55 60 64 58 54 32 18 31 37 40 43 40 34 29 19 17 18 20 24 34 89 91 86 99 84 88 81 94 97 92 93 95 93 96
68 68 68 71 70 66 61 58 57 59 64 60 56 36 18 28 35 38 44 44 38 31 21 17 15 15 21 32 44 94 93 91 86 96 87 91 98 95 96 91 100 100 100
69 70 68 69 64 60 58 60 61 66 62 57 39 18 24 32 36 42 46 43 34 24 19 20 22 26 30 42 61 92 96 90 93 95 96 98 97 79 58 72 100 100 89
69 68 66 63 59 59 61 66 70 62 57 46 18 22 29 33 39 46 46 38 29 21 20 24 33 35 43 58 88 97 87 97 98 97 94 82 69 61 70 76 78 86 99
66 65 66 65 64 64 66 67 64 60 48 18 21 26 28 34 44 48 42 34 24 24 30 37 45 59 71 87 96 94 95 95 95 98 87 69 67 66 80 82 86 90 94
70 68 66 66 66 68 70 66 60 43 18 20 24 26 31 42 49 45 37 26 23 22 24 28 38 54 67 95 97 95 96 98 100 95 77 75 75 86 92 94 94 91 93

GFSMW_850_rhum_036.txt.gz
RH
44 40 37 35 32 32 31 29 31 39 52 69 75 84 88 94 91 94 99 97 89 84 88 40 37 38 40 41 31 23 23 24 23 21 19 16 17 14 17 19 23 22 11
40 42 41 35 32 34 32 31 32 49 61 73 76 81 93 94 94 97 96 85 88 86 37 38 40 44 44 33 25 23 24 23 21 18 15 13 12 20 24 11 10 12 13
42 38 38 38 34 35 32 32 34 49 64 73 76 86 96 95 96 94 82 78 69 38 38 41 45 47 39 30 24 24 23 21 17 13 15 16 18 18 16 12 12 11 9
44 40 38 36 35 36 37 38 41 48 54 69 78 77 83 81 79 81 78 76 43 38 42 46 48 45 38 28 24 23 20 16 13 14 17 20 22 22 23 17 12 12 11
34 37 39 35 36 39 40 45 48 57 58 70 81 85 88 79 68 70 71 49 38 43 47 49 48 43 36 27 24 21 16 13 15 18 19 17 16 18 37 35 17 11 11
43 37 37 38 38 45 51 55 56 59 61 75 88 80 86 79 76 72 49 38 43 47 50 50 48 42 32 25 21 16 13 14 17 19 18 17 20 22 31 38 34 37 26
39 43 41 40 43 50 59 66 71 75 84 85 83 84 85 86 82 57 38 42 47 50 52 51 46 37 28 21 15 13 14 17 18 16 14 16 20 26 30 38 36 43 30
47 46 43 42 44 50 62 73 85 91 90 88 90 91 87 72 43 39 43 48 50 53 54 50 42 32 22 15 14 15 18 18 15 14 16 17 23 30 38 46 52 53 53
38 46 49 46 51 57 68 80 92 96 95 94 86 72 52 39 40 43 49 52 54 56 53 44 34 23 17 14 15 19 18 15 14 15 16 19 26 36 41 48 56 71 78
47 52 57 61 66 71 78 92 95 94 90 75 59 45 41 44 45 50 52 55 58 55 47 37 27 18 15 17 21 19 16 15 14 14 18 22 30 41 47 58 68 75 74
47 58 67 74 75 84 91 95 96 91 77 56 47 43 44 46 51 53 56 59 57 50 42 31 19 15 18 22 20 16 16 14 14 16 22 26 36 43 56 70 78 77 85
74 80 81 87 87 87 92 93 88 80 61 54 46 45 46 51 54 57 60 59 54 48 35 20 16 20 23 20 18 16 15 14 16 21 27 32 43 56 66 72 74 85 84
91 86 84 90 87 86 86 82 75 66 60 50 46 48 51 54 58 61 61 58 51 37 22 17 21 24 22 19 17 17 16 17 21 29 35 42 53 57 58 81 88 92 98
90 85 85 84 82 80 77 72 67 62 53 48 47 50 54 57 61 62 60 53 41 25 17 22 26 25 22 19 18 17 16 17 22 27 35 42 51 58 86 96 96 98 87
88 82 77 73 71 70 67 63 59 53 48 48 50 54 57 61 62 61 55 42 28 19 24 29 28 25 22 21 18 16 19 25 28 35 44 58 63 72 96 96 94 94 93
88 80 72 68 67 65 61 56 51 47 47 49 53 56 60 63 62 57 45 29 20 25 31 32 30 26 24 20 16 17 26 28 44 52 61 64 71 76 92 94 97 95 97
85 76 69 67 65 60 54 50 47 46 48 51 55 58 62 62 58 48 32 21 26 32 34 34 31 28 23 17 14 14 22 47 58 64 68 74 82 76 81 84 100 98 96
84 75 69 66 61 56 53 50 49 48 50 52 55 60 62 59 52 38 24 25 33 36 38 36 31 26 18 15 14 18 31 60 65 68 77 89 82 87 95 96 98 86 78
73 68 68 65 62 59 57 55 52 51 51 53 57 61 60 54 42 25 24 33 37 40 40 35 30 20 15 15 16 21 62 67 75 78 94 94 94 94 98 97 97 93 77
70 68 70 67 64 62 62 59 55 52 52 55 60 60 53 43 29 23 32 37 40 42 39 34 22 16 16 18 21 55 82 90 84 95 88 88 99 96 100 95 97 94 75
66 70 71 69 69 67 65 60 57 54 55 57 59 54 48 34 22 31 36 39 42 42 37 27 17 15 17 20 27 41 94 93 97 90 89 90 97 97 95 96 94 92 96
74 72 70 73 72 70 65 60 57 54 55 58 55 51 38 22 30 34 37 42 44 40 30 19 15 14 17 25 32 57 96 94 92 95 92 93 98 98 98 88 98 100 100
72 73 71 73 71 67 62 59 55 55 58 58 54 40 22 27 31 34 40 44 43 34 21 17 16 19 22 28 36 66 96 93 93 95 99 100 97 69 59 68 98 92 84
74 75 74 72 66 60 58 57 57 60 60 56 43 22 24 28 31 37 43 45 38 23 20 21 26 27 29 34 66 96 90 94 97 98 94 75 67 62 68 75 76 82 89
75 73 70 65 59 55 57 60 64 61 57 44 21 23 26 28 33 42 46 42 26 24 27 30 36 45 44 66 96 95 93 96 93 99 77 67 64 63 79 79 82 87 91
70 66 62 59 58 60 65 65 61 57 38 19 22 25 26 30 38 47 45 28 22 21 22 28 34 37 42 80 98 99 98 100 100 85 72 70 70 80 88 90 89 88 92

GFSMW_850_rhum_039.txt.gz
RH
43 46 45 41 37 36 34 32 31 30 32 34 58 80 84 86 91 89 92 96 97 95 86 89 54 35 37 43 35 27 21 20 19 18 14 12 14 10 15 17 18 11 12
38 40 43 43 41 37 34 34 34 36 33 38 53 77 84 82 90 98 98 100 98 87 87 55 35 38 44 40 34 26 22 21 19 15 12 11 11 22 15 12 11 11 10
35 34 36 40 42 40 34 34 35 36 36 45 63 84 90 98 100 100 100 100 90 79 58 36 39 44 45 41 35 27 22 20 16 12 12 14 19 15 12 11 11 10 9
40 28 32 37 39 39 36 35 37 39 44 59 72 80 81 94 99 100 100 86 68 60 39 41 44 47 46 41 34 27 21 16 13 12 14 16 16 22 29 14 14 12 12
32 31 26 32 38 37 38 36 39 44 47 64 80 88 92 96 96 97 89 72 61 46 41 45 48 49 46 40 32 23 17 14 13 15 16 14 13 14 25 34 20 16 14
36 38 34 31 38 39 40 41 43 50 55 66 81 89 90 96 94 86 75 65 48 42 45 47 50 50 45 38 27 18 15 14 16 16 14 14 16 20 28 47 45 45 31
33 40 48 42 42 42 42 45 48 56 62 72 84 93 96 94 80 75 70 59 43 45 48 51 52 49 42 32 20 16 15 17 16 14 13 14 17 19 21 31 49 56 51
32 47 40 46 44 42 44 48 52 62 67 78 88 96 95 84 79 69 49 43 46 48 51 54 52 45 36 23 17 16 17 17 14 14 14 14 17 21 28 37 54 56 53
35 28 47 49 46 46 47 46 56 68 72 86 91 93 90 87 70 48 44 47 49 52 55 54 49 39 25 18 16 18 18 15 15 14 14 16 20 24 30 39 48 73 71
26 35 30 48 52 57 59 67 71 80 88 82 88 93 86 61 46 43 47 50 53 56 55 50 42 28 19 17 20 19 17 16 15 15 16 19 23 26 30 41 51 61 83
31 33 50 56 58 70 78 85 90 92 90 87 90 78 57 44 44 48 52 54 57 56 53 44 30 20 18 21 21 19 17 16 15 16 18 20 26 29 34 40 46 55 75
55 56 59 65 78 91 98 99 97 90 92 85 70 53 44 44 49 52 56 58 58 56 47 33 22 19 23 23 21 19 18 17 16 16 18 22 28 28 33 38 47 66 89
91 89 90 89 95 100 100 98 95 90 80 61 50 45 45 49 53 56 59 58 56 48 38 24 20 25 26 24 22 20 18 16 16 19 25 30 35 38 43 57 86 93 100
94 95 95 98 100 100 100 93 87 80 65 50 46 46 49 53 57 59 60 56 49 42 27 22 27 29 28 26 24 21 17 15 17 21 31 36 45 54 67 98 100 100 97
94 94 94 97 99 99 95 86 78 66 54 48 47 49 53 57 60 60 57 50 42 31 24 29 31 31 30 28 24 17 15 16 20 27 33 42 54 68 97 97 96 94 96
92 89 92 91 91 90 83 73 64 57 51 48 49 53 56 59 60 58 52 41 31 26 30 33 34 34 32 27 19 14 16 20 31 34 36 53 70 76 99 97 100 97 94
89 85 88 86 84 81 76 67 60 53 48 49 52 56 59 60 59 53 44 34 27 30 34 37 38 35 30 21 15 14 19 24 28 33 56 76 81 80 87 88 100 98 98
87 81 80 77 74 70 65 60 52 48 48 51 55 58 60 60 55 47 37 28 30 34 38 39 38 34 23 16 14 15 17 23 34 54 73 83 83 92 97 95 95 94 81
82 77 72 69 66 62 57 52 47 47 50 53 56 58 58 56 49 39 32 29 34 38 40 39 36 27 17 14 15 16 22 39 62 73 83 89 97 99 92 95 95 98 97
76 72 70 67 62 56 51 47 46 49 52 54 56 58 56 50 43 34 28 34 37 39 40 39 29 18 15 15 16 22 60 93 96 95 98 96 100 96 99 96 96 98 82
75 73 69 64 59 53 50 49 50 50 52 54 57 57 53 47 42 27 32 35 38 41 41 35 20 15 16 16 19 26 93 99 99 95 94 98 98 99 96 96 98 94 97
83 75 69 65 59 55 53 53 51 51 53 56 58 56 54 41 26 30 32 37 41 43 37 22 15 14 14 18 24 38 97 97 95 97 98 94 100 97 98 85 84 100 100
80 77 71 66 61 58 57 56 54 54 55 57 58 54 41 25 28 30 34 40 44 38 23 17 15 15 16 20 29 60 95 96 98 96 97 100 96 64 58 64 82 82 84
82 79 74 68 62 58 56 58 56 54 58 59 55 42 24 26 28 31 38 45 40 24 18 17 19 19 22 30 60 95 90 91 95 94 95 73 63 61 60 74 78 84 90
81 78 74 69 62 56 56 55 56 59 60 55 41 22 24 26 30 38 46 42 25 20 20 22 24 33 41 60 98 98 94 96 95 100 78 63 62 59 76 80 83 86 91
78 74 69 63 56 54 57 59 60 57 56 38 21 23 26 29 37 47 44 25 18 18 20 22 27 32 40 74 99 100 100 100 100 88 67 66 68 74 88 90 89 88 91

GFSMW_850_rhum_042.txt.gz
RH
37 41 43 46 47 36 29 35 33 32 32 36 89 96 98 91 86 89 91 94 95 90 96 91 86 67 36 39 42 38 32 24 19 15 16 12 12 11 17 21 21 18 12
25 30 38 40 45 46 39 36 34 33 32 42 63 94 88 84 80 88 90 100 97 95 92 88 69 37 39 43 42 39 32 24 18 14 20 26 26 32 21 18 13 14 11
24 24 24 33 43 48 46 39 35 33 34 46 79 74 72 88 96 100 100 100 100 97 85 70 40 39 42 45 44 39 30 22 16 13 14 24 24 26 22 18 17 15 14
28 28 25 25 37 46 43 42 36 34 39 40 46 53 66 86 100 100 100 100 100 91 69 45 39 42 45 46 44 38 28 19 14 15 13 14 14 26 24 27 30 30 28
25 27 30 29 32 40 39 41 40 38 40 40 47 75 93 100 100 100 99 100 94 66 51 43 43 46 48 48 43 36 23 16 14 14 15 14 17 28 40 33 28 32 36
26 29 30 36 37 45 36 39 41 40 43 44 59 87 96 93 99 98 99 98 71 58 45 44 46 48 49 47 40 29 18 15 15 15 14 13 24 32 38 37 37 39 37
27 32 37 43 47 51 44 40 43 44 48 52 72 87 94 97 99 98 97 89 70 48 45 46 49 50 49 44 34 21 16 16 16 14 14 14 16 21 34 47 43 42 42
31 28 38 51 55 57 43 44 48 51 55 61 75 90 98 99 99 94 89 67 51 48 46 49 51 51 46 36 24 17 18 18 16 15 15 14 17 23 34 51 54 49 42
34 36 33 50 57 70 48 47 54 58 64 72 82 90 98 99 97 86 68 64 46 46 50 52 51 47 38 26 18 19 19 18 16 16 15 17 20 22 35 50 60 60 56
47 40 34 52 66 75 60 69 68 70 72 77 81 87 93 97 80 74 58 46 48 51 53 52 48 39 27 20 20 20 20 18 17 17 18 18 22 25 45 63 66 66 63
58 46 41 60 78 88 90 83 81 78 77 82 84 93 91 80 82 60 47 48 52 54 53 50 40 29 21 21 22 22 21 20 19 18 18 18 23 36 53 60 63 66 65
74 69 66 80 92 98 94 85 84 82 83 89 93 89 87 83 56 46 49 53 55 54 51 43 31 23 23 25 25 24 23 22 19 18 18 24 38 30 50 63 66 69 76
78 85 88 91 93 93 89 89 89 88 90 86 90 91 69 46 45 50 54 55 55 53 47 36 25 25 27 28 28 27 24 21 18 20 21 22 30 51 64 72 79 82 81
81 86 87 89 90 89 92 94 93 91 86 89 82 60 46 46 50 54 56 56 53 48 40 29 27 29 30 31 31 27 22 20 21 20 20 31 48 71 76 82 81 80 85
87 88 87 88 84 88 96 95 92 88 87 74 53 46 47 51 55 56 56 54 48 41 32 28 30 32 34 33 30 22 26 30 31 29 39 59 62 48 84 95 91 89 89
90 86 84 80 74 92 97 92 87 77 64 50 46 47 51 55 57 56 54 48 41 34 29 31 34 36 35 32 25 18 16 35 37 50 60 70 80 86 95 95 95 97 100
87 83 78 73 86 94 93 85 75 61 49 48 48 52 55 57 56 54 48 42 36 31 31 34 36 36 35 29 20 14 14 31 45 62 71 76 80 91 90 92 94 96 96
82 79 76 82 89 89 86 81 61 51 48 49 52 55 56 57 54 49 42 37 32 31 34 37 37 37 32 21 15 13 17 47 72 77 82 87 88 87 90 91 94 95 92
78 82 90 90 82 82 69 56 49 48 49 52 54 56 57 56 51 45 38 34 31 34 37 38 38 34 22 15 14 14 30 71 78 82 83 88 87 90 93 96 94 88 82
76 79 78 74 70 61 56 53 48 49 51 54 56 56 55 52 46 40 42 31 34 36 38 39 36 23 16 14 14 16 38 78 79 81 82 82 90 93 95 98 92 91 81
78 76 72 69 65 58 53 49 48 50 52 55 56 56 52 48 55 33 30 32 35 37 40 38 25 16 15 15 16 19 60 88 87 83 79 83 91 94 95 96 95 93 99
75 70 66 62 59 57 49 47 48 51 53 55 57 55 50 42 34 29 30 32 36 41 40 26 16 18 19 22 20 25 71 97 92 87 90 92 96 95 97 93 92 100 100
83 85 71 67 51 46 46 49 51 52 54 56 55 50 46 35 27 29 31 36 42 41 24 16 17 24 25 33 39 49 95 92 93 92 95 97 96 78 55 72 87 85 100
76 68 63 54 50 48 50 53 52 54 55 55 51 48 35 26 28 29 33 42 42 24 18 32 44 40 51 63 73 88 91 91 95 96 96 96 81 83 77 84 93 100 100
75 68 61 56 53 50 51 54 54 54 55 54 50 34 25 26 28 32 43 42 24 18 19 23 22 42 66 74 94 97 97 97 97 98 94 87 84 92 95 99 100 100 100
76 68 62 58 53 52 54 53 54 56 58 52 30 24 26 27 31 44 42 22 18 18 19 18 22 26 36 62 99 100 99 100 99 95 90 90 98 99 100 100 98 94 95

GFSMW_850_rhum_045.txt.gz
RH
28 29 32 34 33 32 35 38 38 42 48 58 72 79 80 84 96 96 100 89 89 81 86 88 89 84 82 36 37 40 39 35 27 19 18 24 18 16 25 26 32 36 26
23 24 26 32 35 36 40 41 39 43 46 58 63 76 82 86 94 96 99 94 87 88 92 96 87 84 41 37 41 42 40 37 27 17 22 29 27 32 25 36 25 19 24
21 19 19 24 32 36 38 42 41 46 49 60 75 83 86 89 100 100 99 93 88 91 99 96 87 59 38 40 43 44 41 34 26 16 14 29 28 25 23 22 30 21 32
21 22 20 19 20 31 38 42 44 50 60 71 76 74 57 70 82 100 100 100 99 99 100 92 70 41 41 43 46 46 42 32 20 18 16 14 15 30 27 26 29 30 26
19 20 21 24 23 22 33 46 48 56 70 69 79 64 75 82 87 100 99 100 99 99 97 75 50 42 43 46 47 46 40 28 18 15 15 16 23 31 38 40 30 28 32
18 20 22 24 26 27 30 47 56 65 77 81 62 58 88 77 80 99 100 100 99 98 76 55 45 44 46 48 48 45 35 22 16 16 15 15 22 29 39 39 35 36 31
19 20 23 26 28 30 31 50 65 71 80 63 71 76 96 77 85 100 99 99 99 92 64 50 44 46 48 49 47 38 25 18 16 16 16 16 19 26 32 42 44 45 34
23 29 29 26 31 36 39 53 72 73 71 70 85 94 94 85 93 100 98 98 94 71 70 46 46 48 50 49 42 29 20 18 18 18 17 17 18 24 32 45 52 54 49
29 36 38 33 33 43 47 58 76 74 72 81 91 93 89 93 98 100 98 95 77 58 46 46 48 50 49 43 32 22 19 20 20 20 20 21 22 26 32 38 49 62 64
34 41 37 36 30 44 51 69 74 77 81 88 87 85 88 98 92 96 90 80 70 58 48 49 50 50 44 35 25 21 21 22 21 22 22 22 24 28 32 42 54 59 62
38 49 41 36 36 50 62 72 76 80 84 82 78 78 92 93 94 87 70 62 60 48 50 50 50 45 37 27 22 23 24 24 24 25 26 24 27 33 41 48 53 58 62
45 58 52 48 54 63 75 78 79 82 77 72 74 84 96 92 85 62 70 60 49 51 50 49 46 38 30 25 24 26 27 27 27 26 27 30 41 42 46 53 59 63 67
45 64 65 66 71 79 82 80 79 76 72 74 83 91 87 77 66 76 67 52 52 52 49 47 41 33 26 26 28 30 30 28 30 32 36 36 42 50 57 61 69 73 78
60 69 70 73 79 85 80 78 74 71 73 78 83 77 68 74 76 52 51 52 52 51 49 43 35 29 27 30 32 31 30 30 32 39 44 46 50 57 67 69 83 87 84
72 78 77 77 82 82 75 69 66 65 80 81 77 75 73 56 49 50 52 52 52 49 45 38 30 28 32 33 33 30 25 22 29 33 43 54 60 63 81 91 91 92 90
84 86 82 84 76 71 67 63 65 70 77 80 76 59 50 48 51 53 54 52 48 45 41 32 29 32 34 34 33 28 20 15 21 42 40 52 62 69 79 89 89 88 93
89 83 82 72 69 73 68 64 72 81 77 70 58 56 50 52 53 54 52 48 47 43 34 30 32 35 35 34 29 20 14 14 30 41 58 68 72 80 84 85 85 89 90
82 79 74 69 72 72 66 68 76 71 64 55 57 52 53 54 54 53 49 47 44 35 30 33 35 36 36 31 19 15 14 18 38 62 72 77 78 82 84 87 91 86 87
76 73 69 71 71 75 76 67 58 54 61 56 57 54 54 55 53 50 46 54 48 30 32 34 36 37 30 21 15 14 14 26 51 70 73 76 82 79 87 93 92 94 89
78 75 77 81 79 80 76 77 66 75 80 69 54 54 54 55 51 47 86 45 30 32 33 35 38 33 20 18 16 15 17 36 69 72 79 78 79 86 92 95 98 92 91
91 91 89 95 96 90 83 73 61 52 52 54 54 55 54 50 67 82 35 29 30 32 34 39 32 25 24 24 23 20 22 69 88 87 86 85 90 92 92 94 94 95 96
63 58 55 53 51 50 50 50 51 52 54 55 56 56 69 94 53 35 28 29 30 35 40 34 22 32 46 47 48 40 70 94 95 91 89 89 96 95 94 96 97 99 100
62 59 59 56 52 51 59 59 56 55 55 61 74 76 61 45 35 27 28 29 34 41 32 22 28 34 38 47 60 73 88 93 93 91 94 95 95 95 88 90 99 100 95
90 87 82 80 76 67 54 52 53 58 69 61 54 51 47 34 26 26 28 36 43 29 19 23 26 25 34 51 65 57 79 89 90 92 92 97 92 82 86 88 88 91 95
68 59 58 55 49 48 51 53 54 54 55 56 54 48 32 24 25 27 38 43 29 18 18 18 17 22 30 46 63 87 94 97 96 99 87 75 79 82 85 89 89 90 94
61 58 54 49 51 52 54 53 53 54 57 56 46 29 24 25 30 41 43 28 18 18 18 17 19 23 30 42 51 87 100 100 100 88 81 86 88 90 92 95 92 92 95

GFSMW_850_rhum_048.txt.gz
RH
29 27 26 27 25 26 29 36 37 38 37 50 72 81 72 94 77 79 81 91 88 80 74 79 82 85 82 81 39 36 40 41 38 31 21 17 20 20 22 19 25 24 26
25 25 26 29 30 30 28 28 35 39 38 38 53 76 80 77 77 79 86 96 98 86 83 84 86 88 82 68 35 40 42 43 39 29 21 21 23 28 30 22 22 27 20
23 23 23 24 26 31 33 33 32 37 42 40 52 78 82 76 82 90 86 94 99 88 88 92 93 89 83 50 39 42 44 44 39 28 20 17 27 24 19 24 26 23 23
22 23 23 22 21 23 30 35 37 38 39 43 58 70 74 74 80 76 84 93 100 97 99 100 99 87 73 39 40 44 46 44 37 28 19 14 14 14 15 20 26 26 30
19 20 21 21 22 22 24 28 33 40 41 47 62 70 74 71 61 74 89 98 98 98 98 99 98 82 49 40 44 46 47 44 34 23 16 15 15 17 25 26 19 18 19
17 18 19 20 22 23 22 25 33 40 43 55 68 78 61 62 68 83 100 99 99 100 100 98 91 63 43 42 46 48 47 40 28 19 16 16 16 20 27 30 20 20 18
16 18 21 25 24 23 26 24 29 42 47 63 80 86 71 67 62 66 84 97 98 100 96 85 63 48 44 45 48 48 44 33 23 18 17 17 17 18 20 27 27 33 22
19 20 28 33 33 34 28 28 26 51 55 75 84 88 92 72 63 63 83 97 99 96 87 74 55 46 45 48 48 46 38 28 20 18 19 19 20 21 23 29 39 39 35
21 26 33 38 34 35 31 32 32 59 66 82 87 87 91 80 76 72 100 100 99 92 81 57 48 46 48 49 47 39 31 23 20 20 21 22 22 23 25 29 34 49 66
25 30 39 42 39 36 33 38 41 64 75 82 89 91 94 94 83 93 100 100 98 82 64 58 46 48 50 47 41 32 24 22 22 23 24 25 24 24 25 26 29 38 54
30 32 43 36 43 35 41 45 52 72 79 88 89 93 94 92 90 98 100 99 84 66 53 54 54 48 47 43 35 26 23 24 26 27 27 26 26 26 24 28 35 42 54
31 38 43 42 51 46 45 51 66 72 82 88 91 94 90 88 97 98 94 77 62 57 53 48 49 45 44 38 29 25 25 27 28 28 28 27 28 25 28 38 47 58 62
30 53 58 54 63 62 59 65 77 86 88 88 89 84 82 95 92 87 73 63 62 54 55 50 47 46 39 30 26 27 29 29 29 29 28 28 30 29 38 48 55 59 63
41 64 63 67 78 72 80 85 86 83 83 82 76 78 86 84 82 64 63 66 60 59 55 45 46 41 33 28 28 30 30 30 27 24 28 30 37 47 57 62 70 85 90
55 73 70 71 77 94 86 83 78 75 73 71 75 74 70 67 63 63 63 68 56 49 45 48 44 35 28 29 30 32 31 27 20 17 19 31 42 50 69 80 82 89 92
73 74 78 79 88 85 78 75 73 70 68 70 64 60 59 62 67 66 56 50 52 51 50 47 36 29 29 32 32 32 28 19 16 16 21 31 41 51 76 84 88 87 89
74 79 87 86 78 72 71 70 63 58 60 58 56 59 63 58 52 53 54 50 49 51 49 39 30 30 31 33 33 27 18 16 15 18 30 46 58 66 75 82 86 87 93
83 91 86 80 78 71 68 60 56 58 56 59 54 53 53 60 55 49 49 50 54 54 38 30 30 32 33 34 27 18 16 15 15 20 38 67 73 77 84 83 91 96 86
80 79 74 70 64 59 58 58 62 61 60 52 57 66 70 58 48 48 54 56 61 44 36 31 32 34 36 29 19 17 16 14 16 25 45 58 77 83 86 91 86 87 86
74 71 66 64 63 68 68 72 70 76 75 79 80 76 76 70 64 52 72 73 55 30 30 31 36 36 27 22 23 19 18 19 23 31 51 70 90 91 92 91 97 99 88
77 73 74 74 82 79 83 78 81 81 87 90 90 93 72 47 63 93 81 51 28 28 30 36 36 25 27 27 28 32 35 47 74 90 86 87 94 94 92 92 94 94 95
100 98 99 100 99 99 98 99 100 99 94 72 52 47 55 92 97 57 30 27 27 30 38 36 23 23 30 34 34 63 78 87 91 92 94 89 95 95 94 95 93 97 99
62 65 67 67 73 85 80 65 54 51 50 58 80 91 97 58 39 28 25 26 31 40 33 20 20 21 21 23 31 33 42 43 91 88 95 98 98 94 89 79 96 99 86
56 52 51 51 50 51 54 64 76 78 75 76 74 61 49 37 26 25 27 32 41 31 18 18 18 16 15 17 23 30 42 55 77 90 96 86 72 78 81 67 76 82 87
86 88 88 87 82 74 63 56 60 67 71 60 54 51 36 25 23 26 34 42 28 19 19 19 16 14 14 24 42 72 87 99 98 99 80 60 63 62 64 74 81 84 86
64 73 70 52 51 52 54 57 58 55 57 59 51 34 23 22 24 35 42 26 20 20 19 17 13 18 33 40 55 71 99 98 98 89 72 66 68 71 77 84 86 86 89

GFSMW_850_rhum_054.txt.gz
RH
29 31 29 29 27 27 30 29 30 31 53 62 68 69 69 73 78 75 84 88 85 85 84 89 90 90 87 77 76 76 77 35 39 40 38 31 24 22 20 23 21 24 25
26 28 29 30 28 27 27 26 27 27 29 51 57 64 62 69 61 62 76 87 84 80 74 82 91 92 87 80 80 79 75 35 39 41 37 31 30 28 24 25 24 24 27
24 22 24 27 29 29 29 28 26 26 26 31 50 59 65 64 66 64 68 74 83 79 73 79 83 88 85 80 81 82 72 36 40 43 39 30 26 24 22 20 21 28 33
26 24 23 22 23 23 25 28 27 30 28 31 43 50 57 58 59 60 60 70 72 79 67 75 86 90 86 85 88 84 58 40 42 43 42 35 29 18 16 20 23 27 28
23 22 23 24 24 23 23 23 23 24 28 32 37 51 54 56 52 54 59 62 71 74 65 64 81 87 93 90 90 84 62 44 43 45 42 34 29 22 17 16 18 20 21
22 22 21 23 23 23 24 24 23 23 23 24 33 33 46 53 54 54 54 61 64 70 66 65 79 96 95 91 89 82 56 45 45 45 40 32 25 20 17 18 18 18 17
21 20 21 22 22 23 22 22 22 22 23 25 31 36 33 41 48 50 52 55 61 65 64 66 84 99 90 92 93 66 50 46 45 43 36 32 23 19 18 19 21 23 21
29 26 24 22 20 20 20 21 21 21 21 22 23 29 44 40 46 51 53 54 57 59 62 84 100 99 91 94 87 61 50 45 42 38 29 26 21 20 21 23 25 27 26
41 37 30 37 33 27 26 26 27 27 25 24 24 26 32 48 48 49 55 62 62 65 81 100 100 98 93 93 75 58 53 44 40 34 28 24 22 23 24 25 27 30 41
42 42 44 38 35 35 33 30 27 23 20 26 31 29 28 46 53 54 56 63 68 88 100 100 100 96 90 78 59 53 45 41 33 31 25 24 24 26 26 27 27 29 36
52 52 51 47 40 36 32 29 27 23 30 33 34 32 37 67 65 60 63 74 86 99 100 100 98 83 70 64 54 56 45 30 29 37 44 29 27 28 28 26 27 30 35
54 54 52 40 45 39 32 30 27 30 42 34 36 38 77 90 76 66 74 100 100 100 100 96 81 70 66 69 56 41 50 78 54 29 28 28 29 28 26 26 30 32 35
57 63 64 57 56 49 40 35 31 39 49 48 50 66 94 97 89 79 96 100 100 100 91 80 73 76 58 49 61 57 34 31 42 57 34 29 26 22 23 29 32 34 44
66 70 71 71 64 67 50 48 41 53 75 74 74 84 90 95 92 97 97 97 99 88 78 68 60 62 48 40 44 57 74 78 52 31 27 22 20 21 28 30 35 54 70
88 89 81 79 85 86 70 68 76 84 93 98 94 98 98 97 93 90 98 96 84 78 77 79 59 41 55 88 89 84 70 52 32 23 18 18 20 22 28 45 66 76 77
84 92 89 90 91 88 84 82 82 87 97 96 96 95 92 90 90 91 90 84 72 66 65 77 93 94 92 78 50 36 31 29 21 18 17 16 15 18 28 42 54 86 93
94 96 85 89 86 82 80 84 88 90 89 86 83 88 85 88 89 87 78 79 81 87 91 96 82 62 67 68 36 34 28 20 18 17 15 13 17 24 29 38 56 83 90
81 80 77 76 76 76 77 83 88 89 93 87 87 78 82 84 78 77 86 94 91 96 86 88 92 86 42 36 34 28 21 21 18 16 17 21 22 23 35 77 94 92 90
87 80 72 74 78 82 86 86 91 93 95 80 68 61 71 73 84 99 99 95 97 98 96 98 64 38 35 33 26 21 20 18 17 18 20 24 26 36 93 96 100 100 92
76 84 84 75 74 74 72 75 75 71 66 62 62 83 99 100 100 97 99 98 100 100 92 41 36 35 31 25 27 26 21 21 15 14 23 29 42 87 97 96 98 97 85
72 70 69 71 73 74 76 69 76 88 100 100 100 100 100 97 99 100 100 100 84 38 38 37 35 27 26 26 26 23 23 26 26 24 28 35 62 100 100 98 96 87 96
89 82 72 74 82 76 76 99 100 99 99 100 100 98 100 100 100 100 64 36 39 40 39 34 24 22 22 20 15 14 18 24 32 41 55 77 99 99 73 56 53 98 98
98 98 98 99 99 99 100 99 100 99 99 99 100 100 100 92 50 36 33 33 36 38 29 20 20 19 17 14 14 20 28 36 63 72 92 83 69 49 44 49 62 75 80
95 98 98 98 100 100 100 99 99 100 100 100 99 92 47 36 33 31 32 38 37 24 20 20 18 15 14 19 26 32 42 60 74 76 60 58 52 50 57 71 77 80 84
88 92 96 98 98 99 98 90 83 86 96 98 64 42 36 32 30 33 40 34 23 20 19 18 16 18 23 40 74 75 82 92 81 73 47 43 44 56 74 77 78 80 84
89 91 94 97 98 94 94 96 96 98 93 52 43 35 28 28 32 40 32 22 20 20 18 16 21 44 52 69 48 42 53 47 59 52 53 51 66 81 83 82 82 84 85

GFSMW_850_rhum_057.txt.gz
RH
30 31 30 29 29 24 29 32 32 30 30 43 74 70 69 71 76 79 75 74 81 79 79 86 81 84 85 86 88 88 80 78 66 36 39 37 32 28 23 22 23 22 25
27 26 27 28 29 30 26 28 29 29 29 29 45 64 66 67 65 69 74 73 72 77 77 78 80 83 85 91 92 88 78 78 63 36 40 34 34 30 27 25 26 28 26
28 24 23 22 25 29 30 28 27 27 28 28 29 45 62 66 66 65 67 66 68 70 78 71 72 80 86 89 92 86 80 80 68 38 40 36 34 29 29 27 27 28 27
24 25 26 25 21 21 26 28 29 28 28 29 31 32 34 53 64 64 61 64 64 67 67 67 63 72 83 92 98 89 83 83 67 40 41 42 39 29 24 25 22 23 28
20 20 22 22 24 25 23 22 23 24 26 26 33 32 34 47 60 60 62 59 59 63 62 63 64 73 86 96 100 92 89 86 61 44 43 43 40 35 26 19 22 23 23
27 24 22 20 20 22 23 23 24 24 23 23 24 27 36 42 57 61 65 62 60 60 61 63 62 63 72 90 100 94 89 83 68 58 44 43 38 36 27 22 20 19 20
37 33 25 25 24 24 22 22 22 24 24 24 24 25 31 41 41 43 57 61 61 56 57 60 62 67 74 92 100 95 90 77 74 52 44 41 34 33 24 21 20 20 20
40 40 37 31 30 28 26 24 22 22 22 23 23 23 25 26 33 41 41 52 60 57 55 59 63 65 98 100 99 87 89 83 58 44 37 42 30 27 23 22 23 24 24
48 44 45 44 40 34 32 30 27 24 22 21 21 23 24 24 26 37 44 51 55 60 60 59 64 84 100 99 94 84 74 69 61 51 52 31 28 25 24 23 25 28 32
56 52 46 51 49 46 41 36 33 30 28 27 23 20 20 28 29 30 47 53 54 53 60 63 78 99 100 97 88 74 69 59 53 44 46 35 26 26 32 37 30 28 34
61 58 51 50 57 48 38 43 35 30 29 27 26 25 24 32 32 34 42 71 58 58 62 72 94 100 99 91 83 76 62 56 43 45 61 50 62 37 28 28 28 28 31
66 64 56 57 66 64 56 49 40 33 32 28 27 37 37 38 38 48 73 83 90 85 90 100 100 100 90 80 74 57 52 60 69 70 68 50 42 45 42 31 25 26 33
71 70 70 75 76 73 65 58 50 44 38 37 46 59 57 55 59 91 100 100 100 100 100 100 99 80 81 65 56 63 71 69 70 51 74 78 48 36 25 22 24 29 33
85 84 81 87 81 79 77 69 68 52 54 74 79 85 84 90 100 100 100 100 100 100 100 98 94 87 66 65 66 70 61 57 84 82 79 67 46 26 19 20 27 31 35
80 86 92 85 85 87 82 79 65 73 85 98 100 100 100 100 100 100 100 100 100 100 98 88 66 68 65 59 53 62 94 98 84 39 30 22 19 18 18 21 27 57 75
82 97 93 86 90 88 87 84 79 81 84 98 100 100 100 100 100 99 99 95 93 83 69 71 74 77 79 93 100 97 97 72 29 23 21 18 17 16 17 23 34 51 86
80 84 87 85 86 84 81 81 85 86 88 92 95 92 91 92 85 83 79 73 72 75 83 84 84 92 98 97 98 98 74 40 30 21 18 17 16 20 23 26 33 56 74
85 86 80 79 79 81 81 86 92 92 92 87 85 83 82 89 90 82 84 84 93 92 95 100 100 100 99 90 49 35 27 23 21 19 20 24 24 22 25 42 78 86 90
86 81 79 80 82 88 91 92 95 100 100 92 96 98 96 93 93 94 96 100 100 100 100 100 99 90 44 36 32 25 24 25 24 28 31 31 25 27 36 88 98 99 90
80 86 84 84 88 88 91 92 96 96 98 96 79 80 86 96 100 100 100 99 100 100 97 90 44 38 35 32 24 40 42 33 31 20 23 30 34 47 100 98 96 93 71
75 78 77 76 77 78 82 72 70 70 70 75 80 93 100 100 100 99 100 100 99 83 37 39 37 33 29 33 36 38 26 22 17 20 23 31 52 100 100 99 83 61 97
82 75 73 76 80 78 75 92 97 96 97 99 99 100 100 100 100 99 90 42 35 36 38 37 28 24 24 24 20 17 16 21 26 29 40 56 90 77 50 42 44 79 85
95 90 81 92 85 95 100 99 100 100 100 100 100 99 100 96 53 33 30 31 37 39 31 23 22 21 20 17 15 19 30 34 48 61 78 65 46 40 38 47 66 75 78
93 94 95 98 99 100 100 98 100 100 100 99 100 90 43 32 32 32 37 42 36 25 21 21 20 17 16 21 31 33 32 48 62 60 50 46 44 47 59 76 78 80 82
89 93 94 99 99 100 100 100 99 99 99 86 48 38 33 32 30 33 39 34 24 21 20 19 18 22 26 28 32 66 71 81 46 51 40 40 44 64 76 78 78 81 83
92 97 98 99 99 99 94 90 92 97 79 48 40 32 28 28 34 40 30 22 21 20 19 17 17 21 31 49 44 47 53 41 40 40 46 50 73 82 84 83 81 82 86

GFSMW_850_rhum_060.txt.gz
RH
30 30 30 28 29 29 25 26 30 33 33 35 44 58 66 67 67 65 68 65 76 76 75 73 76 76 72 75 85 88 91 89 85 80 60 36 37 35 30 25 23 23 22
30 28 27 27 28 29 29 29 26 29 32 32 31 32 36 58 59 63 63 64 69 68 65 70 75 76 77 78 87 87 88 89 82 78 57 36 36 37 34 29 26 26 26
28 28 28 24 24 25 26 29 31 29 30 31 30 31 36 47 66 63 63 64 64 68 65 65 65 64 78 77 82 90 92 91 83 80 53 38 39 36 35 32 30 28 29
26 22 24 26 27 24 21 22 29 31 30 30 31 31 30 32 35 41 50 59 60 60 63 66 63 61 74 80 82 90 94 97 87 83 69 41 38 33 34 35 31 29 28
38 30 28 25 25 26 25 23 23 27 28 27 28 29 33 38 42 40 53 57 59 60 60 60 61 61 68 79 87 88 96 98 92 89 84 46 41 41 36 27 30 27 26
37 32 28 28 26 25 25 26 25 24 24 24 26 26 26 31 37 40 48 60 57 60 63 63 62 62 62 66 73 82 100 97 95 92 77 49 51 41 37 32 30 25 25
42 37 30 26 26 28 28 26 24 24 24 24 24 24 24 24 25 34 46 61 65 62 63 63 60 61 62 66 71 86 100 98 96 94 66 67 47 41 37 31 27 25 23
54 48 44 38 32 28 28 31 31 28 27 26 26 25 25 26 27 30 34 43 43 55 58 66 68 62 63 64 82 98 100 100 94 76 59 68 51 38 32 36 26 24 24
59 57 51 48 48 49 37 33 32 32 31 30 28 27 26 25 24 24 25 32 44 49 56 57 63 68 66 71 99 100 100 96 82 67 65 51 48 53 30 32 26 25 28
64 63 59 53 54 60 58 45 41 36 34 33 30 29 26 24 23 22 23 26 31 51 59 57 60 65 78 98 100 100 98 80 66 59 50 56 38 39 46 38 59 58 31
69 68 68 62 61 63 64 59 46 43 43 35 30 29 28 28 27 28 32 34 34 50 76 80 90 94 99 100 100 95 80 60 53 55 62 50 46 56 77 68 49 46 39
74 74 74 77 78 76 71 68 61 54 44 37 34 32 32 36 46 47 47 56 59 70 98 100 100 100 100 99 92 78 58 59 71 65 59 71 87 85 86 81 61 30 29
76 72 72 77 85 82 75 74 72 60 52 44 40 41 47 63 79 71 72 86 99 100 100 99 100 100 99 91 77 72 76 70 65 76 87 82 90 95 92 80 52 26 27
76 88 92 97 88 84 86 82 73 70 63 55 52 59 85 97 99 99 98 100 100 100 100 100 100 95 83 77 73 63 66 78 86 84 93 94 93 93 58 24 26 26 27
78 91 94 94 91 87 83 81 78 74 73 70 64 98 99 100 100 100 100 100 100 100 100 99 91 74 70 77 83 88 85 83 99 100 98 85 40 23 19 20 23 25 20
80 86 88 86 82 75 77 81 78 83 83 80 94 96 100 100 100 100 100 100 100 93 90 87 88 89 83 90 82 76 100 100 100 94 33 21 20 19 18 19 22 21 26
80 85 84 82 80 80 81 84 90 90 89 92 96 99 100 100 98 98 97 96 96 98 94 81 74 81 92 100 99 100 99 90 38 25 22 21 21 19 18 16 14 20 40
81 84 82 82 81 83 84 90 92 92 90 89 90 90 89 90 87 85 85 71 66 70 80 90 98 100 100 100 100 70 33 27 24 23 23 21 17 16 17 20 48 78 74
82 82 80 84 86 90 92 92 97 98 97 89 88 90 94 95 95 94 92 98 100 100 100 100 99 100 96 51 32 31 28 29 26 23 18 18 17 19 24 94 100 95 72
81 84 85 86 86 84 87 88 94 99 99 99 99 99 99 98 100 100 99 99 100 100 100 99 89 35 33 35 29 22 26 23 17 16 20 26 32 61 100 99 98 69 45
76 79 79 80 76 80 78 75 78 75 76 85 96 100 100 99 100 99 99 99 99 95 59 36 37 37 34 28 28 30 20 15 17 26 30 36 42 94 86 82 62 50 92
81 76 79 78 80 74 81 88 82 94 97 99 99 99 100 99 99 100 98 58 34 37 38 35 28 26 26 26 22 18 18 28 26 31 39 37 31 33 37 39 48 94 86
91 81 80 84 81 97 98 94 99 100 99 99 99 99 99 92 45 34 34 35 39 37 28 23 22 21 20 19 20 24 28 30 38 37 30 31 34 37 40 54 73 77 80
93 92 92 99 100 97 98 98 99 100 100 99 99 72 36 33 33 33 38 38 30 23 22 22 20 20 21 23 28 32 34 30 33 32 38 39 41 46 64 76 80 81 83
93 94 92 94 95 98 99 100 100 100 99 74 40 33 31 31 34 38 36 28 23 22 20 19 19 21 22 26 28 42 43 52 42 45 40 42 48 70 75 75 78 80 82
97 98 97 98 99 100 99 99 97 97 56 41 32 29 28 31 39 37 25 22 21 20 19 18 17 18 24 33 38 47 44 42 41 39 41 46 69 78 80 81 79 82 85

GFSMW_850_rhum_063.txt.gz
RH
31 31 31 30 30 29 28 27 27 31 40 46 50 53 56 58 58 58 59 60 64 70 70 75 67 58 78 80 72 83 89 92 93 91 85 79 53 36 36 33 28 24 23
32 29 28 29 29 29 30 30 29 28 30 34 35 36 41 54 52 55 56 56 59 63 66 68 75 69 72 79 74 74 86 90 94 90 84 63 51 36 37 37 33 28 26
26 21 20 22 24 25 27 28 29 29 30 30 32 35 40 46 41 38 46 51 52 58 61 64 66 73 76 78 77 72 82 88 90 91 79 60 49 38 37 37 36 32 29
35 34 29 28 28 27 25 24 26 29 30 31 33 34 35 38 33 33 33 42 43 58 63 64 62 63 68 77 79 78 78 89 94 92 88 79 58 38 38 37 35 34 33
42 37 34 31 28 28 28 27 24 25 29 32 31 32 33 33 33 35 33 33 37 45 61 63 61 60 63 63 70 80 83 88 97 94 91 83 72 53 42 37 38 37 34
45 40 37 33 33 33 30 30 28 26 26 27 28 28 29 29 32 37 37 37 40 42 60 64 66 65 60 60 62 68 87 89 97 100 94 92 88 83 69 43 38 35 32
51 42 36 33 32 29 30 30 30 29 28 27 27 28 31 36 33 32 33 41 43 47 47 59 63 64 66 65 62 68 82 93 99 100 97 95 92 82 55 65 44 35 30
62 57 51 46 42 37 34 29 29 31 30 29 30 31 31 31 32 33 35 40 44 45 53 55 57 60 66 69 68 68 84 100 100 100 99 94 88 59 59 44 66 28 28
68 66 62 59 55 53 51 45 36 31 32 32 31 30 29 29 28 28 29 28 30 35 44 59 62 66 65 70 70 78 88 100 100 100 97 88 72 52 59 66 32 35 37
72 70 69 70 64 62 60 59 56 48 38 35 34 33 31 30 28 26 26 26 26 27 32 41 59 67 83 95 100 100 100 100 100 99 93 66 53 44 44 51 52 53 70
74 71 69 73 76 75 74 70 67 62 50 46 44 40 34 31 30 29 28 28 28 30 42 48 54 87 99 100 100 100 100 100 99 81 59 48 51 55 52 57 81 91 89
74 70 71 74 77 82 75 70 72 69 59 51 46 40 35 32 31 31 29 34 41 47 62 89 100 99 100 100 100 100 100 94 71 53 48 54 69 75 84 96 98 93 94
74 75 82 87 86 80 80 83 77 74 69 66 58 52 46 40 38 46 57 62 87 100 100 98 100 100 100 100 100 97 83 61 51 54 67 80 92 99 100 99 99 90 45
75 82 86 86 86 83 82 82 77 76 76 72 66 62 58 56 60 97 98 99 100 99 100 100 100 100 100 97 87 70 59 56 70 83 87 97 98 99 99 85 36 25 26
76 82 88 86 83 83 81 74 78 84 84 83 88 90 96 98 98 99 99 99 100 100 100 100 100 99 91 75 66 69 74 76 86 99 100 100 100 84 24 19 20 21 20
76 83 85 83 81 84 80 82 86 82 86 90 88 92 98 99 100 99 99 100 100 100 100 99 90 78 74 80 78 83 93 100 100 100 100 90 24 22 22 25 26 27 27
77 83 83 84 84 84 88 88 88 88 84 88 90 95 98 98 98 99 100 98 99 100 96 93 85 87 93 99 98 99 100 100 98 52 25 26 27 27 25 20 18 26 43
80 82 82 83 84 87 88 87 92 92 87 86 88 89 92 92 99 100 99 100 99 99 100 100 98 99 99 99 100 100 88 37 30 31 30 25 21 18 17 27 38 37 45
80 82 82 86 88 90 86 83 87 96 96 94 92 94 97 96 98 100 97 96 96 96 97 99 99 100 100 96 47 32 33 36 30 23 19 18 18 21 40 82 68 48 43
80 84 86 86 83 88 85 82 84 92 98 99 98 99 99 99 100 99 100 99 99 99 99 99 99 88 46 29 23 24 28 20 17 19 21 22 22 25 91 89 59 47 39
76 80 80 80 80 79 76 77 77 77 88 95 99 98 99 99 100 100 100 100 100 96 67 37 35 28 26 37 36 25 17 17 21 23 27 27 27 33 30 38 35 39 82
78 78 79 79 77 85 86 81 89 94 95 98 98 99 100 100 100 100 84 40 36 36 34 28 25 26 26 24 21 23 28 28 25 32 32 30 28 29 30 33 46 67 69
82 80 78 78 91 92 91 91 99 100 99 100 99 99 98 75 40 33 34 37 34 27 23 22 22 21 21 25 28 31 31 33 32 30 28 26 29 32 39 58 69 71 74
81 84 87 98 91 93 96 95 98 99 97 96 98 60 32 31 33 37 37 30 23 22 21 20 20 21 25 29 37 30 29 27 30 30 32 33 36 47 68 75 78 79 80
88 88 91 91 90 89 90 97 98 98 98 62 33 30 29 31 35 36 28 23 22 20 20 19 20 22 23 34 31 35 40 38 38 35 36 39 48 71 75 76 78 80 82
89 86 85 89 93 98 99 99 99 92 47 32 28 27 29 36 37 27 23 21 20 19 18 16 15 19 26 32 31 34 37 38 36 35 38 48 71 76 76 76 77 82 83

GFSMW_850_rhum_066.txt.gz
RH
31 34 28 27 27 25 26 28 27 26 48 55 51 68 64 49 47 56 66 65 62 61 72 78 82 82 75 82 86 80 75 79 89 96 94 88 83 76 55 35 34 32 28
33 32 29 30 30 30 29 27 27 26 28 67 34 47 59 60 51 55 54 57 52 55 58 64 68 74 73 83 79 85 82 84 91 94 79 69 72 77 64 38 35 35 32
35 34 24 22 24 25 28 29 29 29 29 30 68 70 56 52 44 45 45 52 56 58 57 60 62 64 70 68 59 72 82 81 83 95 82 74 68 58 61 51 37 36 35
41 42 42 29 26 25 26 26 27 28 30 31 52 84 64 52 36 38 40 42 40 49 58 56 64 65 63 66 64 67 76 86 77 92 92 85 62 51 49 45 39 37 36
50 48 42 37 34 31 29 28 27 27 28 29 32 64 87 81 51 47 41 39 36 34 48 55 62 66 67 66 64 65 78 82 87 79 88 91 88 79 62 52 48 43 38
55 53 44 43 38 36 33 31 29 28 27 27 30 36 75 85 92 86 73 41 38 36 40 46 54 62 66 64 66 68 78 78 94 86 90 94 90 87 83 71 54 46 41
61 60 52 45 42 40 36 33 33 32 30 28 28 30 31 55 91 78 92 78 80 52 42 47 51 55 57 66 68 68 70 77 86 84 89 98 99 92 88 79 71 56 42
66 66 57 54 49 47 44 41 36 32 34 32 31 30 29 30 33 34 62 86 88 52 51 61 73 79 79 72 62 68 70 71 80 98 99 100 100 97 92 74 63 53 58
71 72 65 60 57 54 53 52 49 45 40 34 33 32 32 32 32 32 33 33 36 41 40 45 53 64 78 89 94 92 82 80 99 99 100 100 100 98 91 81 70 65 61
74 74 71 66 68 67 64 62 61 58 54 49 40 37 36 33 31 30 29 28 26 24 26 28 32 41 53 66 86 99 100 100 100 100 100 99 99 92 84 91 71 64 49
74 72 78 80 76 79 76 70 66 65 61 56 50 46 43 39 34 32 31 31 31 30 31 32 37 52 86 98 100 100 100 100 100 100 100 100 95 82 67 48 52 65 72
73 83 91 94 87 82 76 75 74 72 71 64 60 56 52 46 42 38 34 32 32 33 41 46 64 86 99 98 98 100 100 100 100 100 96 92 70 50 51 62 78 92 99
73 79 85 84 84 81 82 80 74 69 68 68 67 64 59 57 55 50 45 40 43 55 78 98 98 98 99 99 100 100 100 100 99 87 74 51 52 66 83 95 100 100 100
72 76 78 82 80 80 76 70 74 78 77 76 77 77 72 69 70 69 72 89 99 99 98 98 98 99 98 100 100 100 100 94 70 54 57 70 85 98 99 99 100 94 44
72 74 83 84 78 77 77 76 79 80 83 83 84 86 95 94 96 98 99 98 98 99 100 100 100 100 100 100 98 86 76 67 58 72 87 97 100 100 99 84 26 22 22
74 74 83 82 77 81 82 83 86 83 83 88 85 92 97 100 100 98 99 100 99 99 99 98 97 86 82 87 81 76 78 84 87 98 99 100 99 40 23 21 22 20 32
73 77 82 83 81 86 87 90 92 86 87 87 86 90 93 95 98 99 99 99 98 99 99 100 97 95 94 97 98 99 100 100 100 100 89 36 24 25 24 19 17 23 34
75 78 82 84 87 90 92 96 96 91 87 85 85 86 87 91 96 98 97 98 99 100 98 98 99 99 98 99 99 100 99 96 58 26 26 26 22 19 17 20 36 37 55
78 82 83 88 88 88 89 94 96 96 94 90 90 91 94 96 98 95 97 99 97 98 98 98 98 99 99 99 94 49 29 28 26 21 17 15 18 24 24 66 61 76 54
85 83 85 85 84 82 81 87 94 99 94 87 89 92 92 92 89 92 96 100 100 100 99 99 99 71 33 30 25 22 22 19 17 17 19 24 27 32 66 54 58 36 39
81 83 84 82 79 77 77 82 84 86 90 91 90 93 96 97 99 99 99 100 100 97 71 37 30 28 58 50 24 20 18 20 21 24 30 31 30 26 28 30 41 42 75
79 83 83 79 79 83 78 80 87 95 99 99 98 98 99 99 100 96 69 46 37 31 26 26 27 28 27 24 24 22 24 21 28 33 32 31 25 27 31 34 41 55 63
84 83 79 78 92 85 92 91 95 99 99 98 99 100 99 75 39 36 36 34 28 24 24 23 22 22 23 26 30 32 27 26 27 29 30 30 29 30 37 54 65 66 67
86 79 80 92 89 88 94 97 100 100 100 99 96 59 32 32 36 36 30 24 22 21 20 20 20 22 22 25 34 35 41 33 40 34 32 31 33 42 62 69 70 72 74
81 86 92 87 88 89 91 93 95 99 98 69 32 30 30 34 35 29 22 22 20 19 18 17 16 18 27 43 33 35 51 54 38 34 33 35 44 64 70 72 74 76 78
84 89 88 86 86 85 86 91 94 97 59 29 27 27 32 35 30 23 21 19 19 16 13 12 15 21 25 30 32 33 34 35 34 33 34 39 59 70 72 74 78 80 81

GFSMW_850_rhum_069.txt.gz
RH
23 24 26 28 32 34 36 37 38 41 64 78 82 59 66 61 69 81 95 96 89 90 94 94 94 95 92 87 99 97 95 82 86 84 76 80 85 83 81 74 57 38 36
22 26 30 31 31 33 36 36 36 38 40 56 72 57 43 47 57 57 58 64 78 69 60 80 90 95 92 95 96 98 100 90 79 76 77 79 79 84 82 76 65 43 39
29 28 29 31 31 31 33 35 37 37 37 38 50 72 75 94 69 46 52 54 59 84 79 62 76 92 98 92 91 89 97 83 82 77 79 80 74 65 64 72 70 50 46
35 38 42 41 37 32 30 30 32 37 37 35 39 51 72 82 84 78 61 55 55 50 60 86 80 76 90 99 88 93 83 86 82 80 79 82 70 67 60 62 61 58 52
40 45 50 51 48 33 29 26 26 28 32 34 35 46 59 71 83 85 90 83 79 54 46 52 61 69 80 75 84 96 100 89 85 73 81 84 85 73 56 54 56 52 48
45 47 54 55 60 40 36 34 34 30 29 29 30 32 45 71 82 83 86 89 90 91 82 51 46 52 63 78 67 64 97 100 98 87 87 87 82 85 86 74 66 61 60
51 52 55 56 61 56 46 44 42 42 34 31 30 31 34 52 77 83 87 89 90 91 99 82 69 62 70 100 96 92 86 86 100 96 88 94 99 92 90 91 80 65 65
57 61 64 65 63 68 59 50 46 45 38 37 37 38 40 40 49 72 87 91 92 95 92 79 63 56 62 84 100 100 100 100 100 100 100 100 100 100 98 93 82 74 63
62 65 66 69 70 74 76 61 57 56 50 45 38 41 46 37 36 37 51 79 86 97 97 83 76 57 79 90 91 100 100 100 100 100 100 99 100 100 100 98 92 94 86
64 64 66 71 78 79 72 70 66 63 58 56 52 45 42 40 36 35 37 42 54 56 42 33 38 42 48 74 99 99 100 99 99 100 100 100 100 100 100 100 100 91 98
65 66 71 78 83 78 75 72 68 66 66 62 58 55 51 48 45 41 39 36 36 35 34 33 34 36 39 54 96 99 99 100 100 100 100 100 100 98 100 98 99 95 92
68 75 83 81 79 80 74 73 73 72 70 71 70 63 62 61 56 52 47 44 42 40 39 40 41 48 66 95 99 99 98 98 99 100 100 100 100 100 98 90 78 76 78
67 70 74 76 77 77 77 73 69 70 70 74 79 69 66 62 60 57 55 52 52 54 62 75 86 96 99 99 100 99 100 100 100 100 100 100 96 85 60 69 89 94 99
66 67 70 75 78 74 73 71 73 76 77 79 82 80 76 72 70 69 73 79 86 93 98 98 98 98 98 99 98 100 100 99 99 98 89 79 73 75 84 98 100 99 100
66 67 73 76 76 76 72 74 79 79 79 82 84 86 86 89 90 92 96 95 97 93 96 99 99 99 99 100 100 100 100 98 89 78 76 85 90 98 100 99 98 73 27
69 68 78 77 76 80 78 83 85 82 83 85 81 86 95 95 96 95 97 92 95 98 98 99 98 97 96 95 90 83 80 78 84 95 100 100 100 100 98 72 20 16 15
69 69 77 83 84 88 83 86 85 80 83 82 82 89 95 94 92 94 95 94 96 98 95 92 91 93 96 97 95 98 100 100 99 99 99 95 55 28 20 17 14 15 20
71 71 81 86 84 95 85 85 85 85 85 88 88 89 92 92 90 93 94 90 91 92 92 96 98 100 99 100 97 98 99 99 98 93 73 30 20 16 14 16 31 40 42
71 74 83 89 86 94 83 82 89 90 90 92 92 94 96 91 89 88 89 92 93 98 100 100 100 96 96 100 98 86 43 28 24 20 19 18 18 18 17 30 54 45 65
77 84 84 85 86 84 82 85 90 93 94 94 95 91 88 87 87 92 98 94 95 95 97 94 65 31 25 23 20 19 30 46 36 27 22 20 23 20 19 22 31 46 39
84 83 86 83 80 79 80 86 93 93 92 94 91 89 87 88 89 92 99 98 100 87 41 31 34 43 29 20 16 16 18 21 22 26 29 27 22 20 19 19 23 30 38
95 83 80 81 78 78 81 84 91 93 94 94 94 94 94 93 94 92 78 48 33 27 24 22 21 19 19 19 19 17 18 17 21 25 25 26 22 22 24 27 31 43 59
96 81 82 83 84 82 82 89 97 98 100 99 93 96 96 66 38 36 34 27 24 24 21 19 20 20 21 23 23 25 23 22 24 26 28 28 27 29 31 40 57 64 65
98 95 97 84 91 92 94 98 100 100 99 100 96 68 34 33 35 33 27 22 21 20 20 20 22 23 26 36 56 60 68 57 53 40 32 29 31 36 52 65 66 67 69
98 86 92 95 87 92 99 100 100 99 100 90 43 31 32 34 32 25 23 20 18 18 18 15 14 18 37 31 22 26 31 35 35 32 31 34 40 56 73 72 71 71 71
91 86 95 87 86 94 98 97 98 98 79 34 28 28 32 34 28 22 19 18 18 14 11 12 14 15 19 22 26 29 31 32 31 32 35 42 54 71 71 70 71 72 74

GFSMW_850_rhum_072.txt.gz
RH
23 24 24 24 25 28 34 40 41 58 82 86 85 78 72 82 88 91 87 88 88 84 82 79 80 76 82 80 86 89 94 90 89 85 79 72 70 76 80 80 77 72 61
22 22 24 26 28 30 32 34 37 38 39 63 80 79 69 60 58 69 78 82 88 79 77 77 77 84 88 91 82 92 96 98 92 88 86 76 70 74 79 81 81 77 69
28 28 28 28 29 31 32 34 34 35 38 38 50 61 69 66 56 39 41 61 82 73 72 67 70 69 85 95 95 74 83 94 100 93 82 77 76 70 69 73 81 78 72
31 32 32 34 33 31 30 31 34 35 35 37 38 41 54 64 52 44 49 46 43 47 68 68 73 77 80 93 75 90 70 85 99 100 91 80 76 73 68 66 64 70 69
37 44 46 49 43 36 32 29 30 34 37 38 40 40 42 56 81 82 84 81 62 53 56 60 74 88 91 96 100 100 100 78 81 98 96 86 84 77 67 63 62 63 63
44 50 56 60 59 48 41 38 38 31 28 29 34 38 40 40 52 72 84 83 77 88 88 90 91 78 98 100 98 100 100 98 85 95 100 99 90 87 80 67 64 60 61
48 51 54 57 57 53 50 51 49 45 39 36 33 33 35 37 49 72 83 86 88 88 91 89 90 99 99 99 98 98 99 100 100 100 100 100 100 98 94 90 76 72 66
58 61 65 64 63 62 55 50 48 47 41 39 40 42 43 41 42 60 76 83 89 94 95 90 92 100 100 100 99 97 100 100 100 100 100 100 99 100 100 99 97 90 78
63 65 66 68 69 70 65 58 57 55 53 50 44 41 42 37 36 40 50 66 78 91 97 98 95 96 98 99 98 97 98 99 99 100 100 100 100 100 100 100 100 99 98
64 64 66 69 75 73 71 69 66 63 60 57 54 53 49 48 48 44 42 47 58 67 69 72 68 58 80 83 85 99 99 100 100 100 100 100 100 100 100 100 100 99 96
64 66 71 78 74 73 74 73 70 66 65 66 63 60 62 61 58 53 48 44 46 42 43 42 42 41 45 50 58 79 98 98 98 98 99 100 100 100 100 100 100 100 99
65 72 79 76 74 74 73 70 71 69 69 77 78 73 71 71 63 56 52 49 45 45 49 53 50 52 54 63 73 93 98 99 98 99 100 99 100 100 100 100 99 93 87
67 74 74 74 73 71 72 70 67 68 71 74 76 77 71 66 64 62 61 61 58 57 57 59 66 73 86 98 98 98 97 96 99 99 100 100 100 99 98 89 83 86 94
65 66 70 73 73 72 72 68 66 70 74 78 79 80 78 76 78 80 80 79 76 78 76 83 92 95 95 93 90 90 99 99 100 100 100 99 93 81 84 92 99 100 100
65 67 69 74 76 74 72 71 74 76 76 79 83 84 84 85 87 91 92 96 96 97 98 99 98 95 98 98 100 99 99 99 97 94 87 82 84 98 99 97 99 82 60
66 65 73 74 74 76 76 77 78 76 78 81 82 86 92 92 94 93 95 91 90 92 90 87 92 94 92 88 87 85 87 84 83 88 99 100 100 100 98 97 83 27 20
67 68 71 77 78 78 79 81 80 76 78 82 85 90 90 88 87 84 91 91 90 87 85 86 92 91 91 95 93 93 94 96 98 99 98 99 99 96 69 26 20 16 22
68 68 74 79 82 84 85 84 83 81 82 84 86 84 90 92 89 89 90 88 88 86 85 89 92 88 92 97 97 99 99 99 99 90 72 39 20 19 21 18 23 42 46
71 71 76 82 85 88 84 80 84 84 87 87 88 90 92 89 89 92 92 90 85 85 84 88 90 89 97 95 81 43 24 21 19 17 17 17 19 20 19 35 43 50 47
71 72 77 82 85 85 82 82 86 89 91 92 92 88 88 90 91 91 91 90 89 86 87 58 31 25 21 18 17 17 21 22 20 19 20 22 23 21 20 20 26 32 35
76 79 82 87 86 82 80 81 85 93 93 94 87 85 89 91 91 97 98 95 73 35 28 25 26 21 18 18 17 17 18 20 21 29 33 28 22 22 21 21 24 26 29
80 82 85 83 81 78 77 82 90 91 92 89 87 89 92 92 93 82 60 36 28 23 22 21 20 17 17 16 15 14 16 17 19 22 25 30 29 24 26 27 31 40 55
84 83 82 82 81 78 80 82 89 92 92 96 97 94 95 77 46 34 28 24 23 22 19 19 17 15 14 16 20 24 22 24 25 30 31 29 26 26 26 33 50 60 62
89 84 84 86 85 85 80 87 96 98 98 98 100 90 45 34 35 31 26 22 20 18 16 16 13 14 18 24 31 32 34 30 31 28 27 26 27 30 42 58 65 65 67
87 90 96 89 92 85 88 97 99 99 98 99 82 35 31 34 32 24 20 18 17 16 12 10 10 12 14 18 20 23 26 26 27 26 27 28 33 42 60 67 67 67 69
84 86 92 91 86 87 98 99 98 98 99 87 35 28 30 32 28 21 18 18 16 12 8 8 11 12 15 19 21 22 25 26 26 27 28 31 34 51 67 69 69 72 72

GFSMW_850_rhum_075.txt.gz
RH
24 22 23 25 26 33 38 47 63 80 84 83 73 79 87 85 86 90 82 78 76 73 74 72 71 75 73 72 79 88 90 84 83 91 92 84 76 74 70 69 75 76 74
25 24 24 24 24 24 27 33 40 43 60 64 78 74 75 78 81 79 74 76 75 74 79 75 71 70 81 84 80 87 92 95 92 91 92 86 81 77 68 67 73 78 77
28 27 28 29 28 28 30 32 34 39 38 44 51 62 73 73 75 69 68 73 74 67 70 85 88 81 82 84 83 79 87 74 86 92 90 86 83 72 64 64 66 75 79
30 29 29 28 28 28 28 28 30 32 35 38 39 40 46 54 54 55 57 52 55 67 71 76 81 83 91 90 87 88 75 73 73 91 98 92 82 73 71 67 66 72 80
32 33 34 34 32 30 27 27 29 32 34 33 36 39 41 50 75 81 79 71 70 70 65 61 64 75 86 90 96 95 95 86 84 85 98 100 96 93 84 76 73 70 74
41 40 44 43 38 36 36 35 32 30 32 36 38 40 42 44 48 52 78 86 90 86 78 72 93 97 94 92 95 91 94 97 94 96 99 100 99 93 96 86 82 76 74
44 48 58 58 54 52 48 47 43 36 32 30 30 33 37 39 40 43 58 78 86 87 86 86 84 84 92 93 99 99 100 99 99 98 98 94 98 100 99 100 93 87 88
50 56 59 61 62 58 55 52 46 43 41 37 37 35 33 32 36 38 44 75 85 87 86 86 91 99 99 99 99 98 97 98 93 92 93 96 100 100 100 100 100 99 97
61 64 67 66 66 65 63 60 56 53 51 48 46 42 41 40 40 41 44 60 76 83 88 96 99 99 98 98 86 98 99 96 95 93 92 99 98 99 100 100 100 100 100
65 65 66 67 69 70 67 64 61 60 60 58 56 56 55 54 51 48 46 48 57 69 72 72 78 87 88 73 62 64 72 82 100 95 99 93 99 99 100 100 100 100 100
65 66 68 71 71 67 66 66 66 65 65 64 63 61 58 58 55 50 48 47 47 51 52 50 47 42 39 41 45 50 56 73 98 98 95 91 91 91 98 100 99 100 100
65 67 73 75 69 67 68 68 66 66 66 64 67 69 66 63 63 62 57 54 51 49 50 48 47 44 44 48 56 63 76 88 91 94 96 95 99 99 100 100 100 98 99
66 73 78 72 68 66 66 68 67 67 66 66 69 72 75 69 65 62 59 59 59 59 58 56 55 59 64 69 76 92 91 89 88 90 94 100 100 100 100 100 95 88 88
65 72 72 70 70 68 68 68 68 69 69 71 75 78 79 77 75 73 71 69 69 70 71 76 80 84 87 90 91 88 86 81 84 94 99 99 98 95 85 85 93 100 100
65 67 69 69 71 71 70 69 73 76 76 76 78 80 82 84 86 86 85 83 86 86 89 89 95 98 94 97 93 96 93 92 94 95 93 90 88 89 93 99 99 99 100
64 66 68 70 72 71 71 73 78 79 79 79 79 83 90 92 93 94 97 92 89 87 85 84 90 90 82 82 84 85 84 84 83 82 87 94 98 98 100 100 99 97 43
65 66 66 70 73 73 75 78 81 81 80 81 82 84 87 91 94 93 89 86 81 76 80 86 87 85 91 95 95 96 94 95 99 97 96 97 100 99 84 43 22 22 20
67 67 68 70 76 77 80 80 83 82 82 83 84 83 88 91 90 86 83 79 78 84 91 90 86 84 93 93 92 99 96 94 94 82 62 39 23 19 20 26 26 34 46
67 68 69 71 77 82 86 85 86 86 85 85 83 85 92 89 85 82 82 79 84 87 88 88 87 84 74 66 42 22 18 17 17 17 18 19 23 31 25 26 35 42 42
70 71 70 73 81 86 88 86 82 85 87 88 88 90 86 82 82 84 80 82 87 88 72 33 22 19 16 15 14 14 15 14 14 16 21 25 24 21 24 21 22 25 30
72 72 74 78 83 87 86 84 86 89 91 91 90 83 84 84 84 86 89 90 64 28 24 22 19 17 16 15 13 12 12 14 16 19 21 24 22 23 21 19 21 24 28
74 76 78 82 83 83 81 82 83 87 90 90 82 83 85 86 87 85 56 35 27 23 18 16 15 14 13 12 13 13 15 17 20 22 26 28 26 24 23 24 28 35 49
78 80 80 83 83 82 81 81 85 89 90 84 83 84 89 86 67 44 30 26 23 20 16 16 14 13 14 16 18 20 19 20 21 26 24 25 24 24 26 33 49 64 66
82 82 83 84 82 80 80 82 88 93 89 89 87 90 86 51 36 32 27 22 19 17 16 13 12 13 14 17 19 19 20 22 24 24 24 25 25 29 38 55 66 67 67
83 83 82 82 82 86 84 84 93 92 92 97 98 86 42 34 32 28 23 20 18 16 14 11 11 12 12 14 15 18 20 22 23 23 24 25 28 31 44 61 65 67 68
82 82 85 88 84 85 84 92 99 96 93 94 92 49 31 33 33 25 20 18 16 14 9 8 11 11 12 14 15 15 20 22 23 22 23 25 25 29 50 63 65 67 69

GFSMW_850_rhum_078.txt.gz
RH
27 26 26 27 26 38 46 59 69 75 76 77 81 88 85 88 90 87 80 80 82 78 73 72 72 72 69 67 71 80 90 88 88 84 86 88 90 88 85 79 70 67 66
27 24 25 24 28 28 33 40 51 66 69 77 74 78 80 82 89 84 81 78 76 74 82 77 75 77 76 76 78 83 85 86 94 95 90 91 90 85 78 78 75 70 70
27 27 25 26 26 28 30 32 37 42 43 54 70 68 75 82 84 87 83 81 73 72 73 73 69 75 85 87 84 85 87 88 85 94 96 91 89 78 70 66 70 74 73
30 29 29 30 30 28 27 27 30 35 38 39 40 47 58 59 54 65 70 72 71 72 73 74 76 81 88 93 90 95 96 98 98 95 97 98 93 86 80 74 72 72 72
32 31 30 29 29 29 29 30 30 31 32 34 36 38 40 45 47 54 58 66 71 69 67 75 79 82 85 84 90 97 94 96 96 93 87 92 99 95 92 89 88 88 82
36 35 35 34 32 31 30 28 26 25 26 31 34 37 40 41 46 50 50 49 51 64 84 83 77 72 62 85 88 99 97 89 92 99 99 95 97 92 96 89 94 95 91
40 40 41 45 45 42 40 39 37 35 34 32 33 36 38 40 42 44 46 48 51 65 69 89 83 77 87 94 94 97 92 90 88 88 94 86 99 96 100 100 100 100 99
43 44 49 56 54 52 51 48 44 43 40 37 35 34 34 34 36 38 39 40 49 77 84 89 88 84 87 95 97 97 97 97 96 93 89 89 87 89 98 100 100 99 100
51 54 58 58 58 58 56 53 51 49 48 45 42 39 38 37 36 38 40 46 54 72 89 91 88 89 93 95 98 99 91 87 97 98 94 90 89 98 99 99 100 100 100
62 64 65 65 66 66 64 61 59 59 57 55 53 52 51 48 48 50 48 47 52 62 74 83 88 91 98 97 89 93 61 57 66 88 80 96 84 92 87 98 100 100 100
65 66 66 68 69 70 66 64 65 65 63 62 62 60 59 58 58 56 53 52 52 54 56 60 63 62 62 59 55 52 51 54 60 72 77 93 94 92 86 91 98 100 100
64 65 67 69 71 67 66 66 65 66 65 65 66 67 66 65 64 64 63 60 58 56 55 53 50 49 48 48 50 53 57 65 70 79 89 95 88 89 87 93 98 99 99
66 68 71 74 71 65 64 64 65 65 66 67 70 72 74 74 71 67 64 63 62 60 58 56 56 54 54 58 64 70 75 82 84 86 85 84 84 96 100 99 99 96 94
67 69 74 74 69 67 66 66 66 65 67 70 74 76 77 76 75 73 71 70 68 67 65 62 62 67 73 77 79 86 88 85 84 82 81 82 92 98 96 92 90 91 95
68 68 72 70 69 68 68 68 67 68 72 76 77 79 81 81 80 78 78 78 79 79 80 81 81 81 90 87 91 93 91 87 86 88 89 89 86 86 88 92 93 95 98
62 65 66 68 68 68 69 68 69 73 76 78 79 81 84 86 89 88 88 91 91 86 83 84 84 86 81 80 84 84 82 81 82 83 86 92 96 95 99 97 96 98 92
60 64 64 66 68 69 70 71 73 77 78 79 80 82 85 89 91 93 91 88 86 83 81 81 80 76 77 82 82 83 85 87 91 90 92 92 98 98 93 76 45 20 15
61 64 66 68 70 72 73 74 77 78 80 80 82 85 86 90 90 88 86 82 80 82 81 76 74 75 80 83 81 83 81 76 73 68 53 30 21 17 15 16 18 24 32
64 66 67 68 70 72 75 79 81 82 82 84 86 84 87 92 90 85 82 83 84 82 76 79 80 65 49 38 18 17 16 17 16 16 17 17 17 17 13 13 14 20 30
65 66 68 70 72 75 81 84 85 86 85 85 88 87 91 91 87 84 83 83 84 80 62 25 20 17 15 14 14 13 14 14 13 14 16 17 16 16 17 17 18 21 28
68 70 71 71 72 78 84 85 86 84 86 91 92 90 87 87 86 86 84 83 73 29 21 20 17 16 14 11 9 10 11 13 14 15 18 21 21 21 21 19 20 26 28
71 73 72 73 77 83 86 86 86 86 88 92 93 85 85 86 88 88 87 44 26 22 19 17 15 14 12 11 13 14 14 16 18 20 22 22 20 20 23 24 28 34 43
73 75 76 79 82 84 83 84 84 85 89 94 88 84 84 87 89 76 37 24 20 18 16 14 13 12 12 15 16 17 17 18 19 20 20 20 22 22 26 30 39 54 63
76 79 79 81 82 84 83 83 84 85 92 93 84 86 86 88 70 37 26 22 19 16 14 13 11 11 12 15 17 16 16 16 17 18 20 21 22 24 28 38 50 61 64
80 82 79 81 81 82 82 81 82 88 94 89 84 88 87 60 34 28 24 21 19 17 14 12 10 10 12 13 13 13 14 16 18 18 19 21 23 27 33 46 62 65 66
82 84 81 83 84 85 84 85 84 93 94 96 92 90 77 36 32 28 22 18 17 16 13 8 8 10 11 12 12 13 14 15 17 17 19 22 23 24 31 50 64 66 66

GFSMW_850_rhum_081.txt.gz
RH
30 29 29 35 37 45 52 66 76 82 93 94 90 88 84 84 80 77 76 79 81 79 77 68 70 73 71 68 72 74 76 79 87 97 93 89 86 85 84 87 86 84 82
28 28 27 27 31 37 41 47 65 78 85 90 90 91 86 86 85 84 81 82 77 76 76 75 73 77 80 78 77 79 80 82 88 99 97 93 86 88 80 76 78 80 85
29 27 25 25 25 28 35 37 44 51 64 67 73 75 79 85 90 90 87 74 65 72 77 76 80 83 88 88 88 89 89 88 89 94 100 92 82 84 77 76 75 75 73
33 29 26 26 26 27 31 32 40 46 48 45 49 62 78 78 74 74 77 78 78 75 78 78 79 83 88 92 92 90 91 95 90 90 94 96 98 99 94 89 83 80 77
33 30 28 30 31 31 30 30 31 34 39 39 40 41 42 44 48 55 62 69 77 79 84 85 78 70 76 82 83 85 96 87 88 86 83 89 95 100 100 100 96 91 85
34 33 31 30 30 30 30 30 30 31 32 32 33 35 36 38 39 42 48 53 57 60 63 68 70 77 79 77 71 85 87 92 92 98 94 96 99 98 99 100 96 98 88
36 34 33 33 33 31 30 30 30 29 29 28 28 31 36 38 37 39 43 45 47 49 53 59 74 68 77 77 74 84 91 95 86 85 89 88 91 95 99 100 99 99 99
36 38 40 40 40 40 39 39 37 37 37 37 37 37 36 36 36 38 41 44 45 46 46 49 64 82 82 80 85 83 82 89 94 93 93 88 89 88 87 93 97 98 93
46 44 48 51 50 48 49 50 51 49 46 44 43 42 41 40 39 39 38 39 40 44 56 71 87 90 91 89 89 89 95 99 99 96 82 96 94 94 100 99 97 92 100
58 61 58 56 58 59 58 58 58 56 54 54 53 52 51 48 46 45 46 46 48 53 64 81 89 96 98 94 98 96 98 93 92 66 72 88 95 86 98 85 88 86 98
59 59 62 64 63 64 66 65 62 61 61 60 60 60 60 58 57 56 56 55 56 56 62 73 81 88 93 90 92 97 89 74 59 60 65 73 74 87 86 96 87 83 86
64 65 65 64 66 66 66 62 62 61 61 62 63 63 64 65 65 64 63 63 61 60 62 64 66 64 60 54 49 49 51 55 57 62 71 75 85 89 88 87 84 84 86
69 68 67 65 68 67 64 61 61 61 62 63 64 66 68 71 73 72 68 66 66 65 63 61 59 56 54 53 53 55 59 63 70 71 74 84 87 85 85 98 100 100 95
66 66 68 68 72 69 64 63 63 63 63 64 65 68 72 73 75 76 73 70 69 69 68 66 65 64 66 67 70 72 76 81 76 77 83 90 91 94 95 92 90 90 89
68 67 68 69 72 69 66 65 66 66 65 67 72 75 77 78 81 83 83 82 81 79 79 79 80 81 82 84 85 89 92 86 81 85 89 89 86 87 90 91 93 94 95
66 66 68 70 69 68 67 68 68 68 69 73 76 77 79 82 86 90 90 91 90 91 90 87 85 84 87 88 86 87 84 80 80 83 85 86 90 91 93 96 93 97 95
56 60 62 64 65 67 69 70 70 71 74 77 78 78 80 84 92 97 97 95 93 88 86 84 82 79 79 84 81 78 79 82 86 86 87 87 86 86 75 62 40 25 18
48 53 58 63 67 69 72 73 73 74 76 78 78 79 82 86 92 98 95 90 86 82 81 82 79 78 78 80 80 69 53 40 30 26 19 16 15 15 16 18 19 20 23
44 50 59 65 68 70 72 74 76 77 78 80 79 82 84 89 94 91 88 84 83 83 81 80 82 76 43 18 15 14 14 12 12 12 12 12 13 14 12 13 13 16 23
56 62 66 68 70 71 73 76 78 81 81 82 82 85 84 90 92 89 84 84 86 82 84 57 26 16 13 12 11 10 9 9 10 10 11 13 14 17 18 16 16 17 18
59 64 68 68 70 72 74 78 83 84 84 84 85 87 88 89 88 85 86 86 85 68 25 18 15 14 11 8 7 8 9 10 10 12 14 16 17 17 17 15 16 18 18
66 68 70 72 73 74 77 82 86 87 85 85 88 89 87 85 88 87 87 86 54 25 22 18 14 11 10 9 9 10 10 10 11 14 15 16 17 18 18 19 20 22 24
71 72 73 73 75 78 82 86 87 88 86 87 90 92 88 88 88 88 85 44 29 26 18 15 12 11 10 11 11 11 10 11 12 14 14 14 16 18 19 21 24 31 44
73 74 75 77 78 81 85 87 88 87 86 87 93 91 87 89 92 91 52 27 21 17 15 13 11 10 10 12 12 11 12 12 13 14 15 16 17 19 20 27 34 42 54
75 76 78 79 80 83 85 85 84 85 86 93 97 89 88 91 90 58 28 22 22 19 16 12 10 10 10 10 10 11 12 11 11 12 15 16 18 19 22 27 35 49 60
77 79 81 81 82 84 86 86 86 85 87 94 95 86 88 90 70 37 27 22 21 17 14 11 8 9 9 9 10 11 11 11 12 14 15 16 17 18 20 24 35 50 60

GFSMW_850_rhum_087.txt.gz
RH
41 40 41 61 58 58 61 62 63 63 68 77 82 84 84 86 85 82 83 81 79 78 77 79 76 75 73 73 77 80 80 79 80 84 79 77 79 80 74 75 71 73 77
42 40 42 45 57 56 48 43 46 47 36 62 65 78 81 78 78 80 82 84 80 78 78 75 78 80 82 82 81 82 83 85 86 91 91 90 80 78 73 67 68 71 72
42 41 38 38 33 36 42 36 43 46 51 54 70 77 86 84 74 82 78 77 68 70 75 73 76 78 81 78 85 88 89 90 91 94 97 99 88 83 83 79 75 82 85
42 40 39 36 34 30 29 34 35 48 58 61 72 76 77 75 81 84 81 85 87 78 80 80 77 79 81 79 78 82 81 91 92 94 85 90 96 98 93 88 89 84 89
48 42 38 38 38 33 30 28 32 40 52 64 68 69 83 81 75 76 78 82 81 80 78 75 76 75 76 74 73 76 77 79 93 98 95 97 100 99 100 99 97 87 80
41 40 45 39 32 30 29 27 27 34 43 56 67 67 70 75 68 55 54 61 76 74 69 66 66 69 71 74 81 80 71 76 89 88 86 90 93 95 99 97 89 91 87
40 37 38 39 36 31 30 33 32 37 47 54 57 60 59 50 41 38 38 39 40 43 46 55 65 66 62 65 73 79 76 76 83 82 86 83 84 82 93 89 97 99 93
41 38 36 37 35 31 34 35 36 35 34 33 33 32 32 32 32 32 32 32 34 37 41 45 48 52 55 62 75 90 81 88 89 93 95 88 81 90 89 93 98 96 89
34 42 42 40 34 33 34 35 34 34 33 32 31 31 31 31 30 30 33 35 38 40 41 42 44 46 48 53 93 97 88 80 90 91 88 84 88 87 88 87 92 93 98
36 35 43 41 40 40 41 41 40 39 39 38 38 38 37 37 37 37 36 37 38 37 37 37 39 45 65 91 98 99 92 97 89 86 88 90 82 82 69 81 87 94 97
44 47 52 56 55 53 51 50 47 44 42 44 47 48 50 51 51 50 50 51 50 49 49 50 56 90 98 99 95 99 93 86 91 93 85 70 68 61 67 74 78 83 78
54 58 61 64 65 64 62 60 58 57 55 53 53 54 56 57 58 59 60 59 59 60 61 61 64 73 93 99 100 94 91 94 99 99 79 59 58 62 69 73 78 84 92
73 71 66 62 61 62 63 64 63 61 59 57 56 56 56 56 58 61 62 62 62 63 65 67 66 68 72 72 75 73 69 65 60 57 56 58 64 68 74 78 84 97 97
71 72 72 70 68 66 66 65 64 60 61 58 61 58 57 56 57 61 65 66 66 66 66 68 67 67 68 66 64 63 62 61 61 62 66 70 72 78 80 88 88 85 84
69 67 67 69 70 69 66 66 62 62 62 60 58 61 62 63 64 67 68 72 76 74 72 70 70 70 70 68 69 69 69 73 75 80 80 80 82 83 83 82 80 81 82
68 69 72 73 69 68 69 67 64 62 64 63 62 64 67 69 70 72 76 79 81 82 81 80 78 79 79 78 82 84 88 91 91 84 83 83 81 84 85 80 76 77 65
64 67 67 66 65 67 69 68 66 66 66 66 68 70 72 75 74 73 80 86 88 90 90 89 89 89 87 89 92 89 92 90 83 81 80 78 77 64 38 16 11 12 13
63 64 64 66 67 68 71 72 70 70 71 71 72 74 75 75 76 80 94 99 99 98 97 92 88 87 86 90 87 84 83 82 78 58 29 18 11 10 9 9 9 10 11
58 62 61 62 65 66 70 71 71 72 73 74 75 78 81 79 80 88 99 100 100 99 97 90 87 86 87 90 86 69 34 16 10 9 10 9 8 8 8 8 9 10 12
47 50 54 56 59 63 70 71 72 73 74 75 77 80 80 80 84 92 100 100 100 100 98 92 93 91 66 22 14 12 10 9 8 8 9 8 9 8 9 9 11 11 13
47 48 44 48 56 63 70 73 74 73 76 78 81 84 83 84 92 97 100 100 100 100 100 96 82 30 14 12 10 8 8 8 8 9 10 10 10 8 10 11 12 12 12
58 57 59 64 67 71 73 74 74 76 79 82 86 88 89 90 94 99 100 100 100 100 98 67 27 17 13 10 8 8 7 7 9 10 11 11 8 9 10 12 11 12 12
68 68 68 68 70 72 73 74 76 78 81 86 88 88 89 93 97 100 100 100 100 100 69 26 21 15 13 12 10 9 8 8 9 11 10 8 9 10 12 12 12 13 18
69 70 71 72 72 73 74 77 79 82 87 90 90 90 92 96 98 99 100 100 96 77 28 24 18 15 13 12 12 12 11 10 10 10 10 10 11 12 13 13 15 17 21
74 72 73 74 75 77 78 78 81 84 88 92 92 93 94 98 100 100 98 94 86 37 28 22 19 15 12 12 12 11 11 11 10 10 11 12 13 13 13 13 14 17 20
74 75 75 76 78 86 80 78 81 86 89 92 91 91 93 98 100 100 98 94 60 37 28 21 16 14 12 11 10 10 9 10 10 10 11 12 12 11 11 12 13 14 16

GFSMW_850_rhum_090.txt.gz
RH
35 39 47 55 60 65 58 64 67 81 82 80 83 86 86 86 89 89 87 86 79 80 80 78 78 75 74 73 75 78 78 76 76 81 80 80 76 77 79 74 72 69 67
38 42 43 52 65 63 60 60 62 68 70 71 70 75 77 75 77 84 83 87 85 83 79 79 79 81 80 79 80 79 81 80 82 88 97 93 82 87 83 74 71 75 74
44 44 46 48 47 62 66 58 51 49 47 51 52 60 66 66 71 72 71 72 69 72 77 80 81 82 83 82 83 86 85 89 88 91 97 96 87 82 83 81 84 78 85
44 42 45 45 41 36 34 50 48 49 48 48 51 56 59 54 54 64 76 79 80 80 81 80 82 81 82 81 81 83 82 90 88 88 90 96 95 91 94 89 86 79 84
44 46 44 40 42 38 41 35 32 47 48 44 43 56 54 53 58 60 65 75 74 80 74 74 76 79 81 79 81 79 81 80 84 89 91 93 88 92 99 98 87 84 86
41 43 46 42 39 39 38 39 36 30 40 45 42 51 50 58 51 50 62 70 63 68 79 80 75 69 70 69 70 76 80 84 86 84 94 97 99 91 90 95 96 95 85
40 40 41 42 42 42 37 30 31 32 33 41 44 41 48 52 54 67 63 49 45 45 47 51 53 59 68 70 79 80 84 84 83 83 86 90 90 91 86 88 98 96 88
42 41 40 40 38 43 42 34 29 30 32 36 49 62 65 58 52 44 37 35 34 34 35 37 41 43 48 56 68 74 80 88 91 86 89 90 89 89 89 87 99 100 93
42 45 45 46 38 39 39 35 31 32 38 41 40 37 35 33 32 32 31 30 30 30 33 38 44 48 50 55 60 70 98 99 95 90 84 90 85 89 90 94 100 97 95
40 41 48 54 44 41 38 36 38 38 38 38 37 35 33 33 33 33 32 32 33 34 36 38 40 41 41 43 47 55 87 97 99 100 99 88 86 90 94 92 84 83 97
51 49 54 64 62 47 44 44 46 42 42 41 42 41 40 38 39 39 40 41 41 41 40 38 40 42 44 68 90 91 95 98 99 99 96 93 91 87 76 72 70 77 83
66 68 68 68 57 50 50 52 52 49 49 49 48 48 51 51 52 52 50 50 52 52 54 54 55 57 68 96 98 99 100 100 99 92 96 97 87 66 58 63 71 78 84
78 77 78 76 61 57 56 54 53 52 54 57 58 58 56 57 57 58 57 56 56 57 59 61 63 66 73 86 96 99 99 99 100 100 99 80 59 56 63 72 79 81 84
79 77 77 78 69 63 61 62 62 61 60 58 56 57 56 55 54 57 60 60 61 61 61 63 65 67 69 71 72 76 78 77 74 66 63 60 63 69 75 80 80 81 82
80 79 75 70 64 64 64 64 64 62 59 59 59 58 58 59 59 59 61 65 67 69 70 69 71 70 68 71 70 70 70 71 69 68 69 76 79 79 80 76 74 76 80
77 77 71 65 62 64 64 62 62 61 61 60 62 61 63 64 64 68 66 70 74 77 80 80 76 77 76 76 76 76 79 80 82 83 83 82 81 81 78 74 73 76 76
71 73 64 63 64 63 63 66 67 64 64 64 65 66 67 69 70 70 72 74 81 86 84 84 85 85 85 84 86 91 90 92 95 90 84 80 77 74 65 43 27 16 12
67 68 63 64 65 65 67 70 71 68 66 67 68 69 71 72 72 73 73 81 91 98 98 94 92 91 89 90 97 93 93 92 86 81 78 71 41 15 10 11 9 9 9
65 63 62 63 64 64 66 69 72 70 70 71 72 72 74 75 76 75 79 93 100 99 100 99 93 89 87 92 89 86 84 84 75 42 15 10 9 9 8 8 8 8 10
58 61 62 63 63 65 66 68 71 71 70 72 73 75 76 78 79 81 87 100 99 100 100 100 97 93 92 94 90 73 36 16 10 10 9 8 8 9 7 8 9 9 9
50 49 48 50 57 62 65 69 72 72 73 75 76 77 79 82 84 89 96 100 99 99 100 100 100 97 82 34 16 13 12 11 9 9 9 10 8 7 7 8 9 10 11
57 55 54 53 52 58 65 70 73 76 77 78 79 80 84 87 88 90 98 100 100 100 100 100 97 57 22 15 10 8 9 10 9 10 10 10 8 7 8 8 10 10 10
67 66 66 66 67 69 72 75 76 77 77 78 80 84 89 90 91 93 100 100 100 100 100 100 72 30 17 13 9 9 9 9 10 10 11 10 8 8 8 9 10 11 13
68 68 68 69 69 70 71 73 74 76 78 80 83 88 90 90 92 96 99 100 100 100 100 91 36 22 17 14 12 11 10 10 9 9 9 9 10 10 11 11 12 13 17
81 76 72 72 73 73 74 74 75 76 80 84 88 91 93 94 96 99 100 99 100 100 99 58 25 20 14 12 14 14 13 13 12 11 11 11 11 12 12 12 13 14 17
73 73 76 80 76 77 81 85 79 80 82 86 89 91 93 93 97 100 100 100 100 100 85 33 31 21 17 15 12 12 12 11 11 10 10 12 12 12 11 11 13 14 14

GFSMW_850_rhum_096.txt.gz
RH
33 37 39 41 84 83 90 80 80 82 95 97 91 89 90 91 93 90 88 84 85 97 88 81 94 99 89 78 75 75 72 66 68 72 69 69 71 72 76 77 84 88 89
31 34 40 40 79 75 75 75 68 81 77 74 72 87 88 91 87 91 90 87 86 92 97 88 93 100 98 94 89 92 79 75 74 74 81 85 77 80 83 86 91 90 89
29 33 42 42 72 82 85 77 70 74 69 70 79 78 87 92 94 90 81 83 88 86 81 82 80 84 94 92 84 86 84 78 82 83 86 92 88 85 84 89 88 82 82
28 31 42 44 66 79 74 71 81 81 70 72 80 73 75 79 82 89 93 89 86 85 82 81 79 78 81 78 80 81 77 78 78 94 89 95 94 92 90 87 85 81 84
28 29 40 42 50 71 71 59 68 84 82 75 71 76 74 72 72 74 70 75 73 67 62 68 68 63 58 60 67 78 83 76 89 94 92 93 98 100 100 99 96 91 89
31 32 41 46 45 55 71 64 61 67 71 64 63 63 64 65 73 71 67 63 66 72 68 64 70 69 58 57 59 62 74 72 83 93 99 98 96 90 99 98 96 100 99
31 35 46 51 51 54 49 63 67 72 63 64 61 55 52 61 60 65 67 66 73 68 61 68 67 65 42 46 48 52 68 89 96 97 99 100 99 98 98 97 99 96 95
31 37 44 45 45 48 43 45 46 46 46 50 55 58 56 63 65 56 66 57 60 52 50 54 50 46 44 40 38 78 99 100 99 98 100 99 98 98 99 99 93 99 100
30 37 40 47 43 43 46 43 42 40 37 41 42 57 73 68 62 63 65 74 68 64 60 76 67 45 35 33 37 48 63 98 97 98 98 98 100 98 97 100 98 94 98
32 35 36 38 45 44 44 43 43 44 42 38 40 44 45 49 59 49 49 59 57 52 45 37 35 32 33 37 42 47 50 72 96 98 87 98 73 100 100 100 97 92 92
32 32 35 38 44 48 44 47 48 50 47 44 44 44 40 44 48 50 47 42 38 36 34 37 39 40 41 44 43 43 48 64 81 99 100 77 98 97 100 98 97 90 90
36 35 35 41 50 55 54 56 58 56 57 54 49 46 48 42 38 38 38 37 38 39 44 46 48 50 51 51 52 56 84 99 98 98 96 97 98 96 100 98 94 87 68
47 45 41 46 51 54 60 64 62 57 60 56 52 49 46 47 41 42 42 43 45 50 50 52 53 54 56 60 65 72 85 100 98 99 99 100 99 99 99 89 89 59 62
59 56 56 62 64 67 71 74 64 55 50 47 45 46 49 48 47 51 50 52 51 49 49 52 53 55 58 62 65 71 86 100 100 99 100 99 98 97 99 90 63 66 72
61 61 63 66 71 75 77 73 63 57 55 53 54 54 54 54 54 54 53 53 54 54 56 55 56 57 60 65 70 74 75 85 99 98 98 99 100 96 75 67 69 74 79
62 64 64 67 71 75 75 72 63 60 60 60 58 58 57 57 57 57 57 57 58 59 60 62 63 65 65 68 72 76 78 78 80 80 81 80 74 74 73 76 81 80 76
61 65 66 66 69 72 70 64 61 61 61 60 57 58 58 58 59 60 61 62 63 65 65 66 68 72 73 74 76 76 79 81 81 81 82 84 82 87 88 87 83 79 79
55 64 67 67 67 69 68 65 62 61 62 61 61 61 61 62 63 64 65 67 68 67 68 70 71 76 83 83 81 83 87 92 94 95 94 93 90 88 87 85 82 72 53
52 58 64 67 68 69 67 64 62 64 65 65 64 64 65 66 67 68 70 70 71 72 72 76 82 93 97 94 92 94 99 100 100 100 100 95 89 85 79 49 16 10 10
56 57 62 68 71 70 68 65 64 63 65 67 67 67 68 68 70 71 73 74 75 77 77 84 96 98 100 99 96 100 100 100 100 100 95 90 80 39 13 10 9 9 9
62 67 69 72 75 75 71 70 68 67 68 70 72 72 72 73 73 74 75 77 80 81 84 91 98 99 100 98 99 100 100 98 97 94 72 33 14 10 9 8 9 8 11
62 68 74 75 77 78 77 72 71 71 72 73 77 77 76 77 76 76 77 80 84 83 87 95 99 100 100 100 100 100 97 74 40 20 16 15 11 10 10 8 7 9 10
72 71 67 64 61 61 64 68 69 74 74 78 80 79 79 77 77 78 80 84 86 88 95 99 100 100 99 100 92 63 24 18 17 16 15 12 13 13 9 7 8 9 9
74 71 70 70 70 70 73 72 73 74 75 77 78 78 77 77 78 81 85 88 90 92 99 100 99 99 99 98 58 24 16 11 12 13 12 14 14 12 9 8 8 10 10
74 76 78 75 73 74 74 73 73 72 72 74 75 75 77 78 81 86 90 93 94 100 100 99 99 99 99 97 50 24 17 15 16 13 13 13 12 10 9 11 12 11 12
74 74 76 77 79 79 82 83 81 78 79 81 81 82 82 83 83 88 92 95 98 100 100 100 100 99 99 86 36 26 22 21 25 18 14 13 12 11 12 12 12 12 13

GFSMW_850_rhum_099.txt.gz
RH
42 42 39 43 64 81 85 82 82 83 88 94 96 86 86 88 90 86 86 85 84 85 83 74 69 77 79 69 69 70 74 76 73 72 69 67 66 66 70 82 86 90 90
43 42 40 40 63 70 78 77 73 82 83 85 88 90 90 90 87 86 87 87 87 86 85 84 83 91 95 91 84 78 82 82 79 77 80 77 70 70 77 88 90 92 88
31 40 42 40 42 74 74 67 61 71 70 82 81 87 90 89 92 92 94 95 90 90 89 94 85 94 100 98 89 86 87 85 84 81 86 88 84 82 81 88 95 92 88
28 37 41 41 39 42 72 73 69 61 66 72 74 75 78 81 80 92 90 93 93 89 93 93 86 88 91 85 85 83 90 92 85 86 90 91 96 92 88 93 94 91 87
30 31 39 39 45 43 57 73 77 72 74 77 76 78 81 80 84 92 88 80 86 87 85 80 89 86 84 80 76 76 76 74 74 72 78 85 87 100 99 96 90 86 89
30 31 39 40 43 64 60 76 91 86 83 76 76 82 75 79 76 78 79 72 68 74 73 73 74 86 88 82 73 74 71 70 67 70 70 80 76 96 99 100 99 96 92
30 30 42 46 45 52 65 69 72 81 78 77 77 72 73 71 70 68 68 70 70 75 79 80 83 76 72 63 62 62 69 55 45 43 71 77 97 99 94 99 92 87 95
31 30 38 45 43 44 48 63 60 71 75 74 64 63 60 59 61 56 58 57 53 58 57 61 75 76 66 74 72 65 54 53 46 48 57 82 87 89 95 93 97 96 98
31 30 39 48 47 46 48 52 61 67 71 65 64 59 57 59 60 61 61 58 52 60 64 65 75 54 55 56 56 63 60 53 54 55 75 88 88 87 86 91 90 99 99
30 34 40 47 46 45 44 45 46 51 46 46 46 48 46 52 56 57 60 62 70 81 81 79 78 72 68 46 39 37 38 35 41 48 81 92 93 93 89 91 87 99 100
34 40 46 47 46 46 46 46 45 43 42 40 36 38 48 54 58 65 65 65 65 67 62 52 42 38 35 35 34 34 34 36 39 54 84 98 87 100 98 98 89 91 94
33 33 36 44 47 48 48 46 44 44 46 44 43 44 46 46 44 43 39 38 40 41 40 40 43 43 44 45 46 49 48 47 47 64 79 95 97 82 88 95 100 95 100
38 36 36 45 52 53 51 50 50 49 52 52 52 54 52 50 48 44 48 46 44 43 44 47 50 53 54 55 54 57 63 66 79 81 97 92 97 96 95 99 99 99 94
49 44 50 52 58 61 60 60 62 63 62 64 66 64 59 54 50 48 44 46 51 51 52 50 49 51 52 54 58 59 65 74 95 99 98 96 96 98 99 99 99 99 84
58 56 58 58 60 63 63 64 65 65 63 62 60 56 53 51 46 45 50 54 54 54 53 53 54 55 56 54 57 63 63 72 90 99 98 98 99 98 98 98 99 83 68
59 61 60 63 66 66 64 65 64 64 61 58 57 56 55 52 51 54 55 55 55 56 58 60 61 61 60 62 64 66 70 76 80 88 99 99 98 99 100 96 78 74 74
62 63 64 66 68 68 67 62 62 62 60 60 59 58 57 56 57 58 58 60 61 61 62 62 61 62 62 62 66 72 75 79 82 84 84 87 86 80 77 78 81 84 83
60 63 65 66 67 68 67 66 65 62 62 61 60 59 60 60 61 62 63 64 65 66 66 66 66 66 66 63 68 77 81 84 91 91 91 88 90 89 92 92 94 92 86
51 61 63 66 67 66 65 67 67 66 65 64 63 63 63 64 65 67 68 69 70 69 69 71 71 71 71 70 75 86 92 100 100 100 100 100 98 97 93 90 89 86 74
52 57 64 67 68 68 69 69 66 66 66 66 67 67 68 69 70 71 73 74 74 73 75 76 76 78 80 89 88 96 100 100 99 100 100 100 99 97 89 86 53 18 12
68 66 66 68 70 72 73 71 69 67 70 70 70 71 72 72 74 74 76 78 77 77 80 81 83 85 91 99 100 98 100 100 100 100 99 99 96 74 34 17 11 12 10
63 78 76 74 76 78 79 78 75 75 75 75 76 77 78 77 77 77 78 80 80 81 84 85 91 96 98 100 100 100 99 99 100 98 88 60 30 19 14 12 9 9 12
71 68 70 77 81 82 82 82 80 77 77 78 79 80 80 78 78 77 78 80 83 85 87 91 97 100 100 100 99 99 100 95 54 34 25 23 20 19 16 11 10 9 10
76 73 71 70 71 72 72 74 76 77 77 79 80 80 78 77 78 78 79 83 87 89 91 93 100 100 100 100 99 98 67 30 19 16 17 18 18 17 17 13 11 10 10
78 80 80 79 78 77 75 75 76 77 78 78 78 78 78 78 81 82 82 85 89 93 94 97 100 100 100 99 99 99 48 31 20 17 16 18 14 14 16 13 13 10 12
74 75 77 80 80 81 82 84 85 85 81 80 80 81 81 84 87 86 86 87 90 96 99 100 100 100 100 99 100 85 39 28 26 21 16 14 14 16 15 15 14 14 15

GFSMW_850_rhum_102.txt.gz
RH
45 51 74 75 76 77 78 79 82 79 79 75 88 90 84 89 90 86 88 85 81 82 78 70 67 71 71 72 69 71 71 70 70 75 74 67 65 66 68 77 80 92 94
54 45 46 58 75 75 76 79 79 80 79 72 78 84 89 88 86 86 88 86 86 84 84 84 81 74 77 80 84 80 73 73 80 85 83 82 70 66 72 80 89 93 93
48 47 46 43 54 64 74 82 77 81 79 75 78 80 89 89 87 83 84 86 89 90 87 95 94 90 79 64 70 73 73 80 83 88 95 91 87 83 81 77 91 95 89
38 44 42 43 48 45 53 65 68 70 80 84 80 74 72 79 80 84 88 89 90 91 96 96 90 87 92 76 77 79 74 80 79 93 97 96 93 96 91 90 82 97 96
32 32 42 42 40 42 43 52 67 65 68 76 78 75 77 77 78 86 89 89 97 100 99 95 96 100 96 96 97 89 85 84 80 79 87 86 88 83 90 97 91 94 94
31 30 33 42 42 44 47 52 57 68 76 74 76 78 78 79 80 76 82 94 94 92 88 89 81 77 95 98 90 88 87 86 82 80 77 84 88 73 75 86 91 97 95
32 30 35 46 48 47 46 49 50 65 64 72 75 77 80 83 81 77 78 78 72 71 70 71 70 61 66 67 84 85 77 76 71 65 75 74 65 65 62 77 82 89 96
32 31 30 41 50 51 48 47 54 58 62 71 73 78 80 79 72 70 72 73 71 69 71 76 76 78 79 75 81 81 90 82 81 76 60 59 68 67 75 71 85 93 100
32 31 31 32 43 45 47 50 49 52 57 61 74 79 74 71 70 69 66 64 63 62 58 61 62 62 64 59 56 63 58 57 56 75 75 75 70 84 92 91 89 88 99
30 30 31 33 38 41 44 48 48 58 56 68 72 69 57 53 55 57 60 62 64 61 58 62 68 69 68 64 68 76 61 46 39 39 41 48 58 79 93 82 85 87 95
30 31 32 36 42 45 47 47 48 54 66 74 71 66 64 61 63 61 60 60 63 64 68 73 76 77 76 61 46 38 38 39 40 40 39 44 72 83 92 88 96 94 93
37 34 31 35 47 50 48 48 46 48 51 49 48 50 56 58 61 69 62 50 48 44 40 46 44 41 42 42 45 45 46 47 49 51 50 51 70 84 87 91 92 99 99
38 36 44 52 53 50 50 50 50 47 45 43 43 43 47 53 48 48 45 48 45 44 44 44 47 51 51 50 50 52 53 53 54 61 65 72 82 92 92 89 99 98 99
47 43 37 39 51 52 53 53 51 48 48 50 50 50 50 51 50 50 51 52 51 46 43 44 47 49 48 49 49 50 50 56 53 62 98 99 99 100 100 100 100 99 99
54 53 53 52 56 58 59 57 56 56 57 58 60 59 58 60 58 56 54 52 51 48 48 50 52 54 55 56 56 57 58 58 68 63 82 99 98 99 98 98 98 100 98
55 57 61 61 58 58 57 60 62 62 63 65 65 66 64 58 54 55 56 56 53 52 53 54 56 58 59 58 58 58 61 65 67 72 84 97 99 98 97 97 97 97 100
55 59 61 62 61 62 64 61 59 60 61 62 62 60 58 58 60 59 58 56 57 57 58 60 61 62 62 62 61 60 60 67 72 76 86 91 98 100 100 98 97 93 82
57 61 63 64 65 67 69 69 67 66 64 63 63 63 62 62 60 60 60 61 61 63 65 67 67 67 68 68 66 64 62 72 81 89 94 98 98 97 96 95 96 99 97
50 57 62 64 66 67 66 67 68 67 65 65 65 64 63 63 62 63 64 66 68 70 71 72 72 74 76 76 74 68 66 83 98 100 100 100 100 100 100 100 100 97 97
55 51 61 66 66 66 68 69 68 67 64 65 66 66 66 66 67 69 70 70 72 74 74 74 75 76 78 82 78 74 76 94 99 99 100 99 99 100 100 98 98 90 83
60 60 61 68 68 67 67 69 70 67 68 71 71 71 71 72 74 74 74 76 77 77 78 77 78 79 82 88 91 87 97 100 99 100 100 100 99 100 99 96 84 48 25
74 81 72 70 71 71 74 75 74 74 74 74 74 75 76 76 78 77 77 78 78 78 77 79 81 86 96 98 100 100 100 100 99 100 100 100 100 88 62 27 20 17 16
72 78 83 80 78 78 79 79 81 81 79 79 79 80 81 80 80 80 80 79 79 77 78 82 85 95 100 98 98 99 100 99 99 98 84 64 42 26 24 18 17 15 13
76 74 74 73 74 79 83 85 85 84 83 83 84 85 85 85 84 81 81 81 80 81 83 87 89 93 99 99 99 99 100 99 97 50 26 26 27 24 23 22 18 15 14
77 77 77 78 77 76 76 77 80 83 84 85 86 86 86 84 83 83 85 84 84 85 87 88 94 99 98 99 100 100 100 99 48 33 22 18 18 21 19 20 22 14 14
76 74 72 73 76 79 82 83 83 84 85 82 82 83 84 84 86 88 89 89 93 94 94 92 96 100 99 99 99 99 100 90 42 31 19 18 17 18 19 20 21 17 16

GFSMW_850_rhum_105.txt.gz
RH
63 69 73 68 80 83 86 79 81 83 88 84 85 86 84 87 84 87 85 85 78 72 65 58 63 71 76 82 84 82 80 74 72 74 70 69 69 67 71 76 79 85 91
58 66 71 76 67 76 81 81 80 76 79 82 88 82 83 85 84 86 83 87 88 79 80 80 80 78 77 79 79 74 67 66 74 79 80 78 71 72 71 75 79 87 92
56 58 64 70 77 77 80 81 79 76 79 77 80 71 79 85 79 84 86 86 87 84 79 81 86 86 91 86 85 86 90 71 81 86 93 93 87 83 82 82 80 84 82
55 51 55 60 66 66 72 77 76 78 75 74 72 72 72 76 53 75 76 87 86 85 85 87 88 92 81 83 82 90 94 82 84 88 88 85 89 87 91 88 85 86 83
52 47 46 52 45 55 66 68 71 74 77 73 76 76 75 76 73 81 91 90 86 87 90 96 86 78 78 83 84 80 100 96 93 92 97 94 98 98 98 92 86 90 92
47 43 37 47 44 48 50 57 62 67 73 77 78 74 78 78 78 85 92 85 77 80 81 88 75 78 79 73 84 87 65 80 80 91 96 94 91 93 98 92 78 75 85
49 36 34 32 42 47 47 48 53 56 66 68 74 77 83 81 75 75 71 70 69 66 66 68 69 75 80 88 97 92 84 84 80 80 84 80 79 84 75 91 98 79 85
38 35 30 29 33 44 52 50 49 52 58 65 64 66 73 73 74 75 70 69 68 68 70 70 75 86 89 87 86 90 86 84 90 98 80 80 84 72 70 73 81 86 94
34 35 31 31 37 43 49 47 48 50 53 60 64 68 68 69 71 73 70 69 69 68 66 64 76 82 73 72 78 75 68 63 70 73 76 77 76 72 79 84 87 90 100
36 34 32 31 32 42 47 51 49 50 51 53 58 59 67 75 79 74 72 71 67 60 63 64 62 65 71 77 76 71 71 77 69 59 51 49 47 48 73 100 100 99 100
35 33 32 32 31 35 48 52 56 55 52 60 62 73 81 82 68 68 68 68 64 64 64 67 68 66 73 77 74 67 52 43 42 42 45 47 48 45 56 98 98 100 100
36 31 32 32 33 36 50 58 50 47 52 54 63 74 78 69 64 65 66 67 67 70 70 58 52 49 46 43 42 42 45 49 52 51 51 57 60 61 93 92 97 100 100
41 41 33 33 34 40 50 51 50 48 48 52 63 74 78 78 77 72 67 74 76 62 50 46 46 44 44 46 48 49 49 49 49 52 55 60 64 76 95 100 99 96 100
43 42 48 49 49 50 51 52 49 48 48 50 51 51 53 55 58 65 69 62 51 50 51 51 50 49 49 49 50 52 53 54 55 56 57 62 76 93 98 100 98 99 100
51 47 44 47 59 60 59 57 56 53 51 49 50 52 52 54 57 54 53 54 54 53 52 52 52 53 53 54 55 56 57 57 58 60 63 66 74 92 96 98 100 100 100
59 57 58 53 56 63 62 61 59 56 56 58 61 62 61 60 60 63 61 56 52 53 54 56 57 58 59 58 58 58 59 60 58 58 64 73 80 99 98 96 94 98 99
59 61 60 60 60 60 62 63 64 63 64 64 66 69 69 69 66 58 56 57 56 57 59 60 61 62 63 62 61 62 64 65 62 60 66 78 89 100 99 98 99 98 98
54 61 64 63 62 63 65 67 67 65 66 68 65 62 61 60 59 59 59 60 61 62 63 65 66 67 66 66 66 68 68 69 65 63 75 98 100 100 100 100 100 95 89
49 52 61 65 66 67 71 72 68 68 66 63 63 63 64 64 62 62 63 64 65 67 69 70 70 70 70 71 70 70 73 74 70 72 95 99 99 99 99 99 100 100 100
56 49 52 63 67 68 68 68 67 65 63 64 65 66 65 64 65 66 67 70 71 72 72 73 74 73 73 73 74 75 78 80 78 90 100 100 99 100 99 100 100 100 99
60 58 56 64 68 69 69 68 69 68 72 70 69 69 70 70 70 70 72 73 74 74 76 75 75 74 76 78 81 86 87 95 95 98 100 100 100 100 100 100 100 96 80
80 82 73 71 71 71 72 73 74 76 75 74 73 73 74 74 75 76 77 78 79 78 77 75 74 76 80 86 98 99 99 99 99 98 99 99 99 99 99 97 68 53 42
74 83 85 78 75 74 75 77 79 80 79 78 78 78 79 81 81 81 82 82 81 78 75 74 74 77 85 90 97 96 98 100 98 96 99 97 97 88 66 43 30 26 21
78 75 75 78 82 83 82 81 81 82 84 84 82 83 84 84 85 87 86 84 81 81 78 78 79 82 85 90 94 98 98 99 98 97 98 65 38 33 32 32 28 23 19
78 79 79 77 76 76 77 78 80 82 83 85 87 88 88 89 90 88 86 83 85 86 85 87 86 86 86 94 100 100 100 100 99 100 72 35 25 20 22 25 28 26 27
75 73 71 71 72 75 78 80 81 81 81 81 82 84 85 85 86 86 85 86 91 92 94 95 94 90 90 97 100 100 100 100 99 99 63 34 28 21 20 24 29 28 27

GFSMW_850_rhum_108.txt.gz
RH
84 76 72 89 87 84 80 72 69 74 88 88 94 93 84 80 80 80 80 78 73 65 58 56 58 64 63 66 75 83 79 77 79 78 70 62 71 67 63 66 72 77 82
71 80 75 80 80 82 95 96 96 85 89 85 87 84 82 82 91 86 86 85 82 78 75 74 69 68 72 76 81 85 84 85 84 89 88 74 77 74 72 72 73 75 80
66 72 80 82 79 79 84 88 97 91 83 80 82 82 79 80 90 84 83 78 76 87 80 86 84 84 86 86 88 87 87 87 88 94 99 89 88 86 78 74 77 77 75
60 58 63 77 71 68 78 72 77 98 91 86 86 80 85 79 77 71 71 67 64 77 83 87 91 88 83 88 98 98 95 81 79 96 91 93 94 98 92 86 86 85 85
56 51 51 68 76 74 76 80 82 99 99 94 86 61 66 78 82 78 71 69 70 76 86 97 100 100 90 86 90 86 80 87 85 78 69 87 95 100 100 100 91 88 89
52 46 43 47 68 73 67 64 82 79 91 90 93 94 83 80 89 77 73 74 65 80 85 82 83 75 75 93 92 90 87 91 89 93 96 98 94 88 94 97 97 85 83
48 39 35 40 48 63 76 79 84 84 79 83 87 87 82 83 83 78 73 73 74 71 75 77 76 79 75 78 79 81 87 94 90 95 94 93 94 92 94 94 87 80 81
48 36 33 33 38 46 50 56 58 62 66 70 70 64 73 71 70 73 72 73 72 75 70 68 67 63 73 81 83 82 97 97 99 95 97 98 89 88 90 93 90 86 89
51 38 35 33 33 34 44 49 49 54 56 60 59 62 62 70 67 72 72 69 68 71 71 69 64 74 82 75 67 71 84 84 72 72 82 81 80 82 84 97 100 99 100
41 40 36 32 33 38 44 49 45 51 53 57 59 60 67 69 72 75 76 73 74 75 70 65 65 62 61 65 75 81 82 81 84 74 49 47 49 48 50 53 64 91 96
39 37 37 36 32 35 47 50 49 48 50 52 53 60 60 66 73 76 77 75 73 71 64 63 62 66 71 71 71 69 59 50 46 44 44 46 50 52 54 55 63 73 99
36 34 36 35 34 31 40 53 53 52 53 53 55 56 66 75 76 79 74 70 68 65 66 67 65 56 49 44 44 44 44 46 47 48 49 50 53 59 64 66 98 100 99
41 40 35 35 33 34 39 52 52 55 57 57 55 56 75 80 80 73 69 71 70 70 75 73 50 46 47 48 48 48 48 48 48 50 51 51 53 54 58 68 92 98 100
49 45 49 43 40 40 47 57 58 54 54 55 55 60 72 80 80 82 80 76 75 80 62 50 50 51 50 49 50 52 54 54 54 54 53 54 57 61 65 82 96 100 99
50 49 48 54 55 56 55 58 57 55 53 53 53 56 58 64 68 66 69 71 59 53 53 53 51 50 51 53 55 56 57 57 57 58 58 58 59 62 70 85 94 95 100
58 55 57 58 62 68 69 66 61 59 58 55 53 52 54 56 60 62 58 56 56 57 54 52 53 55 56 57 58 60 60 61 62 64 64 62 62 64 77 99 99 97 94
62 61 59 62 67 67 67 66 64 61 59 60 62 63 64 63 62 63 64 64 58 55 54 56 58 61 63 64 65 65 67 67 66 66 66 63 62 65 85 100 99 98 98
60 64 62 62 62 65 66 65 65 67 67 65 65 68 72 72 71 69 62 59 58 58 61 62 65 67 68 68 69 69 71 70 69 70 70 66 65 89 98 97 98 97 99
59 56 59 65 66 67 67 65 66 66 65 65 67 67 67 67 66 65 63 62 63 64 68 69 69 70 72 73 73 70 70 70 72 73 73 70 82 100 95 93 97 99 98
58 56 54 63 68 69 70 70 68 66 67 66 67 67 69 70 68 65 66 67 68 70 71 71 72 72 72 71 70 71 73 76 75 80 80 89 98 100 98 93 98 100 100
67 68 63 66 70 73 73 73 73 73 73 73 73 71 69 69 70 69 69 69 71 73 73 73 71 68 69 72 76 79 79 89 92 95 91 95 99 99 100 96 99 99 98
85 85 80 77 75 75 75 76 78 77 76 76 77 77 77 75 73 74 74 74 74 74 74 73 68 66 66 70 81 89 98 98 97 98 98 92 94 97 99 97 98 93 82
76 85 88 82 77 76 77 78 79 80 79 78 77 78 76 77 79 78 77 76 76 78 76 68 63 61 63 70 78 87 89 92 94 96 97 95 94 94 94 86 66 41 32
81 78 78 78 83 83 81 81 82 82 82 84 83 82 83 83 81 81 80 82 83 82 78 78 77 75 73 74 80 87 96 97 96 94 98 98 93 59 45 42 35 33 30
78 80 80 80 78 77 78 81 83 85 85 86 84 85 87 87 87 87 88 88 86 82 79 83 84 88 88 90 84 86 96 99 100 100 99 97 83 44 28 32 30 31 33
73 71 70 70 72 74 76 79 82 82 82 82 82 84 87 88 88 86 86 85 84 86 91 90 90 92 95 91 85 80 92 100 99 100 98 95 84 46 32 29 26 28 31

GFSMW_850_rhum_111.txt.gz
RH
81 65 77 87 82 81 87 70 52 92 84 78 88 86 72 47 58 52 42 43 50 58 61 59 59 66 70 72 83 89 89 88 84 81 73 73 72 70 76 72 71 74 72
87 76 70 81 90 79 80 61 78 99 99 92 92 87 84 62 60 50 59 67 65 64 60 61 66 70 74 78 85 91 93 89 84 74 71 79 77 78 76 74 74 75 78
82 95 75 68 77 91 79 78 98 99 99 84 84 87 93 94 85 80 83 82 80 78 77 74 72 73 78 82 86 90 94 87 76 81 88 91 83 82 84 80 76 73 76
78 87 76 78 79 76 86 99 98 98 98 98 78 82 84 89 84 77 76 86 84 78 84 87 87 88 91 98 94 94 92 78 70 78 86 95 87 93 94 87 92 91 89
69 77 84 77 83 89 87 98 99 76 91 99 86 73 72 69 75 80 82 77 76 75 90 79 95 92 93 76 87 90 82 85 83 85 88 89 92 93 99 99 100 98 94
65 59 68 74 79 82 86 88 93 83 72 89 97 92 86 80 77 80 71 67 68 76 82 76 99 86 85 76 81 87 98 93 97 96 95 97 100 100 99 99 90 89 88
64 47 50 64 61 71 80 80 86 90 91 80 74 85 85 93 80 76 62 64 72 76 72 81 87 83 84 85 88 90 86 86 95 94 94 95 94 99 98 95 97 94 86
61 50 41 41 62 72 75 77 84 80 80 82 83 100 99 89 91 92 74 88 85 84 83 83 90 88 77 78 81 77 78 89 89 90 89 82 79 89 93 95 94 97 99
56 42 39 39 44 58 61 56 59 68 73 78 80 89 81 83 88 86 87 87 78 76 78 79 72 68 74 72 66 66 70 75 78 68 67 75 77 66 70 80 93 98 99
59 54 39 38 45 49 64 66 63 64 67 72 73 75 77 78 76 76 74 72 70 71 73 70 67 67 65 65 71 79 82 82 83 82 70 46 45 46 48 51 52 59 91
62 53 45 38 42 56 60 62 55 58 58 61 64 63 65 66 69 72 78 75 76 76 73 68 66 66 66 64 60 57 54 49 45 43 44 47 48 47 48 53 58 64 82
60 50 49 39 39 49 62 59 57 55 52 54 56 59 61 66 72 80 81 79 78 77 70 67 66 66 54 43 42 43 42 44 46 47 47 46 48 50 51 53 54 60 97
56 50 50 47 36 38 56 64 59 57 56 57 57 60 60 70 79 87 87 80 77 71 67 66 72 55 45 46 46 45 45 46 47 49 50 50 49 50 53 55 58 64 92
61 59 58 46 42 39 45 60 60 53 57 61 59 56 62 77 84 84 76 75 75 72 73 79 59 49 50 49 46 45 49 50 52 52 53 53 54 55 55 55 58 67 81
63 65 65 66 54 52 54 65 66 63 58 60 63 59 65 76 79 80 82 82 80 77 74 54 52 53 50 47 48 51 56 57 57 57 57 59 59 60 59 59 62 70 86
68 67 69 72 71 68 63 63 63 61 60 58 57 58 59 62 66 67 66 70 70 59 54 56 54 52 51 52 55 57 60 60 61 62 63 64 64 63 62 59 60 82 97
63 68 68 68 75 75 72 69 64 61 58 57 58 58 58 57 59 60 61 59 60 61 59 57 57 55 55 57 60 63 65 67 67 66 64 66 68 66 62 62 80 98 100
56 55 63 70 68 71 73 72 70 68 67 64 61 61 61 62 65 65 66 66 65 62 60 59 57 60 64 65 66 68 69 68 67 66 66 66 68 71 66 77 87 94 98
63 57 52 60 67 70 70 70 71 73 75 76 76 75 74 72 72 72 71 66 62 60 62 64 68 68 69 70 68 66 67 68 70 70 69 69 71 74 72 87 92 92 93
67 61 54 53 67 69 72 74 74 73 74 74 74 73 73 72 70 69 67 66 65 68 69 71 71 72 68 65 65 66 71 74 75 77 78 82 82 99 99 100 95 96 98
72 79 74 66 71 73 75 76 78 75 73 73 74 74 74 74 72 70 68 67 68 70 73 74 74 68 66 64 65 69 74 79 84 91 95 96 93 96 98 98 97 96 96
79 86 82 79 77 78 78 78 78 76 76 74 72 72 74 73 71 70 72 72 74 76 75 74 73 69 64 62 63 67 72 78 82 90 95 97 99 93 93 96 97 97 93
75 83 89 84 80 78 80 82 81 81 80 79 79 79 78 77 77 77 77 76 76 76 79 80 76 76 71 69 62 63 68 76 80 82 85 90 98 93 92 91 88 67 52
78 77 78 82 87 86 86 86 85 85 84 84 84 83 81 82 81 82 82 84 85 85 83 83 80 78 78 81 79 75 79 82 88 95 97 92 96 97 74 49 51 45 35
78 78 79 80 81 82 84 88 91 93 95 96 98 97 97 97 94 94 92 89 88 90 91 87 82 85 89 89 88 84 77 76 81 90 98 100 100 100 80 43 30 39 30
73 70 69 69 70 73 76 78 82 85 87 90 91 93 96 100 97 95 98 95 96 96 92 88 90 94 92 91 93 93 77 78 93 96 100 100 100 100 85 50 36 33 24

GFSMW_850_rhum_114.txt.gz
RH
68 68 86 80 100 90 98 100 90 88 97 86 78 82 79 81 95 96 85 57 51 51 57 65 74 77 76 78 84 88 88 86 79 74 82 64 64 69 73 75 75 77 73
69 63 91 99 82 97 95 82 99 92 95 86 74 79 87 84 67 67 64 63 66 70 68 70 72 72 76 84 85 88 87 86 71 76 87 86 90 75 71 70 80 90 80
68 63 86 99 79 93 94 93 92 100 98 91 72 86 91 81 61 59 54 53 49 56 66 71 74 72 78 81 81 85 89 82 74 78 88 92 84 92 82 80 78 77 82
68 72 86 100 93 95 100 99 99 99 99 99 79 74 79 79 50 56 50 52 62 67 70 72 77 77 80 84 84 84 81 74 72 86 81 84 94 98 91 91 85 85 95
82 79 85 99 85 94 92 100 96 97 99 81 95 81 95 80 71 67 61 73 80 82 80 81 79 81 84 87 80 71 60 70 82 84 86 89 88 89 95 98 100 94 82
82 85 94 96 84 93 74 90 100 99 98 100 96 94 96 87 77 76 76 82 80 75 84 94 92 94 96 93 86 79 77 75 87 86 92 92 90 86 91 99 95 88 81
93 71 91 86 86 92 79 72 78 77 85 97 98 100 100 90 80 82 78 82 85 81 76 84 84 97 97 80 89 84 81 93 96 99 98 92 85 88 87 94 97 95 90
80 63 77 84 75 85 89 86 78 90 82 72 93 97 97 95 96 88 89 94 93 86 80 78 84 90 90 92 92 89 92 91 94 96 95 96 86 80 95 100 99 100 93
79 66 54 76 90 92 86 90 91 86 88 89 95 84 79 87 99 89 82 84 94 86 81 73 89 98 98 91 83 79 75 80 81 85 87 75 68 78 65 68 83 98 96
67 53 57 58 87 81 82 74 91 93 90 96 96 79 71 90 76 89 82 87 84 74 79 97 100 96 78 78 69 64 66 72 74 74 74 77 56 45 46 47 50 57 76
80 64 47 59 64 82 78 69 80 88 86 88 79 76 72 86 83 82 91 81 84 85 81 99 83 71 65 61 62 68 74 78 74 61 45 44 45 46 46 47 49 54 66
74 69 60 49 76 73 68 67 67 67 68 70 79 80 78 81 86 83 80 80 83 83 82 72 66 66 65 66 64 57 49 46 47 48 48 46 47 48 46 47 50 52 55
68 55 55 58 50 77 77 67 65 65 68 68 70 72 73 76 78 78 81 84 83 80 80 69 67 68 68 55 47 46 46 47 46 46 46 45 48 48 48 50 53 54 56
77 65 48 57 60 58 73 71 64 60 60 62 63 61 60 65 69 86 87 87 83 79 72 71 73 76 53 48 49 48 45 45 46 47 49 49 50 52 55 56 57 60 61
80 78 75 61 58 64 76 74 71 61 59 60 61 61 61 65 72 93 97 89 87 82 79 80 79 57 51 51 49 47 49 51 52 53 54 54 56 60 60 61 60 62 63
78 75 76 78 76 71 69 77 78 78 74 65 61 63 70 76 91 90 85 85 84 82 82 76 58 53 53 50 50 53 55 58 60 60 60 61 63 64 64 64 61 58 57
76 69 74 70 76 78 74 69 69 72 72 75 81 85 89 90 90 91 90 85 80 75 66 57 56 55 53 55 59 61 63 64 64 64 63 62 62 66 68 65 63 64 67
73 67 61 69 66 71 73 72 69 68 68 67 63 65 70 74 72 72 72 69 64 60 59 60 57 58 59 62 65 67 68 66 64 64 63 65 66 69 65 64 67 75 82
72 67 63 64 66 65 68 71 72 71 70 70 71 71 68 68 68 66 65 65 66 65 62 60 60 62 64 66 68 66 64 63 64 65 68 68 68 70 66 69 78 86 86
86 75 66 66 74 73 71 68 71 76 77 75 75 76 78 78 77 75 74 72 69 65 64 65 67 70 71 69 64 63 62 64 69 73 76 78 82 81 79 95 97 96 92
82 85 81 77 79 80 80 80 77 73 71 73 77 79 79 78 77 75 73 71 69 69 71 74 75 76 71 65 62 61 62 66 70 75 82 91 96 96 92 95 97 98 95
77 86 84 86 86 86 88 86 83 81 77 74 72 73 72 73 75 75 73 70 71 72 72 73 73 73 67 63 62 61 64 66 73 80 83 84 90 93 94 93 92 91 92
79 79 85 86 85 87 89 89 87 88 87 86 85 85 84 80 77 75 74 74 75 76 78 78 78 79 74 72 72 71 69 74 78 78 83 93 82 85 93 90 87 84 79
76 81 82 81 86 88 87 88 88 89 89 89 89 89 89 89 88 87 86 86 84 84 84 85 86 85 79 79 79 82 83 83 78 76 81 85 96 99 100 90 63 51 55
70 68 68 70 77 83 85 87 92 97 94 98 96 97 96 95 95 96 96 96 95 95 94 92 91 89 85 85 88 93 91 86 84 80 81 88 99 99 99 100 74 42 36
72 69 68 70 70 71 72 73 77 82 85 87 91 96 98 100 100 98 100 100 98 100 100 100 98 95 94 94 94 92 94 94 95 70 84 98 98 99 100 100 86 53 35

GFSMW_850_rhum_117.txt.gz
RH
57 58 64 51 52 86 73 100 94 97 92 91 99 94 86 80 79 77 80 74 82 78 71 79 86 80 73 89 76 77 71 75 73 74 76 82 92 85 75 72 72 85 73
58 58 60 54 72 89 67 100 85 99 92 86 98 96 86 85 76 65 66 50 67 57 60 84 91 91 97 98 86 83 78 80 73 81 87 85 87 86 73 72 73 82 83
57 55 59 56 92 75 72 74 95 99 96 93 100 99 99 98 93 89 87 85 84 72 61 97 98 90 79 92 78 74 77 82 95 94 93 83 82 89 91 80 79 87 82
57 59 60 58 84 80 72 86 83 99 96 97 99 99 97 94 94 91 96 95 89 88 78 85 63 62 59 72 74 76 75 85 94 89 84 82 79 91 90 92 88 85 86
59 67 73 66 98 83 73 85 99 98 90 97 98 97 98 83 74 73 72 68 66 56 54 61 67 71 76 80 82 82 83 86 90 79 87 81 84 89 97 98 94 92 86
80 84 78 78 92 83 64 99 98 99 96 89 94 99 99 98 85 82 94 79 64 54 71 76 74 74 80 82 84 87 81 82 91 81 88 89 97 98 87 88 93 95 90
90 81 76 94 98 87 67 89 97 99 91 79 96 99 99 91 95 60 64 68 71 73 76 80 82 82 85 91 88 70 65 82 85 85 92 95 97 96 98 100 98 99 98
76 69 84 99 92 85 76 75 81 99 93 98 100 99 100 100 100 83 85 80 88 98 94 88 84 79 80 75 68 63 78 98 98 99 100 98 94 89 83 75 91 95 96
80 73 79 100 90 81 86 85 91 91 88 90 81 84 92 88 82 88 84 78 85 98 89 89 84 78 73 75 73 87 97 99 97 92 88 87 87 80 69 75 76 98 97
88 87 96 100 99 88 81 89 89 73 68 93 81 91 86 80 79 79 78 92 81 91 95 92 81 84 74 71 91 98 88 90 73 73 76 79 72 72 61 42 47 52 68
88 90 100 100 100 96 96 91 97 100 99 100 95 89 80 87 71 81 84 96 86 82 91 94 92 78 74 90 90 80 68 66 68 74 75 75 62 44 45 45 46 52 72
88 91 100 100 100 80 81 82 99 94 96 88 97 92 89 88 91 100 98 78 81 78 67 80 93 96 91 92 86 70 69 71 68 61 50 42 43 47 49 50 51 50 57
98 86 92 100 100 99 82 80 86 82 81 84 84 78 76 92 85 82 80 91 83 87 89 98 100 98 90 90 73 70 63 52 43 43 44 45 47 48 48 49 51 52 54
96 91 86 80 99 99 100 100 76 74 72 72 80 75 82 85 88 83 93 96 98 98 100 100 91 89 80 74 71 53 45 45 46 45 45 48 51 52 52 54 56 55 56
88 84 85 90 78 89 99 97 84 71 67 64 66 69 83 80 79 95 95 96 100 100 82 78 74 73 72 69 53 47 49 48 47 49 52 53 54 57 58 59 61 59 58
75 82 86 78 82 67 78 98 100 98 93 77 70 67 72 82 82 89 97 99 96 89 86 76 75 75 76 57 50 51 49 49 52 53 55 57 58 59 60 59 61 62 63
77 79 84 86 86 78 75 78 91 99 91 86 81 84 78 79 91 99 100 100 96 88 81 79 80 79 61 54 53 53 55 56 58 60 61 62 61 60 61 62 60 60 61
85 85 85 82 82 83 78 74 74 84 96 100 99 98 90 84 90 98 98 93 90 89 87 83 73 60 57 56 58 61 62 64 65 64 63 63 64 64 66 68 67 66 68
92 92 87 83 77 74 76 78 76 73 71 74 82 94 98 100 99 97 96 94 91 84 76 66 62 60 58 60 64 66 68 65 62 61 65 68 72 72 70 69 70 69 72
97 90 89 94 89 81 79 79 78 81 81 79 76 75 76 76 75 78 78 75 71 66 65 65 64 62 62 66 68 68 62 60 61 65 68 70 72 76 80 80 81 82 80
87 97 88 84 88 90 95 87 83 76 79 80 80 82 81 79 77 75 72 71 70 70 69 67 65 65 68 69 69 63 60 61 64 66 69 74 77 78 81 85 83 84 89
77 84 84 85 86 83 85 84 83 87 82 78 78 81 83 83 83 83 81 79 76 73 71 72 71 72 72 71 65 63 64 63 64 68 74 79 84 85 82 82 80 81 84
75 79 82 86 87 85 85 83 83 83 87 88 87 84 82 81 82 82 82 80 77 76 75 74 74 75 76 74 70 69 69 71 72 73 74 73 75 81 84 83 86 83 78
66 70 74 80 81 86 92 93 90 87 86 86 87 92 92 89 86 85 84 86 86 88 91 84 84 86 84 82 76 73 71 71 72 74 71 71 75 81 92 95 98 88 69
67 65 64 64 65 68 72 76 82 88 94 96 97 95 96 98 96 97 96 94 93 92 93 93 92 92 88 86 81 78 79 82 80 80 76 76 80 89 99 99 99 97 78
76 76 77 86 88 88 88 88 83 76 77 78 81 88 94 98 99 97 98 99 100 100 100 100 100 100 99 96 93 92 94 94 94 94 94 84 89 93 100 99 98 99 90

GFSMW_850_rhum_120.txt.gz
RH
30 36 55 58 54 48 45 50 79 100 90 82 77 75 77 83 84 82 91 84 93 92 93 89 79 73 57 49 44 50 63 79 88 83 78 84 82 75 76 76 80 85 86
34 47 57 57 55 46 44 54 74 100 91 92 79 75 77 84 86 85 93 96 94 91 78 78 75 62 54 48 53 60 65 75 81 80 92 86 90 90 85 78 74 76 83
53 56 57 62 58 43 39 59 78 99 100 90 81 75 79 84 88 94 86 94 90 75 80 77 61 56 57 54 61 74 77 80 97 97 85 82 85 94 90 87 82 81 84
55 55 55 62 60 47 48 72 88 89 99 89 86 78 78 85 82 83 82 85 83 80 80 71 67 49 64 66 74 83 86 89 99 99 88 80 77 76 95 93 85 83 79
56 56 56 61 67 67 77 73 82 95 99 86 90 95 93 85 73 73 78 77 86 78 70 74 54 53 69 73 80 75 73 84 91 93 82 81 82 80 97 95 92 80 90
63 60 61 71 86 77 81 82 73 65 82 100 85 82 91 90 86 87 85 90 85 88 88 77 64 72 72 71 70 72 78 81 79 87 83 81 92 92 95 91 94 97 88
80 76 80 77 99 85 82 90 77 94 80 79 97 78 85 62 70 81 91 93 95 93 87 77 70 73 71 73 73 80 74 57 57 73 73 85 96 99 100 99 99 93 90
77 78 80 81 100 81 96 99 92 96 100 86 98 92 84 71 77 86 93 90 85 69 60 65 78 77 80 82 77 69 63 62 59 69 75 98 99 100 100 98 79 82 84
86 77 79 87 100 83 78 77 69 72 81 98 95 97 99 89 99 95 88 89 72 59 71 85 87 88 87 80 69 66 64 69 57 76 93 99 98 96 99 81 74 84 78
99 95 79 99 97 77 79 70 60 62 77 97 96 94 98 97 90 98 97 94 92 89 91 93 90 90 81 76 74 64 63 62 81 79 95 84 95 91 74 70 52 44 54
100 100 100 98 98 76 68 87 77 76 78 92 92 92 81 74 78 98 92 99 91 91 92 89 88 86 84 86 82 56 67 90 93 88 83 77 77 76 65 43 45 46 51
99 99 100 100 100 99 100 95 97 100 99 98 92 97 88 79 97 98 98 94 90 93 86 91 92 93 88 88 83 68 65 83 85 74 77 79 74 49 43 43 44 47 52
100 100 100 100 100 100 100 99 98 90 94 100 98 94 83 73 88 90 85 92 90 96 100 100 94 88 79 82 77 90 98 93 81 82 82 58 44 44 44 47 48 50 54
100 98 97 100 100 100 100 100 85 81 88 91 87 87 82 88 96 96 96 99 98 99 98 98 94 84 78 89 88 94 98 81 76 61 48 44 44 44 46 49 52 54 57
99 100 98 95 100 100 100 93 91 84 80 90 88 85 85 89 96 98 100 93 99 96 98 85 78 84 96 100 98 94 82 76 64 51 50 46 48 50 52 56 59 60 60
90 92 97 91 89 90 100 100 93 76 78 83 99 96 95 92 97 100 95 94 88 85 90 96 100 99 95 94 88 79 77 57 51 50 47 49 53 56 58 61 62 60 59
86 88 89 94 93 90 91 98 92 85 81 83 91 99 100 99 98 99 99 98 99 100 100 100 97 88 93 82 82 75 53 52 50 50 51 54 57 58 60 59 58 59 60
89 88 85 81 81 85 82 83 96 100 98 100 100 100 100 100 100 100 99 98 99 99 100 99 89 86 82 84 72 57 55 53 53 56 60 62 62 61 62 64 65 65 66
91 94 95 86 80 79 82 83 81 79 82 98 98 100 100 100 100 100 100 99 100 100 99 95 92 88 83 69 59 57 55 56 61 64 63 62 62 63 66 68 69 70 72
85 76 78 81 78 84 79 72 75 80 82 81 80 84 93 99 98 99 100 100 100 100 98 94 86 75 65 60 59 60 62 66 66 62 60 58 62 64 63 64 72 78 81
88 88 83 80 80 80 76 72 74 71 75 78 81 83 82 80 80 81 84 84 84 82 80 74 70 65 64 63 65 66 68 66 62 59 58 63 67 68 71 75 77 80 82
80 82 80 81 83 80 79 77 74 77 76 74 74 74 77 81 84 84 82 80 78 78 76 74 73 71 68 68 70 72 71 65 62 61 63 66 71 73 75 83 84 84 85
81 77 80 87 88 86 84 84 86 86 86 83 80 79 78 80 80 82 82 82 83 82 82 80 77 75 76 75 77 78 72 69 68 68 69 72 77 76 77 82 85 86 88
71 80 73 69 71 75 80 86 89 88 88 89 90 92 92 86 84 86 86 86 86 85 85 86 85 85 86 85 84 82 79 75 72 72 73 75 78 75 73 76 88 96 100
71 69 69 75 77 77 75 71 68 68 81 84 92 96 95 94 92 97 97 97 96 92 92 97 94 94 93 90 94 92 87 82 78 80 82 82 80 76 74 80 90 98 99
77 77 81 87 83 85 83 79 77 79 84 82 70 72 84 95 99 100 100 99 100 100 100 99 99 100 100 100 100 100 98 98 99 98 91 87 87 84 79 87 92 100 99

GFSMW_850_rhum_123.txt.gz
RH
36 40 35 31 44 46 49 49 49 45 63 88 99 99 100 99 100 88 79 77 84 79 86 88 80 82 92 70 56 54 55 73 85 85 81 81 79 86 81 76 80 79 81
40 43 34 33 47 52 56 55 57 48 48 84 87 96 85 100 90 86 71 78 84 80 82 79 80 91 84 67 49 48 59 88 84 85 84 86 93 95 91 85 80 77 81
45 37 34 33 43 43 57 52 51 45 43 98 100 99 94 98 89 86 83 78 82 80 90 90 92 90 72 46 44 50 61 68 81 87 80 87 87 93 86 88 83 80 79
51 50 39 44 44 49 65 57 51 59 58 95 100 94 94 95 90 89 80 71 80 82 91 92 90 75 52 47 48 58 61 71 80 98 86 79 75 76 83 84 84 81 80
50 49 51 50 54 60 68 52 56 59 64 76 100 88 90 81 79 81 87 77 83 92 93 90 73 57 55 58 58 58 70 74 88 98 94 83 78 72 80 83 86 86 73
53 53 55 54 54 63 69 82 95 78 84 59 99 91 83 82 84 82 87 94 95 95 87 77 65 64 70 68 60 65 71 72 82 90 88 75 78 78 89 90 98 88 77
62 61 57 58 58 66 88 100 87 85 80 81 97 93 80 80 82 85 83 95 94 87 86 79 85 81 73 69 68 72 74 79 85 75 70 70 86 95 92 89 92 93 82
78 73 72 69 64 80 99 94 100 99 96 59 94 99 95 83 68 78 80 77 81 76 75 78 86 70 80 82 78 78 81 86 76 65 67 78 89 96 97 97 96 89 81
82 70 72 72 68 99 99 81 87 86 74 65 66 69 96 93 82 72 64 70 73 77 76 79 91 92 82 80 80 83 82 68 65 78 82 99 85 99 100 100 90 78 82
99 79 72 75 83 100 100 92 85 72 79 77 94 84 76 93 92 80 82 76 74 72 90 94 100 87 84 83 87 84 78 76 71 73 90 76 68 90 99 99 79 70 48
99 76 68 82 99 99 92 80 81 81 66 81 100 88 99 95 93 83 78 83 72 70 81 90 86 88 88 89 82 77 75 63 63 65 65 70 69 79 85 79 70 46 45
100 92 78 100 98 92 87 77 78 72 76 91 97 99 80 92 91 99 96 84 76 79 84 82 94 96 92 91 76 74 72 72 75 76 67 69 78 80 77 63 49 49 46
100 100 100 99 100 97 99 99 100 97 94 100 99 93 81 76 79 92 91 97 92 99 99 100 99 96 90 82 82 82 82 72 76 65 73 75 82 77 60 50 50 51 49
99 100 99 100 100 100 100 99 100 96 99 100 100 95 87 76 90 94 93 100 93 95 100 100 99 95 90 90 94 96 83 90 86 75 79 78 81 60 50 48 49 49 51
99 100 100 100 100 100 100 100 100 100 100 99 99 98 97 89 94 100 95 98 97 96 99 95 99 100 100 100 100 86 97 87 95 98 82 80 57 52 50 51 51 52 55
100 99 95 97 100 100 100 100 100 98 99 100 99 100 100 100 100 100 100 100 100 100 100 92 97 97 100 100 99 83 87 97 100 80 81 59 53 51 53 53 55 56 60
99 100 98 92 86 93 99 100 99 100 100 100 100 100 100 99 99 100 100 99 100 100 100 100 100 100 100 99 100 99 100 99 83 79 57 53 53 54 53 55 59 60 60
100 96 93 90 84 82 83 73 85 92 98 99 99 100 100 100 98 98 98 99 99 100 99 99 100 99 99 100 100 100 93 87 70 56 54 54 54 56 59 60 59 59 60
100 97 92 91 86 82 78 73 73 76 92 99 100 100 100 100 99 99 99 99 99 99 100 100 100 98 100 97 97 96 85 63 57 56 57 59 60 61 59 59 60 63 65
96 96 92 85 82 82 74 68 71 72 73 74 74 79 94 99 97 99 100 100 100 99 98 99 100 100 100 97 98 87 73 66 60 61 62 64 62 58 57 58 57 58 66
90 89 82 83 86 84 76 73 72 73 77 74 72 74 77 78 78 82 85 89 93 96 98 98 95 92 85 76 70 66 65 64 64 65 65 62 58 58 59 59 60 65 69
82 84 77 82 88 85 80 77 76 84 82 80 78 76 75 75 76 80 82 82 82 80 81 82 88 87 87 80 76 75 72 73 72 70 66 63 60 62 65 65 65 68 76
69 72 74 80 80 80 82 81 89 88 87 86 86 85 84 84 84 82 80 80 82 84 85 86 84 82 81 79 80 78 78 79 78 74 71 69 69 69 70 70 69 70 77
62 62 61 62 65 67 67 69 70 76 80 78 79 85 89 91 93 93 93 92 90 88 88 87 87 88 89 86 84 84 86 87 84 78 76 76 75 74 76 74 69 73 86
68 68 67 65 64 65 64 67 70 69 67 72 73 73 78 87 96 98 98 98 98 100 100 100 99 99 99 99 99 99 98 97 96 94 94 89 83 78 78 78 74 82 95
77 74 72 73 73 68 69 66 63 62 61 62 70 75 82 80 75 78 89 99 99 99 99 99 100 100 99 100 100 100 100 100 100 100 100 100 97 96 93 94 85 88 94

GFSMW_850_rhum_126.txt.gz
RH
26 28 31 34 35 40 33 32 34 51 49 41 41 70 80 81 87 99 99 99 78 56 85 77 59 52 60 57 63 72 66 66 77 84 96 91 80 82 80 78 78 79 78
35 28 30 29 35 37 36 32 44 52 47 39 40 47 64 77 87 76 96 100 77 70 90 84 60 61 70 71 85 66 64 68 81 85 86 87 87 89 88 90 88 87 81
40 34 32 38 40 37 36 43 52 45 48 43 47 45 60 62 88 94 97 98 86 77 86 82 69 68 78 82 78 62 55 51 76 85 74 89 88 89 92 92 88 83 83
47 36 36 47 39 36 34 48 46 43 56 49 48 50 48 54 96 85 100 95 90 88 74 79 79 65 78 78 72 60 47 50 62 86 76 78 74 86 85 87 87 87 87
42 43 48 47 45 36 36 43 42 52 65 59 59 56 72 52 98 99 100 96 90 93 74 74 81 77 81 75 74 56 48 55 67 71 74 83 76 72 72 76 86 84 81
56 47 50 49 49 36 33 48 58 60 64 72 68 68 56 77 100 100 99 98 95 87 78 81 79 80 89 88 74 52 52 63 71 76 70 79 77 73 65 74 85 91 78
64 51 51 52 52 54 52 59 62 64 65 77 83 74 63 100 98 91 92 98 91 87 86 82 89 91 90 84 61 56 69 75 78 79 90 88 74 67 72 83 89 88 78
85 69 60 57 57 54 57 62 63 71 85 95 90 83 85 100 99 97 90 89 82 82 84 83 85 90 86 71 59 75 83 87 90 90 93 78 77 76 80 88 89 90 81
88 82 75 65 60 55 61 63 71 96 96 91 82 91 96 100 98 99 88 83 79 80 76 77 88 88 77 64 76 89 88 91 90 93 77 70 78 91 95 98 98 92 78
95 84 71 59 68 66 69 84 89 96 89 93 76 61 68 87 100 91 87 80 86 81 80 89 86 75 72 81 92 93 96 92 94 88 73 77 95 97 87 99 100 88 75
97 88 74 70 68 77 95 97 91 84 88 91 76 73 58 83 89 90 93 85 85 86 84 82 79 77 83 82 91 95 94 96 87 75 78 90 100 78 70 76 84 66 66
97 82 78 79 82 98 95 88 86 88 90 97 91 92 100 97 84 83 94 90 81 82 86 77 76 72 85 82 92 98 98 94 86 78 76 99 93 70 73 71 76 60 43
100 99 88 90 100 99 98 97 98 99 100 98 100 100 92 100 100 92 94 93 82 74 76 80 77 70 68 68 82 92 100 94 83 86 90 96 91 71 74 63 65 49 47
100 100 100 100 100 100 100 100 100 100 100 100 98 96 89 94 96 97 100 92 91 92 92 86 80 71 69 68 81 87 96 87 80 85 84 82 79 75 70 74 56 48 47
100 100 100 100 100 99 100 100 99 100 100 98 100 95 99 100 100 98 100 99 99 99 91 80 86 82 70 74 88 100 88 84 85 93 89 93 95 87 75 64 51 50 50
100 100 100 100 100 100 100 99 100 100 100 100 100 100 89 88 92 94 100 99 95 92 96 100 100 92 85 99 99 100 99 92 98 100 98 94 97 99 77 53 56 57 56
100 100 100 100 100 100 99 98 100 100 100 100 100 100 100 98 100 100 100 100 100 100 97 98 100 98 92 92 96 97 100 100 100 100 98 94 99 80 52 54 56 57 59
95 95 96 92 87 89 98 99 100 100 100 99 99 100 100 100 100 99 100 100 100 100 100 100 100 100 99 100 100 100 100 100 100 100 100 95 81 56 55 56 57 61 62
100 95 86 84 79 77 80 77 78 79 89 98 99 99 99 98 98 97 97 94 96 98 99 100 100 100 91 99 100 100 99 100 99 98 90 70 60 61 62 61 62 62 61
94 89 85 82 78 75 70 63 67 70 76 81 82 82 83 93 99 99 99 97 95 96 98 99 99 99 99 100 99 100 98 99 88 75 69 71 66 65 69 67 61 60 56
88 82 78 77 82 78 70 69 72 72 75 73 72 71 73 76 79 82 81 80 80 86 91 95 94 95 94 95 95 98 98 98 99 84 82 85 81 73 67 63 62 60 61
89 90 87 86 86 84 78 76 76 85 84 82 77 75 73 72 72 70 72 75 80 82 83 82 81 82 89 90 88 87 82 80 79 81 81 78 75 70 66 64 65 64 64
64 62 62 63 68 67 68 67 78 83 73 67 67 75 79 82 84 82 80 79 80 79 78 80 82 85 86 84 84 88 92 97 97 96 95 92 86 77 72 71 73 72 70
66 69 71 69 67 70 69 67 67 64 66 69 69 68 70 73 76 86 91 94 94 93 93 91 90 89 87 88 91 93 94 94 92 92 93 94 92 87 83 82 79 77 75
73 75 76 76 78 82 80 73 67 66 62 59 61 67 72 75 76 83 89 97 99 98 96 95 96 98 99 100 100 99 100 100 100 100 100 100 100 99 95 92 91 89 87
68 72 77 81 79 76 76 76 73 70 67 63 62 64 70 74 80 83 80 81 91 98 98 99 98 96 99 100 98 98 100 99 100 100 100 100 100 100 100 100 100 100 100

GFSMW_850_rhum_129.txt.gz
RH
35 34 31 22 22 25 37 35 32 28 33 49 46 48 52 59 68 100 79 91 87 79 96 90 68 52 36 43 53 62 71 76 78 77 83 92 94 92 84 75 75 76 79
42 39 36 30 24 25 29 33 37 34 32 36 43 49 44 48 58 82 87 84 90 83 92 97 70 59 42 49 56 65 73 77 77 77 85 99 94 88 86 82 79 82 82
56 48 44 38 28 26 27 29 32 35 32 33 46 51 48 46 61 87 91 96 90 98 92 98 78 69 52 46 54 63 65 65 70 72 80 88 82 81 85 88 91 89 82
75 59 51 45 32 24 29 34 36 36 33 33 52 48 44 47 52 78 75 76 91 98 99 98 77 68 66 55 60 63 63 63 60 82 87 74 73 86 90 90 95 91 88
81 78 56 40 30 30 36 46 42 35 32 38 52 44 46 53 40 52 81 78 78 82 94 91 97 86 74 56 71 69 75 67 58 57 78 84 80 79 72 81 88 92 90
77 79 55 43 39 44 47 47 41 36 52 55 48 47 58 61 61 55 80 99 95 81 85 88 90 80 74 65 74 73 79 68 60 58 73 75 74 74 69 67 71 86 88
78 86 63 54 52 51 48 50 37 36 51 51 50 56 62 69 64 60 67 88 86 77 90 98 90 83 94 77 80 79 82 74 57 61 80 81 76 74 72 66 70 83 88
96 89 75 63 56 50 48 53 36 40 46 54 54 59 57 72 87 80 87 86 87 76 85 92 95 81 84 83 78 79 84 75 60 66 79 84 79 84 75 68 73 85 84
96 92 83 74 57 53 50 50 54 55 58 62 60 63 63 93 99 87 91 93 100 84 87 87 95 85 80 85 86 89 90 74 62 76 91 88 87 81 76 75 81 82 82
99 92 88 88 80 69 58 57 56 59 66 63 62 61 69 92 96 99 94 100 99 100 90 83 93 87 80 82 89 92 86 68 75 90 99 85 85 76 77 75 91 86 76
91 77 74 76 75 76 76 70 74 76 72 77 87 87 88 94 87 75 100 99 100 99 91 93 82 81 82 85 90 89 73 72 84 99 100 97 81 75 82 74 99 91 76
99 85 78 76 79 71 77 82 79 78 84 96 100 97 90 79 75 76 100 99 90 84 81 79 76 80 87 84 89 82 68 81 88 100 100 98 80 84 83 76 70 76 64
100 98 94 97 91 79 76 98 98 100 100 100 95 94 95 89 94 100 96 84 85 83 86 80 85 87 83 84 80 70 62 60 73 98 99 81 86 93 94 87 72 70 62
97 91 88 91 97 100 100 100 100 100 100 100 100 100 97 96 96 99 97 93 76 77 71 68 69 73 79 84 73 63 63 68 69 68 79 82 82 84 87 88 82 76 72
99 100 100 100 100 100 100 100 100 99 99 100 100 93 93 100 100 100 100 88 89 88 80 73 74 79 77 75 76 75 70 66 69 69 77 84 78 85 97 92 85 81 73
100 100 100 100 100 100 100 100 100 100 100 100 99 100 98 97 99 100 92 100 98 97 98 100 93 90 90 91 87 85 77 76 77 78 81 86 85 89 98 99 99 94 82
100 100 100 100 100 100 100 100 100 100 99 98 100 100 100 100 100 99 98 100 100 99 98 100 97 98 93 87 89 85 90 90 88 88 94 93 100 100 100 93 100 99 87
98 95 92 91 97 100 100 96 94 93 95 89 81 88 92 92 99 99 99 97 97 97 99 99 100 100 100 98 99 100 100 100 99 99 100 100 100 100 100 100 100 90 69
96 95 90 86 87 86 87 86 91 97 94 97 100 100 100 100 98 90 91 93 94 91 95 98 96 93 98 86 96 94 96 99 100 100 100 100 100 100 100 100 90 80 72
90 85 84 81 77 80 81 73 75 75 78 80 81 88 96 99 100 99 98 98 98 98 99 98 98 98 99 93 89 94 94 96 99 99 100 100 99 98 88 81 74 76 77
92 86 77 83 86 80 75 74 81 85 88 82 80 77 75 74 76 80 80 80 81 85 90 92 93 93 92 92 93 98 98 85 91 92 97 98 100 95 94 100 93 89 90
67 65 63 70 75 73 68 78 79 86 82 80 80 80 82 81 80 78 76 76 75 75 75 78 80 82 82 82 85 90 91 89 91 85 85 88 89 95 100 100 99 93 85
66 65 64 63 63 61 58 58 66 69 65 60 62 66 70 74 77 78 85 89 90 89 88 87 86 86 88 91 90 88 90 92 91 97 99 97 96 95 96 97 100 100 100
73 74 72 69 68 71 67 63 65 64 61 58 56 61 69 72 76 72 69 72 76 86 91 93 93 96 98 98 98 99 100 99 97 95 96 98 99 100 100 100 100 100 100
72 75 76 78 78 73 72 75 75 72 67 65 64 62 66 71 74 76 76 79 84 86 84 89 96 98 95 97 98 97 97 98 100 100 100 100 100 100 100 100 100 100 100
77 80 83 85 85 78 77 80 83 79 76 73 71 69 68 68 66 69 77 79 80 82 84 85 92 97 96 98 96 99 98 98 98 98 99 100 100 100 100 100 100 100 100

GFSMW_850_rhum_132.txt.gz
RH
44 47 43 39 36 34 31 23 24 26 19 20 32 49 42 49 83 99 94 95 89 81 80 90 91 90 72 35 40 49 55 73 82 80 83 81 78 78 81 80 75 75 78
68 66 64 56 46 37 32 23 22 32 25 25 30 52 39 39 58 61 79 99 96 86 80 83 89 94 80 48 40 52 65 81 81 80 81 87 90 92 89 81 76 75 79
75 77 68 61 56 44 36 29 20 28 36 32 33 51 49 45 48 48 74 86 81 80 89 84 88 89 86 66 39 57 64 67 77 80 73 86 88 91 87 80 79 76 83
91 90 77 65 60 42 42 37 22 24 28 32 36 35 50 51 52 45 55 64 80 86 76 84 90 87 98 80 47 57 64 72 72 83 80 70 67 74 80 80 82 87 88
93 96 77 67 67 45 42 30 19 22 28 33 33 35 36 41 50 43 39 57 72 89 78 78 81 86 97 81 67 54 62 70 74 69 67 76 77 75 71 74 78 87 86
86 93 80 75 57 41 36 36 30 25 38 39 35 39 33 37 53 41 44 51 73 85 84 91 95 78 97 94 72 60 60 66 75 75 66 57 75 75 77 72 71 77 81
92 89 93 79 64 45 40 40 38 41 47 38 39 43 37 37 49 34 40 50 72 89 99 99 99 98 94 93 76 75 65 64 77 73 72 63 68 72 72 71 66 68 71
95 83 86 83 75 64 54 54 50 49 48 40 38 42 35 42 59 50 51 55 64 66 99 98 99 94 100 87 85 88 77 71 80 85 78 69 66 80 83 76 73 74 75
94 88 78 77 74 70 65 61 55 55 46 39 44 52 59 55 51 64 59 68 74 78 99 90 97 89 89 92 80 59 55 78 78 87 83 72 66 88 89 82 84 71 77
98 99 89 78 68 65 61 57 58 60 41 36 43 49 50 47 53 59 58 55 78 85 95 99 93 92 87 81 61 46 40 80 79 81 88 73 65 81 86 84 80 77 78
99 99 83 81 80 83 76 68 61 60 59 47 38 44 51 60 61 60 58 60 97 92 98 95 100 99 98 94 85 81 76 89 79 80 87 71 70 84 80 79 71 77 75
100 95 91 90 84 86 85 85 80 78 72 69 70 70 72 73 67 67 77 80 81 89 99 98 96 99 97 90 69 86 79 90 85 77 81 70 82 92 80 81 72 76 72
99 100 89 76 76 81 82 72 76 77 78 77 84 88 95 78 71 79 81 88 99 99 99 100 99 100 100 97 83 93 76 81 79 74 76 66 76 92 68 79 75 78 81
100 100 99 89 86 92 87 79 71 81 76 74 75 80 94 96 94 97 92 92 96 100 100 100 94 97 100 96 93 90 77 66 64 62 63 62 64 65 68 74 72 76 83
100 100 100 100 100 100 100 100 100 100 100 100 99 96 100 100 99 100 100 99 98 98 94 94 92 94 94 94 90 87 76 64 66 61 61 61 69 67 58 67 77 76 82
100 100 100 100 100 100 100 100 100 100 95 98 100 100 100 98 100 100 100 100 100 95 95 97 95 95 79 81 86 89 88 87 80 73 73 71 73 70 70 85 85 79 85
100 100 100 100 100 100 100 100 100 100 99 100 100 100 100 100 100 99 99 100 97 97 87 93 97 84 88 87 92 92 90 88 90 88 90 88 86 78 75 83 91 95 100
93 87 87 88 96 100 99 100 100 100 100 100 100 100 100 100 100 99 100 100 100 97 93 99 100 100 100 100 100 99 98 98 98 100 99 98 99 99 99 96 98 100 100
100 98 87 80 74 73 76 77 82 94 98 99 100 100 99 98 99 100 100 100 100 94 92 100 99 94 92 94 88 90 91 100 100 100 99 100 100 100 100 99 100 100 100
100 96 96 91 84 83 74 67 73 72 76 82 80 84 86 88 93 96 97 98 99 99 98 98 99 100 100 100 100 100 100 97 94 92 94 92 96 100 100 100 100 100 100
76 74 68 72 74 66 63 69 77 82 87 81 77 76 73 71 73 75 75 75 74 76 80 86 90 90 89 88 88 90 96 99 99 99 99 100 98 86 83 87 88 94 97
72 73 69 68 67 63 59 62 66 71 68 69 66 66 71 74 76 76 78 77 78 76 75 75 77 79 81 82 82 82 85 91 97 98 99 100 100 100 100 100 99 98 94
74 76 72 70 70 71 69 64 68 64 61 55 56 63 66 71 73 66 66 69 77 83 86 87 89 92 93 95 96 96 95 94 92 93 98 99 99 100 100 100 100 100 99
74 75 74 71 70 74 74 76 71 66 64 59 54 53 53 59 61 65 67 69 72 72 72 74 80 84 86 90 94 95 95 97 98 99 100 99 99 100 100 100 100 100 100
72 77 78 79 79 72 65 65 69 65 59 59 58 56 55 58 57 55 60 67 70 74 77 78 82 86 92 96 98 97 95 96 97 98 98 99 99 100 100 100 100 100 99
75 78 80 81 85 84 80 80 82 75 75 72 66 66 65 62 58 56 56 57 58 60 61 62 62 64 71 88 96 99 98 96 95 98 99 99 100 100 100 100 100 100 100